[[{"header":{"parameterUnit":"m.s-1","parameterCategory":1,"la1":30.6,"la2":28.766,"lo1":-90.7593,"lo2":-88.6598,"dy":0.0162,"dx":0.0183,"nx":116,"ny":114,"refTime":"2023-09-06T12:00:00:Z","depth":0,"parameterNumber":2,"parameterNumberName":"U-component_of_WINDS"},"data":[0.0,0.0,0.0,0.0,0.0,0.0,0.0,0.0,0.0,0.0,0.0,0.0,0.0,0.0,0.0,0.0,0.0,0.0,0.0,0.0,0.0,0.0,0.0,0.0,0.0,0.0,0.0,0.0,0.0,0.0,0.0,0.0,0.0,0.0,0.0,0.0,0.0,0.0,0.0,0.0,0.0,0.0,0.0,0.0,0.0,0.0,0.0,0.0,0.0,0.0,0.0,0.0,0.0,0.0,0.0,0.0,0.0,0.0,0.0,0.0,0.0,0.0,0.0,0.0,0.0,0.0,0.0,0.0,0.0,0.0,0.0,0.0,0.0,0.0,0.0,0.0,0.0,0.0,0.0,0.0,0.0,0.0,0.0,0.0,0.0,0.0,0.0,0.0,0.0,0.0,0.0,0.0,0.0,0.0,0.0,0.0,0.0,0.0,0.0,0.0,0.0,0.0,0.0,0.0,0.0,0.0,0.0,0.0,0.0,0.0,0.0,0.0,0.0,0.0,0.0,0.0,0.0,0.0,0.0,0.0,0.0,0.0,0.0,0.0,0.0,0.0,0.0,0.0,0.0,0.0,0.0,0.0,0.0,0.0,0.0,0.0,0.0,0.0,0.0,0.0,0.0,0.0,0.0,0.0,0.0,0.0,0.0,0.0,0.0,0.0,0.0,0.0,0.0,0.0,0.0,0.0,0.0,0.0,0.0,0.0,0.0,0.0,0.0,0.0,0.0,0.0,0.0,0.0,0.0,0.0,0.0,0.0,0.0,0.0,0.0,0.0,0.0,0.0,0.0,0.0,0.0,0.0,0.0,0.0,0.0,0.0,0.0,0.0,0.0,0.0,0.0,0.0,0.0,0.0,0.0,0.0,0.0,0.0,0.0,0.0,0.0,0.0,0.0,0.0,0.0,0.0,0.0,0.0,0.0,0.0,0.0,0.0,0.0,0.0,0.0,0.0,0.0,0.0,0.0,0.0,0.0,0.0,0.0,0.0,0.0,0.0,0.0,0.0,0.0,0.0,0.0,0.0,0.0,0.0,0.0,0.0,0.0,0.0,0.0,0.0,0.0,0.0,0.0,0.0,0.0,0.0,0.0,0.0,0.0,0.0,0.0,0.0,0.0,0.0,0.0,0.0,0.0,0.0,0.0,0.0,0.0,0.0,0.0,0.0,0.0,0.0,0.0,0.0,0.0,0.0,0.0,0.0,0.0,0.0,0.0,0.0,0.0,0.0,0.0,0.0,0.0,0.0,0.0,0.0,0.0,0.0,0.0,0.0,0.0,0.0,0.0,0.0,0.0,0.0,0.0,0.0,0.0,0.0,0.0,0.0,0.0,0.0,0.0,0.0,0.0,0.0,0.0,0.0,0.0,0.0,0.0,0.0,0.0,0.0,0.0,0.0,0.0,0.0,0.0,0.0,0.0,0.0,0.0,0.0,0.0,0.0,0.0,0.0,0.0,0.0,0.0,0.0,0.0,0.0,0.0,0.0,0.0,0.0,0.0,0.0,0.0,0.0,0.0,0.0,0.0,0.0,0.0,0.0,0.0,0.0,0.0,0.0,0.0,0.0,0.0,0.0,0.0,0.0,0.0,0.0,0.0,0.0,0.0,0.0,0.0,0.0,0.0,0.0,0.0,0.0,0.0,0.0,0.0,0.0,0.0,0.0,0.0,0.0,0.0,0.0,0.0,0.0,0.0,0.0,0.0,0.0,0.0,0.0,0.0,0.0,0.0,0.0,0.0,0.0,0.0,0.0,0.0,0.0,0.0,0.0,0.0,0.0,0.0,0.0,0.0,0.0,0.0,0.0,0.0,0.0,0.0,0.0,0.0,0.0,0.0,0.0,0.0,0.0,0.0,0.0,0.0,0.0,0.0,0.0,0.0,0.0,0.0,0.0,0.0,0.0,0.0,0.0,0.0,0.0,0.0,0.0,0.0,0.0,0.0,0.0,0.0,0.0,0.0,0.0,0.0,0.0,0.0,0.0,0.0,0.0,0.0,0.0,0.0,0.0,0.0,0.0,0.0,0.0,0.0,0.0,0.0,0.0,0.0,0.0,0.0,0.0,0.0,0.0,0.0,0.0,0.0,0.0,0.0,0.0,0.0,0.0,0.0,0.0,0.0,0.0,0.0,0.0,0.0,0.0,0.0,0.0,0.0,0.0,0.0,0.0,0.0,0.0,0.0,0.0,0.0,0.0,0.0,0.0,0.0,0.0,0.0,0.0,0.0,0.0,0.0,0.0,0.0,0.0,0.0,0.0,0.0,0.0,0.0,0.0,0.0,0.0,0.0,0.0,0.0,0.0,0.0,0.0,0.0,0.0,0.0,0.0,0.0,0.0,0.0,0.0,0.0,0.0,0.0,0.0,0.0,0.0,0.0,0.0,0.0,0.0,0.0,0.0,0.0,0.0,0.0,0.0,0.0,0.0,0.0,0.0,0.0,0.0,0.0,0.0,0.0,0.0,0.0,0.0,0.0,0.0,0.0,0.0,0.0,0.0,0.0,0.0,0.0,0.0,0.0,0.0,0.0,0.0,0.0,0.0,0.0,0.0,0.0,0.0,0.0,0.0,0.0,0.0,0.0,0.0,0.0,0.0,0.0,0.0,0.0,0.0,0.0,0.0,0.0,0.0,0.0,0.0,0.0,0.0,0.0,0.0,0.0,0.0,0.0,0.0,0.0,0.0,0.0,0.0,0.0,0.0,0.0,0.0,0.0,0.0,0.0,0.0,0.0,0.0,0.0,0.0,0.0,0.0,0.0,0.0,0.0,0.0,0.0,0.0,0.0,0.0,0.0,0.0,0.0,0.0,0.0,0.0,0.0,0.0,0.0,0.0,0.0,0.0,0.0,0.0,0.0,0.0,0.0,0.0,0.0,0.0,0.0,0.0,0.0,0.0,0.0,0.0,0.0,0.0,0.0,0.0,0.0,0.0,0.0,0.0,0.0,0.0,0.0,0.0,0.0,0.0,0.0,0.0,0.0,0.0,0.0,0.0,0.0,0.0,0.0,0.0,0.0,0.0,0.0,0.0,0.0,0.0,0.0,0.0,0.0,0.0,0.0,0.0,0.0,0.0,0.0,0.0,0.0,0.0,0.0,0.0,0.0,0.0,0.0,0.0,0.0,0.0,0.0,0.0,0.0,0.0,0.0,0.0,0.0,0.0,0.0,0.0,0.0,0.0,0.0,0.0,0.0,0.0,0.0,0.0,0.0,0.0,0.0,0.0,0.0,0.0,0.0,0.0,0.0,0.0,0.0,0.0,0.0,0.0,0.0,0.0,0.0,0.0,0.0,0.0,0.0,0.0,0.0,0.0,0.0,0.0,0.0,0.0,0.0,0.0,0.0,0.0,0.0,0.0,0.0,0.0,0.0,0.0,0.0,0.0,0.0,0.0,0.0,0.0,0.0,0.0,0.0,0.0,0.0,0.0,0.0,0.0,0.0,0.0,0.0,0.0,0.0,0.0,0.0,0.0,0.0,0.0,0.0,0.0,0.0,0.0,0.0,0.0,0.0,0.0,0.0,0.0,0.0,0.0,0.0,0.0,0.0,0.0,0.0,0.0,0.0,0.0,0.0,0.0,0.0,0.0,0.0,0.0,0.0,0.0,0.0,0.0,0.0,0.0,0.0,0.0,0.0,0.0,0.0,0.0,0.0,0.0,0.0,0.0,0.0,0.0,0.0,0.0,0.0,0.0,0.0,0.0,0.0,0.0,0.0,0.0,0.0,0.0,0.0,0.0,0.0,0.0,0.0,0.0,0.0,0.0,0.0,0.0,0.0,0.0,0.0,0.0,0.0,0.0,0.0,0.0,0.0,0.0,0.0,0.0,0.0,0.0,0.0,0.0,0.0,0.0,0.0,0.0,0.0,0.0,0.0,0.0,0.0,0.0,0.0,0.0,0.0,0.0,0.0,0.0,0.0,0.0,0.0,0.0,0.0,0.0,0.0,0.0,0.0,0.0,0.0,0.0,0.0,0.0,0.0,0.0,0.0,0.0,0.0,0.0,0.0,0.0,0.0,0.0,0.0,0.0,0.0,0.0,0.0,0.0,0.0,0.0,0.0,0.0,0.0,0.0,0.0,0.0,0.0,0.0,0.0,0.0,0.0,0.0,0.0,0.0,0.0,0.0,0.0,0.0,0.0,0.0,0.0,0.0,0.0,0.0,0.0,0.0,0.0,0.0,0.0,0.0,0.0,0.0,0.0,0.0,0.0,0.0,0.0,0.0,0.0,0.0,0.0,0.0,0.0,0.0,0.0,0.0,0.0,0.0,0.0,0.0,0.0,0.0,0.0,0.0,0.0,0.0,0.0,0.0,0.0,0.0,0.0,0.0,0.0,0.0,0.0,0.0,0.0,0.0,0.0,0.0,0.0,0.0,0.0,0.0,0.0,0.0,0.0,0.0,0.0,0.0,0.0,0.0,0.0,0.0,0.0,0.0,0.0,0.0,0.0,0.0,0.0,0.0,0.0,0.0,0.0,0.0,0.0,0.0,0.0,0.0,0.0,0.0,0.0,0.0,0.0,0.0,0.0,0.0,0.0,0.0,0.0,0.0,0.0,0.0,0.0,0.0,0.0,0.0,0.0,0.0,0.0,0.0,0.0,0.0,0.0,0.0,0.0,0.0,0.0,0.0,0.0,0.0,0.0,0.0,0.0,0.0,0.0,0.0,0.0,0.0,0.0,0.0,0.0,0.0,0.0,0.0,0.0,0.0,0.0,0.0,0.0,0.0,0.0,0.0,0.0,0.0,0.0,0.0,0.0,0.0,0.0,0.0,0.0,0.0,0.0,0.0,0.0,0.0,0.0,0.0,0.0,0.0,0.0,0.0,0.0,0.0,0.0,0.0,0.0,0.0,0.0,0.0,0.0,0.0,0.0,0.0,0.0,0.0,0.0,0.0,0.0,0.0,0.0,0.0,0.0,0.0,0.0,0.0,0.0,0.0,0.0,0.0,0.0,0.0,0.0,0.0,0.0,0.0,0.0,0.0,0.0,0.0,0.0,0.0,0.0,0.0,0.0,0.0,0.0,0.0,0.0,0.0,0.0,0.0,0.0,0.0,0.0,0.0,0.0,0.0,0.0,0.0,0.0,0.0,0.0,0.0,0.0,0.0,0.0,0.0,0.0,0.0,0.0,0.0,0.0,0.0,0.0,0.0,0.0,0.0,0.0,0.0,0.0,0.0,0.0,0.0,0.0,0.0,0.0,0.0,0.0,0.0,0.0,0.0,0.0,0.0,0.0,0.0,0.0,0.0,0.0,0.0,0.0,0.0,0.0,0.0,0.0,0.0,0.0,0.0,0.0,0.0,0.0,0.0,0.0,0.0,0.0,0.0,0.0,0.0,0.0,0.0,0.0,0.0,0.0,0.0,0.0,0.0,0.0,0.0,0.0,0.0,0.0,0.0,0.0,0.0,0.0,0.0,0.0,0.0,0.0,0.0,0.0,0.0,0.0,0.0,0.0,0.0,0.0,0.0,0.0,0.0,0.0,0.0,0.0,0.0,0.0,0.0,0.0,0.0,0.0,0.0,0.0,0.0,0.0,0.0,0.0,0.0,0.0,0.0,0.0,0.0,0.0,0.0,0.0,0.0,0.0,0.0,0.0,0.0,0.0,0.0,0.0,0.0,0.0,0.0,0.0,0.0,0.0,0.0,0.0,0.0,0.0,0.0,0.0,0.0,0.0,0.0,0.0,0.0,0.0,0.0,0.0,0.0,0.0,0.0,0.0,0.0,0.0,0.0,0.0,0.0,0.0,0.0,0.0,0.0,0.0,0.0,0.0,0.0,0.0,0.0,0.0,0.0,0.0,0.0,0.0,0.0,0.0,0.0,0.0,0.0,0.0,0.0,0.0,0.0,0.0,0.0,0.0,0.0,0.0,0.0,0.0,0.0,0.0,0.0,0.0,0.0,0.0,0.0,0.0,0.0,0.0,0.0,0.0,0.0,0.0,0.0,0.0,0.0,0.0,0.0,0.0,0.0,0.0,0.0,0.0,0.0,0.0,0.0,0.0,0.0,0.0,0.0,0.0,0.0,0.0,0.0,0.0,0.0,0.0,0.0,0.0,0.0,0.0,0.0,0.0,0.0,0.0,0.0,0.0,0.0,0.0,0.0,-1.4942,0.0,0.0,0.0,0.0,0.0,0.0,0.0,0.0,0.0,0.0,0.0,0.0,0.0,0.0,0.0,0.0,0.0,0.0,0.0,0.0,0.0,0.0,0.0,0.0,0.0,0.0,0.0,0.0,0.0,0.0,0.0,0.0,0.0,0.0,0.0,0.0,0.0,0.0,0.0,1.7983,1.9133,2.0369,2.0055,1.9478,1.8716,0.0,0.0,0.0,0.0,0.0,0.0,0.0,0.0,0.0,0.0,0.0,0.0,0.0,0.0,0.0,0.0,0.0,0.0,0.0,0.0,0.0,0.0,0.0,0.0,0.0,0.0,0.0,0.0,0.0,0.0,0.0,0.0,0.0,0.0,0.0,0.0,0.0,0.0,0.0,0.0,0.0,0.0,0.0,0.0,0.0,0.0,0.0,0.0,0.0,0.0,0.0,0.0,0.0,0.0,0.0,0.0,0.0,0.0,0.0,0.0,0.0,0.0,0.0,0.0,0.0,0.0,0.0,0.0,0.0,0.0,0.0,-1.6248,0.0,0.0,0.0,0.0,0.0,0.0,0.0,0.0,0.0,0.0,0.0,0.0,0.0,0.0,0.0,0.0,0.0,0.0,0.0,0.0,0.0,0.0,0.0,0.0,2.0115,2.0285,1.9496,1.8939,0.0,0.0,0.0,0.0,0.0,0.0,0.0,0.0,0.0,1.6867,1.9335,2.1229,2.2539,2.2748,2.2078,2.0747,2.0543,0.0,0.0,0.0,0.0,0.0,0.0,0.0,0.0,0.0,0.0,0.0,0.0,0.0,0.0,0.0,0.0,0.0,0.0,0.0,0.0,0.0,0.0,0.0,0.0,0.0,0.0,0.0,0.0,0.0,0.0,0.0,0.0,0.0,0.0,0.0,0.0,0.0,0.0,0.0,0.0,0.0,0.0,0.0,0.0,0.0,0.0,0.0,0.0,0.0,0.0,0.0,0.0,0.0,0.0,0.0,0.0,0.0,0.0,0.0,0.0,0.0,0.0,0.0,-1.8337,-1.9084,-1.9614,-2.0169,-2.0673,-2.1013,-2.0228,-2.0324,-2.0905,-1.8808,0.0,0.0,0.0,0.0,0.0,0.0,0.0,0.0,0.0,0.0,0.0,0.0,0.0,0.0,0.0,0.0,0.0,0.0,0.0,0.0,0.0,2.0192,2.0277,2.0304,1.9504,1.8696,0.0,0.0,0.0,0.0,0.0,0.0,0.0,1.5504,1.6433,1.8317,2.1274,2.2821,2.3114,2.3822,2.4027,2.3785,2.2719,2.097,1.8806,0.0,0.0,0.0,0.0,0.0,0.0,0.0,0.0,0.0,0.0,0.0,0.0,0.0,0.0,0.0,0.0,0.0,0.0,0.0,0.0,0.0,0.0,0.0,0.0,0.0,0.0,0.0,0.0,0.0,0.0,0.0,0.0,0.0,0.0,0.0,0.0,0.0,0.0,0.0,0.0,0.0,-0.0867,-0.2782,0.0,0.0,0.0,0.0,0.0,0.0,0.0,0.0,0.0,0.0,0.0,0.0,0.0,-1.5707,-1.7036,-1.9202,-2.0582,-2.1096,-2.2751,-2.3778,-2.4318,-2.5036,-2.5651,-2.6106,-2.5342,0.0,-2.2072,-2.1916,0.0,0.0,0.0,0.0,0.0,0.0,0.0,0.0,0.0,0.0,0.0,0.0,0.0,0.0,0.0,0.0,0.0,0.0,0.0,0.0,0.0,2.1105,2.1707,2.1756,2.1831,2.1111,1.9331,1.8409,0.0,0.0,0.0,0.0,1.5914,1.5859,1.7633,2.1343,2.357,2.559,2.7363,2.7716,2.7945,2.7976,2.6483,2.4098,2.1217,2.1014,0.0,0.0,0.0,0.0,0.0,0.0,0.0,0.0,0.0,0.0,0.0,0.0,0.0,0.0,0.0,0.0,0.0,0.0,0.0,0.0,0.0,0.0,0.0,0.0,0.0,0.0,0.0,0.0,0.0,0.0,0.0,0.0,0.0,0.0,0.0,0.0,0.0,0.0,0.0,-0.0144,-0.4468,-0.5914,-0.6871,-0.7504,0.0,0.0,0.0,0.0,0.0,0.0,0.0,0.0,0.0,-1.7099,-1.8467,-1.9599,-2.0503,-2.2555,-2.3848,-2.4456,-2.5199,-2.5858,-2.6447,-2.7088,-2.7486,-2.7717,-2.7698,-2.7075,-2.5967,-2.4948,-2.3935,-2.2917,0.0,0.0,0.0,0.0,-1.8558,-1.9132,0.0,0.0,0.0,0.0,0.0,0.0,0.0,0.0,0.0,0.0,0.0,0.0,2.0979,2.2457,2.3457,2.3563,2.3918,2.3047,2.0495,1.9567,0.0,0.0,0.0,1.6009,1.6827,1.7964,2.0622,2.4861,2.6642,2.8724,3.1007,3.0841,3.082,3.0903,2.8963,2.6381,2.3422,2.2332,2.0466,1.8183,0.0,0.0,0.0,0.0,0.0,0.0,0.0,0.0,0.0,0.0,0.0,0.0,0.0,0.0,0.0,0.0,0.0,0.0,0.0,0.0,0.0,0.0,0.0,0.0,0.0,0.0,0.0,0.0,0.0,0.0,0.0,0.0,0.0,0.0,0.0,0.0,0.0,-0.416,-0.815,-0.9632,-1.1297,-1.1417,0.0,0.0,0.0,0.0,0.0,0.0,-1.6126,-1.6697,-1.7955,-2.0124,-2.1816,-2.301,-2.3655,-2.5122,-2.6198,-2.6941,-2.6941,-2.7332,-2.8103,-2.8715,-2.9071,-2.9293,-2.9892,-3.0006,-2.9685,-2.7601,-2.6336,-2.5579,-2.4701,-2.3235,-2.1582,-2.1501,-2.1712,-2.2083,0.0,0.0,0.0,0.0,0.0,0.0,0.0,0.0,0.0,0.0,0.0,2.2795,2.2853,2.4245,2.5226,2.537,2.4657,2.3114,2.0554,1.9645,1.8378,1.651,1.6501,1.6911,1.7721,2.2277,2.5919,2.8531,3.0795,3.1958,3.2109,3.1459,3.117,3.1089,2.8613,2.6343,2.4241,2.2508,2.0592,1.8531,1.6899,0.0,0.0,0.0,0.0,0.0,0.0,0.0,0.0,0.0,0.0,0.0,0.0,0.0,0.0,0.0,0.0,0.0,0.0,0.0,0.0,0.0,0.0,0.0,0.0,0.0,0.0,0.0,0.0,0.0,0.0,0.0,0.0,0.0,0.0,0.0,0.0,0.0,0.0,-1.3831,-1.5186,0.0,0.0,0.0,0.0,-1.4074,-1.5048,-1.6928,-1.9884,-1.996,-2.1536,-2.5148,-2.4794,-2.5141,-2.628,-2.6388,-2.7026,-2.8118,-2.8118,-2.8749,-2.9998,-3.0729,-3.1421,-3.2138,-3.2865,-3.278,-3.1935,-2.977,-2.8548,-2.7899,-2.6601,-2.5704,-2.5024,-2.4148,-2.4713,-2.5959,0.0,0.0,0.0,0.0,0.0,0.0,0.0,0.0,2.0065,1.9596,2.1529,2.2772,2.2271,2.5149,2.7141,2.7231,2.7898,2.7263,2.4761,2.3217,2.1422,1.9173,1.8017,1.8533,2.0905,2.5842,2.8734,2.944,3.1292,3.2392,3.2716,3.2212,3.1692,3.1101,2.8853,2.6272,2.3583,2.2498,2.0471,1.7836,1.6598,1.4917,0.0,0.0,0.0,0.0,0.0,0.0,0.0,0.0,0.0,0.0,0.0,0.0,0.0,0.0,0.0,0.0,0.0,0.0,0.0,0.0,0.0,0.0,0.0,0.0,0.0,0.0,0.0,0.0,0.0,0.0,0.0,0.0,0.0,0.0,0.0,0.0,0.0,-1.3738,-1.5653,0.0,-1.511,-1.6221,-1.6991,-1.6865,-1.8469,-2.0335,-2.2328,-2.2396,-2.3357,-2.5538,-2.6195,-2.6917,-2.7844,-2.8681,-2.9714,-3.0962,-3.0962,-3.1408,-3.2239,-3.251,-3.2763,-3.3017,-3.3288,-3.3254,-3.2949,-3.2154,-3.1179,-3.0029,-2.9076,-2.8598,-2.8315,-2.7528,-2.7565,-2.802,0.0,0.0,0.0,0.0,0.0,0.0,0.0,0.0,2.0395,2.0432,2.2454,2.3897,2.3952,2.6909,2.8929,2.9001,2.9955,2.9254,2.6194,2.4804,2.2878,2.0104,2.0043,2.187,2.5745,2.9072,3.109,3.1752,3.2703,3.3412,3.3829,3.3224,3.2259,3.09,2.7611,2.4297,2.1051,1.7789,1.6362,1.616,1.5039,1.2781,1.0068,0.0,0.0,0.0,0.0,0.0,0.0,0.0,0.0,0.0,0.0,0.0,0.0,0.0,0.0,0.0,0.0,0.0,0.0,0.0,0.0,0.0,0.0,0.0,0.0,0.0,0.0,0.0,0.0,0.0,0.0,0.0,0.0,0.0,0.0,0.0,-1.6255,-1.4368,-1.6768,-1.8056,-1.6763,-1.8538,-1.9747,-1.9747,-2.1298,-2.2818,-2.4189,-2.4502,-2.5315,-2.6894,-2.7997,-2.8983,-2.9909,-3.0744,-3.1733,-3.2779,-3.2779,-3.3148,-3.3778,-3.3778,-3.3643,-3.344,-3.3931,-3.3728,-3.3068,-3.3575,-3.3051,-3.1884,-3.141,-3.1224,-3.1157,-3.0649,-3.0311,-3.0095,0.0,0.0,0.0,0.0,0.0,0.0,0.0,2.0427,2.1105,2.2759,2.4508,2.623,2.7909,2.9531,3.0527,3.0585,3.0546,2.8742,2.4593,2.4071,2.2498,1.9292,2.2552,2.6827,3.1894,3.2016,3.3204,3.5589,3.5264,3.523,3.5434,3.4272,3.2596,3.0231,2.4693,2.0273,1.6458,0.8429,0.8154,1.3067,1.1718,0.9576,0.7049,0.0,0.0,0.0,0.0,0.0,0.0,0.0,0.0,0.0,0.0,0.0,0.0,0.0,0.0,0.0,0.0,0.0,0.0,0.0,0.0,0.0,0.0,0.0,0.0,0.0,0.0,0.0,0.0,0.0,0.0,0.0,0.0,0.0,-1.4102,-1.5108,-1.5963,-1.6148,-1.8869,-2.0461,-1.9768,-2.1498,-2.2644,-2.2658,-2.3357,-2.4306,-2.5596,-2.6255,-2.7513,-2.949,-3.0208,-3.118,-3.2418,-3.2512,-3.2873,-3.3474,-3.3474,-3.3846,-3.4523,-3.4523,-3.4134,-3.3558,-3.4996,-3.4387,-3.2493,-3.3931,-3.4117,-3.3474,-3.3423,-3.3406,-3.3406,-3.3406,-3.2949,-3.2205,0.0,0.0,0.0,0.0,0.0,0.0,0.0,2.0485,2.047,2.0355,2.3453,2.5605,2.5387,2.8517,3.0632,3.0593,3.0574,2.9516,2.7044,2.5604,2.4154,2.2622,2.606,2.9233,3.1875,3.381,3.4983,3.5312,3.5414,3.5282,3.4813,3.012,2.6958,2.498,1.8769,1.3017,0.7721,0.429,0.0926,-0.1833,0.206,0.2983,0.1981,0.0,0.0,0.0,0.0,0.0,0.0,0.0,0.0,0.0,0.0,0.0,0.0,0.0,0.0,0.0,0.0,0.0,0.0,0.0,0.0,0.0,0.0,0.0,0.0,0.0,0.0,0.0,0.0,0.0,0.0,0.0,0.0,-1.7333,-1.607,-1.7158,-1.859,-1.9861,-2.0766,-2.1407,-2.1738,-2.2638,-2.3405,-2.3945,-2.5039,-2.6062,-2.6913,-2.6707,-2.7041,-2.8117,-2.9218,-3.0252,-3.1118,-3.3012,-3.4324,-3.5013,-3.5013,-3.5115,-3.5318,-3.5318,-3.5199,-3.503,-3.5436,-3.5267,-3.4726,-3.5148,-3.5199,-3.4912,-3.3829,-3.3406,-3.3406,-3.3406,-3.3271,-3.2848,0.0,0.0,0.0,0.0,0.0,0.0,0.0,2.046,2.0549,2.0812,2.3632,2.5691,2.5878,2.8641,3.0464,3.0445,3.0619,2.9403,2.626,2.4839,2.4957,2.6864,2.9209,3.1432,3.3535,3.5098,3.5942,3.6046,3.4969,3.3607,3.181,2.7131,2.1917,1.6254,1.0778,0.4683,-0.1699,-0.5632,-0.9361,-1.2452,-1.0123,-0.726,-0.4487,-0.4785,-0.5325,-0.6162,-0.7603,-0.7976,-0.7762,-0.7655,0.0,0.0,0.0,0.0,0.0,0.0,0.0,0.0,0.0,0.0,0.0,0.0,0.0,0.0,0.0,0.0,0.0,0.0,0.0,0.0,0.0,0.0,0.0,0.0,-1.9391,-2.0497,-1.9987,-2.0244,-2.0849,-2.1838,-2.2421,-2.2771,-2.2935,-2.4286,-2.5273,-2.5723,-2.6985,-2.7905,-2.8374,-2.8257,-2.8345,-2.875,-3.0354,-3.1383,-3.1748,-3.3879,-3.5182,-3.5622,-3.5622,-3.5622,-3.5622,-3.5622,-3.5284,-3.4726,-3.5351,-3.5267,-3.4742,-3.5368,-3.5622,0.0,0.0,0.0,0.0,0.0,-3.3863,-3.3626,0.0,0.0,0.0,0.0,0.0,0.0,0.0,2.0405,2.1035,2.2775,2.4455,2.6159,2.7867,2.9332,3.019,3.0155,3.0407,2.8663,2.4124,2.3152,2.5251,3.0931,3.1621,3.3134,3.5818,3.5859,3.623,3.7012,3.4583,3.1852,2.8854,2.4626,1.7235,0.7317,0.1765,-0.4463,-1.1306,-1.7763,-2.0181,-1.9933,-2.2181,-1.8589,-1.1784,-1.1202,-1.0912,-1.1024,-1.2246,-1.2357,-1.2049,-1.2457,0.0,0.0,0.0,0.0,0.0,0.0,0.0,0.0,0.0,0.0,0.0,0.0,0.0,0.0,0.0,0.0,0.0,0.0,0.0,0.0,0.0,0.0,0.0,0.0,-2.2177,-2.3426,-2.4584,-2.3729,-2.3031,-2.2924,-2.3918,-2.4422,-2.3901,-2.6049,-2.7599,-2.7726,-2.8956,-2.9684,-2.9684,0.0,0.0,0.0,0.0,-3.3451,-3.3322,-3.4834,-3.5622,-3.5622,-3.5622,-3.5622,-3.5622,-3.5622,-3.4912,-3.3728,-3.5047,-3.4878,-3.3761,-3.5125,-3.5694,-3.5694,-3.5605,-3.5622,-3.552,-3.4675,-3.4472,-3.4489,0.0,0.0,0.0,0.0,0.0,0.0,0.0,2.043,2.1031,2.2772,2.4464,2.6062,2.7535,2.9193,3.0086,2.9822,2.9025,2.7811,2.6041,2.4432,2.5798,3.0812,3.1442,3.2954,3.5688,3.5634,3.5664,3.582,3.6187,3.5541,3.3693,2.0648,1.2756,0.8936,-0.5325,-1.4241,-1.8828,-2.1694,-2.4105,-2.5935,-2.5713,-2.2712,-1.8378,-1.8251,-1.7811,-1.7359,-1.7859,-1.8216,-1.839,-1.7811,-1.7618,-1.7604,-1.7509,0.0,0.0,0.0,0.0,0.0,0.0,0.0,0.0,0.0,0.0,0.0,0.0,0.0,0.0,0.0,0.0,0.0,0.0,0.0,0.0,-2.3612,-2.4411,-2.5236,-2.6021,-2.5877,-2.554,-2.4929,-2.5094,-2.5632,-2.6633,-2.7193,-2.7952,-2.9109,-2.9913,-3.0328,-3.0328,-3.0487,-3.0587,-3.0576,-3.1997,-3.276,-3.2763,-3.4667,-3.5622,-3.5622,0.0,0.0,-3.5622,-3.5622,-3.5453,-3.5216,-3.5504,-3.5453,-3.5216,-3.5934,-3.6266,-3.6224,-3.5783,-3.5622,-3.5453,-3.4117,-3.437,-3.5115,0.0,0.0,0.0,0.0,0.0,0.0,0.0,2.0239,2.0489,2.1297,2.278,2.4295,2.574,2.6197,2.6652,2.725,2.5305,2.5055,2.7461,2.5955,2.7071,3.1755,3.2341,3.3053,3.4131,3.4821,3.5215,3.5351,3.5371,3.1083,2.2645,1.3632,0.3503,-0.7559,-1.6314,-2.249,-2.6492,-2.7869,-2.8986,-2.9862,-2.9265,-2.7375,-2.4712,-2.2717,-2.1841,-2.1802,-2.2607,-2.2892,-2.2813,-2.2692,-2.2448,-2.2233,-2.2408,-2.2191,-2.1639,0.0,0.0,0.0,0.0,0.0,0.0,0.0,0.0,0.0,0.0,0.0,0.0,0.0,0.0,-2.4469,0.0,0.0,-2.4402,-2.5586,-2.5648,-2.5918,-2.6902,-2.7034,-2.6774,-2.6068,-2.6554,-2.7155,-2.7472,-2.8411,-2.9271,-3.0013,-3.0961,-3.1546,-3.1546,-3.193,-3.1924,-3.1518,-3.2847,-3.3404,-3.3014,-3.4728,-3.5622,-3.5622,-3.5622,-3.5622,-3.5622,-3.5622,-3.5622,-3.5622,-3.5622,-3.5622,-3.5622,-3.5898,-3.6028,-3.5968,-3.5694,-3.5622,-3.5537,-3.4793,-3.4979,-3.5453,0.0,0.0,0.0,0.0,0.0,0.0,0.0,1.9981,1.9936,2.0088,2.1101,2.2365,2.3768,2.3033,2.2767,2.3631,2.1604,2.2401,2.7402,2.6679,2.7994,3.2325,3.273,3.2693,3.2411,3.3688,3.3594,3.2077,3.0281,2.2383,0.8827,0.4502,-0.6602,-2.3024,-2.5799,-2.9057,-3.2445,-3.3044,-3.289,-3.218,-3.1681,-3.0837,-2.9442,-2.603,-2.4811,-2.5055,-2.6065,-2.6166,-2.5866,-2.6349,-2.6281,-2.6114,-2.6527,-2.675,-2.6346,-2.3837,-2.4154,0.0,0.0,0.0,0.0,0.0,0.0,0.0,0.0,0.0,-2.6947,-2.6786,-2.6629,-2.6608,-2.6928,-2.609,-2.5805,-2.7354,-2.6808,-2.6492,-2.7475,-2.7679,-2.755,-2.6963,-2.7935,-2.8471,-2.8137,-2.9533,-3.0608,-3.091,-3.1949,-3.2641,-3.2788,-3.3443,-3.3518,-3.282,-3.4093,-3.4485,-3.3846,-3.503,-3.5622,-3.5622,-3.5622,-3.5622,-3.5622,-3.5622,-3.5622,-3.5622,-3.5622,-3.565,-3.5739,-3.565,-3.565,-3.5739,-3.5667,-3.5622,-3.5622,-3.5622,-3.5622,-3.5622,0.0,0.0,0.0,0.0,0.0,0.0,0.0,0.0,0.0,2.1056,2.1211,2.1643,2.2749,2.2232,2.1149,1.9533,2.0303,2.1867,2.4112,2.5012,2.7198,3.0969,3.0722,3.0891,3.1758,3.2437,2.8857,2.0911,1.6552,1.084,0.3748,-0.7131,-1.4161,-1.8061,-2.7669,-3.2641,-3.3832,-3.3468,-3.3033,-3.2525,-3.1294,-3.0541,-3.0009,-2.8931,-2.7886,-2.7023,-2.6951,-2.7021,-2.7186,-2.7261,-2.7692,-2.8197,-2.8029,-2.8355,-2.8447,-2.6781,0.0,-2.6422,-2.3226,-2.1441,0.0,-2.2308,-2.4433,-2.6117,0.0,0.0,-3.0204,-2.9017,-2.9435,-3.0144,-3.0564,-3.0082,-2.9515,-2.9223,-2.8591,-2.8069,-2.7645,-2.8098,-2.8487,-2.8368,-2.8495,-2.8988,-3.0052,-3.0362,-3.1011,-3.2268,-3.2501,-3.2841,-3.3443,-3.4137,-3.4462,-3.4345,-3.5061,-3.5431,-3.5368,-3.5537,-3.5622,-3.5622,-3.5622,-3.5622,-3.5622,-3.5622,-3.5622,-3.5622,-3.5622,-3.5854,-3.6249,-3.5783,-3.5898,-3.6249,-3.5783,-3.5622,-3.5622,-3.5622,-3.5622,-3.5622,0.0,0.0,0.0,0.0,0.0,0.0,0.0,0.0,0.0,0.0,1.9105,1.9342,2.0643,1.9651,1.8155,1.6248,1.7365,1.886,2.0619,2.3,2.5532,2.8127,2.7906,2.8446,2.9986,2.5159,1.8087,0.8841,0.8007,0.2598,-0.7066,-1.3025,-1.9668,-2.679,-3.1596,-3.36,-3.3336,-3.3265,-3.2848,-3.2192,-3.1501,-3.0906,-3.0388,-2.9966,-2.9497,-2.8906,-2.7581,-2.72,0.0,-2.7288,-2.7568,-2.8056,-2.8858,-2.8619,-2.7948,-2.7421,-2.6695,0.0,-2.5191,0.0,0.0,0.0,-2.828,-2.9725,-2.9942,-3.1147,-3.199,-3.1237,-3.1414,-3.1585,-3.1261,-2.9764,-2.8916,0.0,-2.8182,-2.7361,-2.9043,-2.9234,-2.949,-3.0234,-2.9674,-2.9057,-2.8839,-3.0193,-3.0996,-3.0866,-3.2311,-3.3479,-3.4137,-3.48,-3.5207,-3.5207,-3.5453,-3.5622,-3.5622,-3.5622,-3.5622,-3.5622,-3.5622,-3.5622,-3.5622,-3.5622,-3.5783,-3.6054,-3.5739,-3.5898,-3.6333,-3.581,-3.5739,-3.5898,-3.5694,-3.5622,-3.5622,-3.5622,-3.5622,-3.5622,0.0,0.0,0.0,0.0,0.0,0.0,0.0,0.0,0.0,0.0,1.7172,1.7011,1.7704,1.6689,1.536,1.386,1.5081,1.6551,1.799,2.072,2.3066,2.4861,2.4875,2.4751,2.4489,1.619,0.7314,-0.2006,-0.424,-0.9857,-1.8548,-2.0557,-2.5759,-3.3439,-3.3914,-3.3682,-3.2919,-3.2867,-3.2483,-3.1877,-3.1484,-3.1033,-3.058,-3.0436,-3.0083,-2.9466,-2.798,-2.7401,-2.7262,-2.6792,-2.7024,-2.7644,-2.8295,-2.8029,-2.7446,-2.7363,-2.6303,-2.5418,-2.6773,0.0,0.0,-3.0054,-3.1054,-3.2011,-3.299,-3.3031,-3.2794,-3.2538,-3.2316,-3.1967,-3.1329,-2.9679,-2.8796,-2.9858,-2.8278,-2.7673,-2.9958,-3.0179,-3.0425,-3.1154,-3.0407,-2.9104,-2.7374,-2.9667,-3.1097,-3.072,-3.2668,-3.4186,-3.4847,-3.5362,-3.5622,-3.5622,-3.5622,-3.5622,-3.5622,-3.5622,-3.5622,-3.5622,-3.5622,-3.5622,-3.5622,-3.5739,-3.6097,-3.6603,-3.6207,-3.6182,-3.6374,-3.5985,-3.5739,-3.5622,-3.5622,-3.5622,-3.5622,-3.5622,-3.5622,-3.5622,0.0,0.0,0.0,0.0,0.0,0.0,0.0,0.0,0.0,0.0,0.0,0.0,0.0,1.3631,1.3326,1.2622,1.4384,1.5882,1.6789,1.8162,1.9681,2.1379,2.1834,1.9425,1.3789,0.6428,-0.1825,-1.0794,-2.3635,-2.9728,-2.9377,-3.2241,-3.3335,-3.2923,-3.3148,-3.3227,-3.3124,-3.2285,-3.1912,-3.1819,-3.0969,-3.0619,-3.0606,-3.058,-2.9532,-2.8076,-2.8065,-2.7903,-2.743,-2.5734,-2.6385,-2.7589,-2.5803,-2.647,0.0,-2.695,-2.5999,-2.5588,0.0,0.0,-2.6085,-2.9921,-3.0904,-3.1425,-3.3331,-3.3112,-3.2515,-3.2517,-3.1823,-3.123,-3.119,-3.1157,-3.073,-2.9629,-2.9859,-3.0043,-2.9687,-3.0687,-3.1214,-3.0496,-3.0275,-2.9116,0.0,-2.892,-3.1393,-3.3339,-3.4153,-3.483,-3.5515,-3.5577,-3.5622,-3.5622,-3.5622,-3.5622,-3.5622,-3.5622,-3.5622,-3.5622,-3.5622,-3.5622,-3.5622,-3.6139,-3.6684,-3.7173,-3.7152,-3.6882,-3.6374,-3.6374,-3.6054,-3.5622,-3.5622,-3.5622,-3.5622,-3.5622,-3.5622,-3.5622,0.0,0.0,0.0,0.0,0.0,0.0,0.0,0.0,0.0,0.0,0.0,0.0,0.0,0.0,0.0,0.0,1.2807,1.2822,1.2012,1.4716,1.6658,1.741,1.8417,1.567,0.8667,0.0497,-0.8609,-1.869,-2.4399,-2.7921,-2.9364,-3.1145,-3.196,-3.1915,-3.2154,-3.1975,-3.1457,-3.1211,-3.1083,-3.1026,-3.0761,-3.0643,-3.0476,-2.9368,-2.8585,-2.7762,0.0,-2.4627,-2.4427,-2.378,-2.4056,-2.4719,-2.5152,-2.5368,-2.5278,-2.4366,-2.5763,-2.7458,-2.6952,0.0,-2.9996,-3.1138,-3.2135,-3.2988,-3.3658,-3.3361,-3.289,-3.255,-3.1237,-3.0053,-2.9793,-2.8561,-2.8118,-2.9613,-2.8502,-2.8718,-3.2335,-3.1199,-3.0761,-3.2945,-3.1524,0.0,0.0,0.0,0.0,-3.0773,-3.3179,-3.4894,-3.556,-3.5622,-3.5622,-3.5622,-3.5622,-3.5783,-3.6139,-3.6139,-3.6291,-3.6684,-3.6291,-3.6139,-3.6139,-3.6291,-3.6865,-3.7614,-3.6943,-3.6764,-3.6882,-3.6165,-3.5783,-3.5622,-3.5622,-3.5622,-3.5622,-3.5622,-3.5622,-3.5622,0.0,0.0,0.0,0.0,0.0,0.0,0.0,0.0,0.0,0.0,0.0,0.0,0.0,0.0,0.0,0.0,0.0,1.0725,0.9944,1.1836,1.2797,1.2405,1.2028,0.8798,0.2266,-0.5981,-1.4147,-2.2175,-2.44,-2.6623,-2.8903,-3.0043,-3.0586,-3.0613,-3.0989,-3.0946,-3.0561,-3.0617,-3.0628,-3.0553,-2.9998,-2.9756,-2.9522,-2.7844,-2.6807,0.0,-2.3748,-2.2539,-2.1965,-2.1943,-2.2408,-2.3023,-2.3396,-2.35,-2.3668,-2.4511,-2.6355,-2.8146,-2.8278,-3.0111,-3.2081,-3.2482,-3.3284,-3.3884,-3.3634,-3.3273,-3.2809,-3.235,-3.1133,-3.0019,-2.9488,-2.8062,-2.764,-2.9833,-2.8636,-2.9042,-3.355,-3.2419,-3.1874,-3.3927,-3.2324,-3.153,0.0,0.0,0.0,-3.0509,-3.2757,-3.4375,-3.4783,-3.4827,-3.5152,-3.5881,-3.5898,-3.6139,-3.6684,-3.6684,-3.6882,-3.719,-3.6843,-3.6746,-3.6943,-3.6943,-3.7094,-3.7316,-3.7238,-3.6854,-3.6302,-3.6214,-3.5941,-3.5622,-3.5622,-3.5622,-3.5622,-3.5622,-3.5622,-3.5622,0.0,0.0,0.0,0.0,0.0,0.0,0.0,0.0,0.0,0.0,0.0,0.0,0.0,0.0,0.0,0.0,0.0,0.0,1.025,0.9426,0.8167,0.6497,0.3308,-0.0589,-0.5168,-1.2735,-1.8156,-2.1419,-2.4187,-2.6403,-2.8167,-2.916,-2.9355,-2.8873,-2.9472,-2.9902,-3.0181,-3.0219,-3.0257,-3.0185,-2.8588,-2.795,-2.7775,-2.6135,-2.4462,-2.2959,-2.292,-2.1803,-2.0346,-2.0376,0.0,0.0,-2.0989,-2.1422,-2.3277,-2.7111,-2.7718,-2.7848,-3.1073,-3.1931,-3.2284,-3.3804,-3.4152,-3.3981,-3.3343,-3.2809,-3.2315,-3.1793,-3.1316,-3.0784,0.0,0.0,-2.9097,-3.0121,-3.0095,-3.079,-3.3176,-3.3996,-3.4083,0.0,0.0,0.0,0.0,0.0,0.0,-3.2463,0.0,-3.3525,-3.3525,-3.3567,-3.443,-3.634,-3.6416,-3.6684,-3.721,-3.7248,-3.7248,-3.7228,-3.7228,-3.747,-3.7893,-3.7893,-3.7348,-3.6505,-3.7998,-3.7214,-3.4995,-3.6553,-3.6603,-3.5694,-3.5694,-3.5667,-3.5667,-3.5667,-3.5605,-3.5622,0.0,0.0,0.0,0.0,0.0,0.0,0.0,0.0,0.0,0.0,0.0,0.0,0.0,0.0,0.0,0.0,0.0,0.0,0.627,0.62,0.4851,0.1865,-0.021,-0.3788,-0.9146,-1.3061,-1.644,-1.9224,-2.0215,-2.1981,-2.4526,-2.4557,-2.4846,-2.5391,-2.5737,-2.5958,-2.6051,-2.6304,-2.6447,-2.6468,-2.6086,-2.5967,-2.5904,-2.4869,-2.4196,-2.37,-2.3064,0.0,0.0,0.0,0.0,0.0,0.0,-2.563,-2.589,-2.7111,-2.8933,-3.0476,-3.0124,-3.1763,-3.365,-3.3869,-3.368,-3.3411,-3.3243,-3.2565,-3.1638,-3.0404,-2.9367,-2.8281,0.0,0.0,0.0,-2.9648,-2.9151,0.0,-3.2244,-3.2276,0.0,-3.2527,0.0,-3.3491,-3.4404,-3.4658,0.0,0.0,-3.4334,-3.5064,-3.5064,-3.5403,-3.5852,-3.6357,-3.6803,-3.7248,-3.772,-3.8117,-3.8117,-3.772,-3.772,-3.779,-3.7893,-3.7893,-3.7965,-3.8071,-3.8085,-3.7711,-3.7093,-3.7163,-3.702,-3.6786,-3.6786,-3.6563,-3.6182,-3.6182,-3.5941,-3.5622,0.0,0.0,0.0,0.0,0.0,0.0,0.0,0.0,0.0,0.0,0.0,0.0,0.0,0.0,0.0,0.0,0.0,0.0,0.0,0.3747,0.1867,-0.0426,-0.3008,-0.6038,-0.9655,-1.2302,-1.4953,-1.7561,-1.86,-2.0319,-2.2588,-2.2698,-2.3092,-2.3709,-2.415,-2.4388,-2.4531,-2.4835,-2.4979,0.0,0.0,-2.4476,-2.4423,-2.3572,-2.3266,-2.3198,0.0,0.0,0.0,0.0,0.0,-2.291,-2.697,-2.7531,-2.7169,-2.9444,0.0,-3.158,-3.1344,-3.2625,-3.3943,-3.3634,-3.3361,-3.2925,-3.1872,-3.123,-3.037,-2.868,-2.8032,0.0,-2.6302,0.0,0.0,0.0,0.0,0.0,-3.1952,-3.1935,-3.1833,0.0,-3.2662,0.0,-3.5453,-3.5622,-3.5284,0.0,-3.4539,-3.4641,-3.4641,-3.516,-3.5844,-3.6706,-3.7248,-3.7738,-3.8267,-3.8546,-3.8546,-3.8267,-3.8267,-3.8267,-3.8267,-3.8267,-3.8031,-3.7679,0.0,-3.77,-3.6886,-3.7327,-3.7396,-3.719,-3.719,-3.7038,-3.6724,-3.6498,-3.6224,-3.5898,0.0,0.0,0.0,0.0,0.0,0.0,0.0,0.0,0.0,0.0,0.0,0.0,0.0,0.0,0.0,0.0,0.0,0.0,0.0,0.0,0.0,-0.1917,-0.5231,-0.7566,-0.8753,-1.1196,-1.3715,-1.6149,-1.7885,-1.9518,-2.0993,-2.1684,-2.2167,-2.2437,-2.3082,-2.3506,-2.3737,-2.4143,-2.4322,-2.4279,-2.3582,-2.3318,-2.3275,0.0,0.0,0.0,0.0,0.0,0.0,0.0,-2.4388,-2.3296,-2.805,-2.8495,-2.8062,-3.2247,-3.2632,-3.1971,-3.3164,-3.3597,-3.3652,-3.3273,-3.3105,-3.2501,-3.0381,-2.9711,-2.8972,-2.7097,0.0,-2.7469,-2.6826,-2.686,-2.7926,-3.0734,0.0,-3.0548,-3.141,-3.2053,-3.229,-3.1884,-3.2188,-3.3271,-3.5402,-3.5436,-3.5402,-3.5605,-3.4464,-3.382,-3.382,-3.43,-3.5475,-3.7324,-3.7808,-3.8216,-3.8707,-3.8707,-3.8707,-3.8707,-3.8707,-3.8707,-3.8707,-3.8707,-3.7936,-3.6688,-3.8083,-3.763,-3.6027,-3.7419,-3.7773,-3.7414,-3.7414,-3.7431,-3.7408,-3.6943,-3.6719,-3.6613,0.0,0.0,0.0,0.0,0.0,0.0,0.0,0.0,0.0,0.0,0.746,0.7297,0.0,0.0,0.0,0.0,0.0,0.0,0.0,0.0,0.0,0.0,-0.6736,-0.8132,-1.0255,-1.1386,-1.2746,-1.4352,-1.5017,-1.5806,-1.6703,-1.7455,-1.8004,-1.836,-1.919,-1.9576,-1.9705,-2.0813,-2.1365,-2.155,-2.2047,-2.2327,-2.2491,0.0,0.0,0.0,0.0,0.0,0.0,0.0,-2.4783,-2.4727,-2.9758,-3.0997,-3.0723,-3.1568,-3.2559,-3.3146,-3.21,-3.2548,-3.3273,-3.3214,-3.2666,-3.2004,-3.1531,-3.0226,0.0,0.0,-2.6793,-2.6843,-2.6725,-2.7723,0.0,-3.0903,0.0,0.0,0.0,0.0,-3.229,0.0,0.0,0.0,0.0,0.0,0.0,0.0,-3.5771,-3.587,-3.587,-3.64,-3.7202,-3.8382,-3.8515,-3.8627,-3.8707,-3.8707,-3.8707,-3.8707,-3.8707,-3.8707,-3.8707,-3.8707,-3.856,-3.8303,-3.8579,0.0,-3.8162,-3.8436,-3.8515,-3.8433,-3.8433,-3.8601,-3.8744,-3.8672,-3.8396,-3.8029,0.0,0.0,0.0,0.0,0.0,0.0,0.0,0.6601,0.6356,0.5656,0.5588,0.5591,0.5547,0.5079,0.4609,0.0,0.0,0.0,0.0,0.0,0.0,0.0,0.0,0.0,0.0,-1.1369,0.0,0.0,0.0,0.0,0.0,0.0,0.0,0.0,0.0,-1.9351,-1.9577,-2.0341,-2.0715,-2.088,-2.1881,-2.2299,0.0,0.0,0.0,0.0,0.0,0.0,0.0,0.0,-2.4245,-2.4503,-2.9898,-3.1489,-3.1384,-3.1384,-3.254,-3.3413,-3.1573,-3.2274,-3.339,-3.2952,-3.2517,-3.1742,-2.9934,0.0,0.0,0.0,-2.5287,-2.5659,-2.6065,0.0,0.0,0.0,0.0,0.0,0.0,0.0,0.0,0.0,0.0,0.0,0.0,0.0,0.0,0.0,0.0,-3.5584,-3.634,-3.7135,-3.7929,-3.8676,-3.8707,-3.8707,-3.8707,-3.8707,-3.8707,-3.8707,-3.8707,-3.8707,-3.8707,-3.8707,-3.8707,-3.8707,-3.8707,-3.823,-3.7514,-3.8358,-3.845,-3.8157,-3.9001,-3.9662,-4.0102,-3.9823,-3.9589,-3.9276,0.0,0.0,0.0,0.0,0.0,0.0,0.0,0.6526,0.6045,0.4471,0.3823,0.3701,0.4178,0.3826,0.3378,0.0,0.0,0.0,0.0,0.0,0.0,0.0,0.0,0.0,0.0,0.0,0.0,0.0,0.0,0.0,0.0,0.0,0.0,0.0,0.0,0.0,0.0,-2.0737,-2.0987,0.0,0.0,0.0,0.0,0.0,0.0,0.0,0.0,0.0,0.0,0.0,-2.3914,-2.4098,-2.887,-3.0356,-3.0503,-3.1201,-3.2302,-3.302,-3.1764,-3.2547,-3.3476,-3.2713,-3.2417,-3.1561,-2.8444,-2.7194,0.0,0.0,-2.4086,-2.4763,-2.5676,0.0,0.0,0.0,0.0,0.0,0.0,0.0,0.0,0.0,0.0,0.0,0.0,0.0,0.0,0.0,0.0,-3.5486,-3.6654,-3.7578,-3.8267,-3.8676,-3.8707,-3.8707,-3.8707,-3.8707,-3.8707,-3.8707,-3.8707,-3.8707,-3.8707,-3.8707,-3.8707,-3.8707,-3.8707,-3.779,-3.6413,-3.8046,-3.812,-3.7404,-3.9184,-4.0396,-4.1064,-4.0831,-4.0618,-4.0311,0.0,0.0,0.0,0.0,0.0,0.0,0.0,0.6527,0.5397,0.3083,0.2338,0.1909,0.1658,0.2805,0.2613,0.0,0.0,0.0,0.0,0.0,0.0,0.0,0.0,0.0,0.0,0.0,0.0,0.0,0.0,0.0,0.0,0.0,0.0,0.0,0.0,0.0,0.0,0.0,0.0,0.0,0.0,0.0,0.0,0.0,0.0,0.0,0.0,0.0,0.0,0.0,0.0,-2.4447,-2.6429,-2.7053,-2.7622,-3.054,0.0,0.0,-3.3166,-3.3385,-3.3136,-3.2616,-3.2161,-3.1337,-2.9327,0.0,0.0,-2.4726,-2.4455,-2.4915,-2.6336,-2.7791,-2.9296,0.0,0.0,-2.9448,0.0,0.0,0.0,0.0,0.0,0.0,0.0,0.0,0.0,0.0,-3.7055,-3.7646,-3.7737,-3.83,-3.8658,-3.8707,-3.8707,-3.8707,-3.8707,-3.8707,-3.8707,-3.8707,-3.8707,-3.8707,-3.8707,-3.8707,-3.8707,-3.8707,-3.8707,-3.779,0.0,-3.8046,-3.7808,-3.6633,-3.8982,-4.0396,-4.117,-4.1867,-4.165,-4.1027,0.0,0.0,0.0,0.0,0.0,0.0,0.3658,0.3656,0.3257,0.1754,0.0633,-0.0107,-0.0253,0.0116,0.0166,-0.0363,0.0,0.0,0.0,0.0,0.0,0.0,0.0,0.0,0.0,0.0,0.0,-1.3895,0.0,0.0,0.0,0.0,0.0,0.0,0.0,0.0,0.0,0.0,0.0,0.0,0.0,0.0,0.0,0.0,0.0,0.0,0.0,0.0,0.0,0.0,0.0,0.0,-2.3992,-2.4271,0.0,0.0,-2.9517,-3.1261,-3.0665,-3.1836,-3.3075,-3.2616,-3.2144,-3.1148,-2.8611,0.0,-2.615,-2.4222,-2.4201,-2.4828,-2.5845,-2.6894,-2.8095,-2.9617,0.0,0.0,0.0,0.0,0.0,0.0,0.0,0.0,0.0,0.0,0.0,0.0,-3.657,-3.7361,-3.8328,-3.8578,-3.8707,-3.8707,-3.8707,-3.8707,-3.8707,-3.8707,-3.8707,-3.8707,-3.8707,-3.8707,-3.8707,-3.8707,-3.8707,-3.8707,-3.8707,-3.7221,0.0,-3.7624,-3.7477,-3.5862,-3.8762,-4.0689,-4.1809,-4.1644,-4.168,-4.168,0.0,0.0,0.0,0.0,0.0,0.1555,0.0494,0.0401,0.031,-0.0221,-0.1128,-0.1709,-0.1701,-0.2241,-0.2339,-0.1733,-0.3354,0.0,0.0,0.0,0.0,0.0,0.0,0.0,0.0,0.0,-1.308,-1.3605,-1.4167,-1.4873,0.0,0.0,0.0,0.0,0.0,0.0,0.0,0.0,0.0,0.0,0.0,0.0,0.0,0.0,0.0,0.0,0.0,0.0,0.0,0.0,0.0,0.0,0.0,0.0,0.0,0.0,-2.8036,-3.0423,-2.9206,-3.0977,-3.3045,-3.2433,-3.19,-3.0716,0.0,0.0,-2.5998,-2.3579,-2.4002,-2.4915,-2.522,-2.6065,-2.7199,-2.8738,0.0,-2.9786,0.0,0.0,0.0,0.0,0.0,0.0,0.0,0.0,0.0,0.0,-3.6863,-3.7496,-3.8652,-3.8707,-3.8707,-3.8707,-3.8707,-3.8707,-3.8707,-3.8707,-3.8707,-3.8707,-3.8707,-3.845,-3.801,-3.8487,-3.845,-3.8028,-3.8487,-3.7129,0.0,-3.7551,-3.7422,-3.5752,-3.8744,-4.0579,-4.1552,-4.1222,-4.1313,-4.1423,0.0,0.0,0.0,0.0,0.0,0.0,-0.175,-0.2796,-0.3436,-0.3115,-0.2859,-0.27,-0.2703,-0.3696,-0.4431,-0.4632,-0.4852,0.0,0.0,0.0,0.0,0.0,0.0,0.0,0.0,0.0,-1.2979,-1.312,-1.3663,-1.3967,-1.4149,-1.467,-1.5209,0.0,0.0,0.0,0.0,0.0,0.0,0.0,0.0,0.0,0.0,0.0,0.0,0.0,0.0,0.0,0.0,0.0,0.0,0.0,0.0,0.0,0.0,0.0,-2.7492,-2.9223,-3.004,-3.1703,-3.2983,-3.2057,-3.1236,-3.0024,0.0,0.0,-2.5862,-2.2919,-2.4069,-2.5372,-2.4659,-2.5693,-2.7199,-2.8738,-2.9011,0.0,0.0,0.0,0.0,0.0,0.0,0.0,0.0,0.0,0.0,-3.864,-3.867,0.0,-3.8707,-3.8707,-3.8707,-3.8707,-3.8707,-3.8707,-3.8707,-3.8707,-3.8707,-3.8707,-3.8707,-3.7863,-3.6376,-3.7973,-3.7826,-3.6413,-3.801,-3.7771,0.0,-3.8028,-3.7753,-3.6523,-3.8946,-3.99,-4.001,-4.0818,-4.0598,-3.9918,0.0,0.0,0.0,0.0,0.0,0.0,0.0,-0.3253,-0.3347,-0.3249,-0.3073,-0.3131,-0.3546,-0.3978,-0.4436,-0.4934,-0.5218,0.0,0.0,0.0,0.0,0.0,0.0,0.0,0.0,0.0,-1.1478,-1.1551,-1.2387,-1.303,-1.3506,-1.4014,-1.4801,-1.5694,-1.5837,0.0,0.0,0.0,0.0,0.0,0.0,0.0,0.0,0.0,0.0,0.0,0.0,0.0,0.0,0.0,0.0,0.0,0.0,0.0,0.0,-2.4584,0.0,0.0,-2.8029,-2.8918,-2.9804,-2.8975,-2.8387,-2.7606,-2.625,-2.5558,-2.478,-2.3342,-2.4002,-2.4763,-2.4557,-2.5693,-2.7199,-2.8738,-2.9011,0.0,0.0,0.0,0.0,0.0,0.0,0.0,0.0,0.0,0.0,-3.8615,-3.7679,-3.7533,-3.8652,-3.8707,-3.8707,-3.8707,-3.8707,-3.8707,-3.8707,-3.8707,-3.8707,-3.8707,-3.8707,-3.7863,-3.634,-3.7973,-3.7826,-3.6376,-3.801,-3.779,-3.6413,-3.8046,-3.7753,-3.6486,-3.8358,-3.9423,-3.9845,-3.957,-3.9643,-3.9808,0.0,0.0,0.0,0.0,0.0,0.0,0.0,-0.4711,-0.4345,-0.4336,-0.4056,-0.3986,-0.4378,-0.4654,-0.4974,-0.5372,-0.5819,0.0,0.0,0.0,0.0,0.0,0.0,0.0,0.0,-1.0382,-1.08,-1.0826,-1.1624,-1.2055,-1.2157,-1.2798,-1.3494,-1.4243,-1.441,-1.4831,0.0,0.0,0.0,0.0,0.0,0.0,-1.9121,0.0,0.0,0.0,0.0,0.0,0.0,0.0,0.0,0.0,0.0,0.0,0.0,0.0,-2.5858,0.0,0.0,-2.7618,-2.8357,-2.7698,-2.7111,0.0,0.0,-2.5236,-2.4695,-2.3951,-2.4831,-2.5575,-2.5017,-2.6353,-2.7672,-2.8061,-2.9223,0.0,0.0,0.0,0.0,0.0,0.0,0.0,0.0,0.0,-3.7624,-3.8615,-3.7771,-3.7643,-3.8652,-3.8707,-3.8707,-3.8707,-3.8707,-3.8707,-3.8707,-3.8707,-3.8707,-3.8707,-3.8707,-3.7863,-3.634,-3.7973,-3.7826,-3.6376,-3.801,-3.8138,0.0,-3.8303,-3.812,-3.7312,-3.8303,-3.9019,-3.9386,-3.8891,-3.9019,-3.9386,0.0,0.0,0.0,0.0,0.0,0.0,0.0,-0.6787,-0.6072,-0.6035,-0.552,-0.5111,-0.5152,-0.5607,-0.5929,-0.5969,0.0,0.0,0.0,0.0,0.0,0.0,0.0,0.0,-1.057,-1.0658,-1.0745,-1.0777,-1.1263,-1.1122,-1.0407,-1.1188,-1.1647,-1.1811,-1.2229,-1.2955,-1.4,-1.4752,-1.5536,-1.6301,-1.6633,-1.7381,0.0,0.0,0.0,0.0,0.0,0.0,0.0,0.0,0.0,0.0,0.0,0.0,0.0,0.0,0.0,0.0,0.0,0.0,0.0,0.0,0.0,0.0,0.0,-2.5456,0.0,-2.4729,-2.6285,-2.7334,-2.6047,-2.7639,-2.8672,-2.7131,-2.9713,0.0,0.0,0.0,0.0,0.0,0.0,0.0,0.0,0.0,-3.8707,-3.8707,-3.8707,-3.8707,-3.8707,-3.8707,-3.8707,-3.8707,-3.8707,-3.8707,-3.8707,-3.8707,-3.8652,-3.8542,-3.8652,-3.779,-3.6174,-3.7918,-3.7826,0.0,-3.801,-3.8707,-3.8707,-3.8707,-3.8707,-3.8707,-3.8707,-3.8707,-3.8707,-3.8707,-3.8707,-3.8707,0.0,0.0,0.0,0.0,0.0,0.0,0.0,0.0,0.0,0.0,-0.5338,-0.5439,-0.5874,-0.6042,-0.6295,0.0,0.0,0.0,0.0,0.0,0.0,0.0,0.0,0.0,-0.8595,-0.9388,-0.9835,-0.9815,-1.0382,-1.0595,-1.0407,-1.0921,-1.1383,-1.1811,-1.2229,-1.3149,-1.4374,-1.4564,-1.5134,-1.5955,-1.6301,-1.6728,0.0,0.0,0.0,0.0,-2.0136,-2.0849,0.0,0.0,0.0,0.0,0.0,0.0,0.0,0.0,-2.494,-2.5488,-2.6418,0.0,-2.6143,-2.5438,-2.4712,-2.4272,0.0,-2.3883,-2.368,0.0,0.0,0.0,-2.7667,-2.9344,-3.0272,-2.9059,-3.0525,0.0,0.0,0.0,0.0,0.0,0.0,0.0,0.0,0.0,-3.8707,-3.8707,-3.8707,-3.8707,-3.8707,-3.8707,-3.8707,-3.8707,-3.8707,-3.8707,-3.8707,-3.8707,-3.8083,-3.6872,-3.812,-3.7184,-3.4486,-3.7386,-3.7826,-3.6376,-3.801,-3.8707,-3.8707,-3.8707,-3.8707,-3.8707,-3.8707,-3.8707,-3.8707,-3.8707,-3.8707,-3.8707,0.0,0.0,0.0,0.0,0.0,0.0,0.0,0.0,0.0,0.0,0.0,0.0,0.0,0.0,0.0,0.0,0.0,0.0,0.0,0.0,0.0,0.0,0.0,-0.8316,-0.8275,-0.8867,-0.9285,-0.9553,-0.9652,-0.9651,-0.9483,-0.9816,-1.0271,-1.0865,-1.1967,-1.3106,-1.4214,-1.4214,-1.4721,-1.5507,-1.5838,0.0,0.0,0.0,0.0,0.0,-1.9681,-2.0517,0.0,-2.2057,-2.249,-2.266,0.0,0.0,0.0,0.0,-2.4628,-2.4987,-2.5944,-2.5659,-2.5152,-2.5423,-2.4441,-2.368,-2.4746,0.0,0.0,0.0,0.0,0.0,0.0,0.0,0.0,0.0,-3.0569,0.0,0.0,0.0,0.0,0.0,0.0,0.0,0.0,-3.7771,-3.8707,-3.8707,-3.8707,-3.8707,-3.8707,-3.8707,-3.8707,-3.8707,-3.8707,-3.8707,-3.8707,-3.8707,-3.79,-3.6321,-3.7936,-3.7386,-3.5018,-3.7551,-3.823,-3.7404,-3.7551,-3.8028,-3.8652,-3.79,-3.8028,-3.8707,-3.8707,-3.8707,-3.8707,-3.8707,-3.8707,-3.8707,0.0,0.0,0.0,0.0,0.0,0.0,0.0,0.0,0.0,0.0,0.0,0.0,0.0,0.0,0.0,0.0,0.0,0.0,0.0,0.0,0.0,0.0,0.0,-0.8333,-0.8713,-0.8926,-0.918,-0.9495,-0.9096,-0.8734,-0.8401,-0.8635,-0.9138,-0.9972,-1.1698,-1.3004,-1.3901,-1.3901,-1.4374,-1.512,-1.5418,0.0,0.0,0.0,0.0,0.0,0.0,0.0,0.0,-2.2023,-2.2436,-2.2599,-2.236,0.0,0.0,0.0,0.0,0.0,-2.5338,-2.5014,-2.4788,-2.6335,-2.5033,-2.3782,-2.527,0.0,0.0,0.0,0.0,0.0,0.0,0.0,0.0,0.0,0.0,0.0,0.0,0.0,0.0,0.0,0.0,0.0,-3.6193,-3.7771,-3.8707,-3.8707,-3.8707,-3.8707,-3.8707,-3.8707,-3.8707,-3.8707,-3.8707,-3.8707,-3.8707,-3.8707,-3.79,-3.6321,-3.7936,-3.7863,-3.634,-3.7973,-3.8707,-3.8615,0.0,0.0,-3.8597,-3.7221,-3.7477,-3.8707,-3.8707,-3.8707,-3.8707,-3.8707,-3.8707,-3.8707,0.0,0.0,0.0,0.0,0.0,0.0,0.0,0.0,0.0,0.0,0.0,0.0,0.0,0.0,0.0,0.0,0.0,0.0,0.0,0.0,0.0,-0.7787,-0.8716,-0.912,-0.8785,-0.9639,-0.975,-0.9102,-0.9032,-0.8787,-0.8401,-0.8394,-0.9237,-1.0869,-1.194,-1.2979,-1.3901,-1.3901,-1.4374,-1.509,-1.515,0.0,0.0,0.0,0.0,0.0,0.0,0.0,0.0,-2.1809,-2.2321,-2.2332,-2.2293,0.0,0.0,0.0,0.0,0.0,-2.5067,-2.4791,-2.4419,-2.6265,-2.5033,-2.3782,-2.527,0.0,0.0,0.0,0.0,0.0,0.0,0.0,0.0,0.0,0.0,0.0,0.0,0.0,0.0,0.0,0.0,-3.7514,-3.6413,-3.7771,-3.8707,-3.8707,-3.8707,-3.8707,-3.8707,-3.8707,-3.8707,-3.8707,-3.8707,-3.8707,-3.8707,-3.8707,-3.79,-3.6321,-3.7936,-3.7863,-3.634,-3.7973,-3.8707,-3.8689,0.0,-3.8469,-3.8689,-3.8432,-3.8487,-3.8707,-3.8707,-3.8707,-3.8707,-3.8707,-3.8707,-3.8707,0.0,0.0,0.0,0.0,0.0,0.0,0.0,0.0,0.0,0.0,0.0,0.0,0.0,0.0,0.0,0.0,0.0,0.0,0.0,0.0,0.0,-0.8386,-0.9086,-0.9289,-0.8818,-0.9308,-0.9287,-0.8672,-0.8428,-0.8213,-0.8037,-0.8736,-0.9653,-1.0786,-1.1928,-1.2833,-1.3547,-1.3802,-1.4246,-1.4783,0.0,0.0,0.0,0.0,0.0,0.0,0.0,0.0,0.0,0.0,-2.231,-2.231,-2.231,0.0,0.0,0.0,0.0,0.0,-2.4079,-2.4276,-2.4592,-2.6578,-2.5172,-2.4071,-2.7066,0.0,0.0,0.0,0.0,0.0,0.0,0.0,0.0,0.0,0.0,0.0,0.0,0.0,0.0,0.0,0.0,-3.711,-3.6376,-3.7771,-3.8707,-3.8707,-3.8707,-3.8707,-3.8707,-3.8707,-3.8707,-3.8707,-3.8707,-3.8707,-3.8707,-3.8707,-3.79,-3.6321,-3.7936,-3.7863,-3.634,-3.7973,-3.8707,-3.8652,0.0,-3.79,-3.8634,-3.7771,-3.7918,-3.8707,-3.8707,-3.8707,-3.8707,-3.8707,-3.8707,-3.8707,0.0,0.0,0.0,0.0,0.0,0.0,0.0,0.0,0.0,0.0,0.0,0.0,0.0,0.0,0.0,0.0,0.0,0.0,0.0,0.0,-0.9265,-0.88,-0.9265,-0.9261,-0.873,-0.8859,-0.8714,-0.8223,-0.7998,-0.7802,-0.7744,-0.9046,-0.996,-1.0544,-1.188,-1.2751,-1.3232,-1.3715,-1.4117,-1.4533,0.0,0.0,0.0,0.0,0.0,0.0,0.0,0.0,0.0,0.0,0.0,0.0,0.0,0.0,0.0,-2.2649,-2.2679,-2.2358,-2.3187,-2.3725,-2.4478,-2.6377,0.0,-2.4335,-2.8753,0.0,0.0,0.0,0.0,0.0,0.0,0.0,0.0,0.0,0.0,0.0,0.0,0.0,0.0,-3.6853,-3.6853,-3.6853,-3.6853,-3.7973,-3.8707,-3.8707,-3.8707,-3.8707,-3.8707,-3.8707,-3.8707,-3.8707,-3.8707,-3.8707,-3.8707,-3.8762,-3.8136,-3.6872,-3.8155,-3.8118,-3.6909,-3.8191,-3.8762,-3.8634,-3.7404,-3.7551,-3.8597,-3.7367,-3.7588,-3.8707,-3.8707,-3.8707,-3.8707,-3.8707,-3.8707,-3.8707,0.0,0.0,0.0,0.0,0.0,0.0,0.0,0.0,0.0,0.0,0.0,0.0,0.0,0.0,0.0,0.0,0.0,0.0,0.0,0.0,-0.927,-0.8715,-0.9261,-0.9227,-0.8454,-0.8699,-0.847,-0.7744,-0.8145,-0.8125,-0.7734,-0.9012,-0.992,-1.0564,-1.1838,-1.2689,-1.3232,-1.3715,-1.4117,-1.4533,-1.4937,0.0,0.0,0.0,0.0,0.0,0.0,0.0,0.0,0.0,0.0,0.0,0.0,0.0,-1.9502,-2.1735,-2.155,-2.107,-2.2886,-2.3327,-2.3569,-2.4847,-2.4165,0.0,-2.9166,-2.6917,0.0,-3.1402,0.0,0.0,0.0,0.0,0.0,0.0,0.0,0.0,0.0,0.0,-3.8542,-3.8542,-3.8542,-3.8542,-3.8542,-3.8634,-3.8707,-3.8707,-3.8707,-3.8707,-3.8707,-3.8707,-3.8707,-3.8707,-3.8707,-3.8707,-3.8707,-3.8933,-3.8877,-3.8524,-3.8906,-3.8877,-3.8524,-3.8906,-3.8952,-3.8689,-3.8579,-3.8597,-3.8689,-3.8579,-3.8597,-3.8707,-3.8707,-3.8707,-3.8707,-3.8707,-3.8707,-3.8707,0.0,0.0,0.0,0.0,0.0,0.0,0.0,0.0,0.0,0.0,0.0,0.0,0.0,0.0,0.0,0.0,0.0,0.0,0.0,-0.9279,-0.9292,-0.8772,-0.8928,-0.8958,-0.8789,-0.8618,-0.8284,-0.7695,-0.7861,-0.8169,-0.8611,-0.9669,-1.0582,-1.1408,-1.2435,-1.2998,-1.3267,-1.3967,-1.4374,-1.4564,-1.5255,-1.5769,0.0,0.0,0.0,0.0,0.0,0.0,0.0,0.0,-2.1735,-2.1718,-2.0771,-2.0061,-1.9858,-2.1211,-2.1096,-2.0859,-2.2521,-2.3225,-2.4109,-2.6568,-2.5494,0.0,0.0,0.0,0.0,0.0,0.0,0.0,0.0,0.0,0.0,0.0,0.0,0.0,0.0,-3.8707,-3.8707,-3.8707,-3.8707,-3.8707,-3.8707,-3.8707,-3.8707,-3.8707,-3.8707,-3.8707,-3.8707,-3.8707,-3.8707,-3.8707,-3.8855,-3.8961,-3.8961,-3.9257,-3.9358,-3.9268,-3.9358,-3.9358,-3.9268,-3.9358,-3.9231,-3.8961,-3.8961,-3.8855,-3.8707,-3.8707,-3.8707,-3.8707,-3.8707,-3.8707,-3.8707,-3.8707,-3.8707,-3.8707,0.0,0.0,0.0,0.0,0.0,0.0,0.0,0.0,0.0,0.0,0.0,0.0,0.0,0.0,0.0,0.0,0.0,0.0,-0.9298,-0.9406,-0.9274,-0.8776,-0.8742,-0.8756,-0.874,-0.8655,-0.8428,-0.8094,-0.8094,-0.852,-0.9318,-1.0242,-1.1118,-1.1892,-1.2812,-1.3198,-1.3267,-1.4117,-1.4501,-1.4578,-1.5668,-1.6215,0.0,0.0,0.0,0.0,0.0,0.0,0.0,0.0,-2.1211,-2.1042,-2.001,-1.9647,-1.9849,-2.0739,-2.0994,-2.129,-2.2524,-2.3259,-2.4364,0.0,0.0,0.0,0.0,0.0,0.0,0.0,0.0,0.0,0.0,0.0,0.0,0.0,0.0,0.0,0.0,-3.8707,-3.8707,-3.8707,-3.8707,-3.8707,-3.8707,-3.8707,-3.8707,-3.8707,-3.8707,-3.8707,-3.8707,-3.8773,-3.8815,-3.8815,-3.909,-3.9264,-3.9264,-3.9599,-3.9754,-3.9754,-3.9842,-3.9778,-3.9599,-3.9709,-3.9576,-3.9264,-3.9264,-3.909,-3.8815,-3.8815,-3.8792,-3.8707,-3.8707,-3.8707,-3.8707,-3.8707,-3.8707,-3.8707,0.0,0.0,0.0,0.0,0.0,0.0,0.0,0.0,0.0,0.0,0.0,0.0,0.0,0.0,0.0,0.0,0.0,0.0,-0.8873,-0.9223,-0.9279,-0.8716,-0.8755,-0.863,-0.8219,-0.874,-0.9014,-0.9004,-0.9004,-0.9265,-0.9721,-1.0653,-1.133,-1.1847,-1.2765,-1.3198,-1.3267,-1.413,-1.4515,-1.4651,-1.6122,-1.6712,-1.6802,0.0,0.0,0.0,0.0,0.0,0.0,0.0,-2.0162,-1.891,-1.8894,-1.8894,-1.9117,-2.02,-2.1271,-2.2255,-2.3035,-2.3455,0.0,0.0,0.0,0.0,0.0,0.0,0.0,0.0,0.0,0.0,-3.6541,0.0,0.0,-3.6156,-3.5587,-3.5871,-3.8358,-3.8707,-3.8707,-3.8707,-3.8707,-3.8707,-3.8707,-3.8707,-3.8707,-3.8707,-3.8707,-3.8707,-3.8707,-3.8961,-3.9107,-3.9107,-3.9414,-3.9599,-3.9599,-3.9922,-4.0101,-4.0101,-4.0372,-4.0175,-3.9622,-3.9943,-3.9922,-3.9599,-3.9599,-3.9414,-3.9107,-3.9107,-3.8933,-3.8707,-3.8707,-3.8707,-3.8707,-3.8707,-3.8707,-3.8707,0.0,0.0,0.0,0.0,0.0,0.0,0.0,0.0,0.0,0.0,0.0,0.0,0.0,0.0,0.0,0.0,0.0,0.0,-0.8796,-0.9217,-0.9279,-0.8716,-0.9086,-0.9408,-0.9677,-0.9827,-0.9596,-0.8919,-0.9301,-0.971,-1.0134,-1.0732,-1.1491,-1.2317,-1.2938,-1.3391,-1.3788,-1.5176,-1.5725,-1.5684,-1.6406,-1.6879,-1.7163,0.0,0.0,0.0,0.0,0.0,0.0,0.0,0.0,0.0,-1.8454,-1.8843,-2.0,-2.168,-2.1846,-2.2019,-2.4557,0.0,0.0,0.0,0.0,0.0,0.0,0.0,0.0,0.0,0.0,0.0,0.0,0.0,0.0,-3.5642,-3.6633,-3.7863,-3.8597,-3.8707,-3.8707,-3.8707,-3.8707,-3.8707,-3.8707,-3.8707,-3.8792,-3.8961,-3.8971,-3.9063,-3.9327,-3.9408,-3.9438,-3.9438,-3.9775,-3.9943,-3.9943,-4.025,-4.0372,-4.0372,-4.0457,-4.0406,-4.0248,-4.0356,-4.0212,-3.9943,-3.9943,-3.9775,-3.9438,-3.9438,-3.9257,-3.8971,-3.8971,-3.8855,-3.8707,-3.8707,-3.8707,-3.8707,0.0,0.0,0.0,0.0,0.0,0.0,0.0,0.0,0.0,0.0,0.0,0.0,0.0,0.0,0.0,0.0,0.0,0.0,0.0,-0.9119,-0.9119,-0.9039,-0.9319,-0.9755,-1.0283,-1.0107,-0.9918,-0.9691,-0.968,-1.0182,-1.1181,-1.0862,-1.1346,-1.2487,-1.2771,-1.3114,-1.3629,-1.4998,-1.5778,-1.6134,-1.6712,-1.7242,-1.7666,0.0,0.0,0.0,0.0,0.0,0.0,0.0,0.0,0.0,-1.8076,-1.9335,-2.1189,-2.1457,-2.2063,-2.3119,-2.5116,0.0,0.0,0.0,0.0,0.0,0.0,0.0,0.0,0.0,0.0,0.0,0.0,-3.6707,0.0,-3.6725,-3.7734,-3.8707,-3.8707,-3.8707,-3.8707,-3.8707,-3.8707,-3.8707,-3.8707,-3.8803,-3.8923,-3.9099,-3.9212,-3.9389,-3.9599,-3.9731,-3.9797,-3.9797,-4.0101,-4.025,-4.025,-4.0406,-4.0489,-4.0489,-4.0489,-4.0489,-4.0489,-4.0489,-4.0406,-4.025,-4.0139,-3.9982,-3.9797,-3.9645,-3.9462,-3.9308,-3.9133,-3.8999,-3.8844,-3.875,-3.8707,-3.8707,0.0,0.0,0.0,0.0,0.0,0.0,0.0,0.0,0.0,0.0,0.0,0.0,0.0,0.0,0.0,0.0,0.0,0.0,0.0,0.0,-0.9039,-0.9478,-0.9558,-0.9843,-1.0351,-0.993,-1.0139,-1.1045,-1.0211,-1.0697,-1.2413,-1.1043,-1.1163,-1.2489,-1.2441,-1.2749,-1.328,-1.4296,-1.5266,-1.623,-1.6954,-1.7605,-1.8206,-1.8503,0.0,0.0,0.0,0.0,0.0,0.0,0.0,0.0,-1.7811,-2.002,-2.2255,-2.0319,-2.2207,-2.4982,0.0,0.0,0.0,0.0,0.0,0.0,0.0,0.0,0.0,0.0,0.0,0.0,0.0,-3.8707,-3.8707,-3.8707,-3.8707,-3.8707,-3.8707,-3.8707,-3.8707,-3.8707,-3.8707,-3.8707,-3.875,-3.8961,-3.9125,-3.9205,-3.9462,-3.9645,-3.969,-3.9963,-4.0139,-4.0139,-4.0372,-4.0489,-4.0489,-4.0489,-4.0489,-4.0489,-4.0489,-4.0489,-4.0489,-4.0489,-4.0489,-4.0489,-4.0232,-4.0139,-4.012,-3.9819,-3.9668,-3.9622,-3.9314,-3.916,-3.9125,-3.8873,-3.8762,-3.875,0.0,0.0,0.0,0.0,0.0,0.0,0.0,0.0,0.0,0.0,0.0,0.0,0.0,0.0,0.0,0.0,0.0,0.0,0.0,0.0,-0.9804,-0.9518,-0.9922,-1.0351,-1.0829,-1.0737,-1.1194,-1.2154,-1.1606,-1.1507,-1.1878,-1.1502,-1.196,-1.3095,-1.2928,-1.36,-1.4875,-1.5918,-1.6467,-1.6573,-1.6758,-1.7239,-1.7848,-1.739,-1.7624,0.0,0.0,0.0,0.0,0.0,0.0,0.0,-1.7811,-1.91,-2.0881,-2.2164,-2.376,-2.5578,0.0,0.0,0.0,0.0,0.0,0.0,0.0,0.0,0.0,0.0,0.0,0.0,0.0,-3.8707,-3.8707,-3.8707,-3.8707,-3.8707,-3.8707,-3.8707,-3.8707,-3.8707,-3.8707,-3.8773,-3.8999,-3.9072,-3.9314,-3.9859,-3.9943,-4.0081,-4.0302,-4.0353,-4.0406,-4.0406,-4.0473,-4.0489,-4.0489,-4.0489,-4.0489,-4.0489,-4.0489,-4.0489,-4.0489,-4.0489,-4.0489,-4.0489,-4.0441,-4.0406,-4.0406,-4.0336,-4.0176,-3.9982,-3.9922,-3.9712,-3.9481,-3.9427,-3.9249,-3.9008,0.0,0.0,0.0,0.0,0.0,0.0,0.0,0.0,0.0,0.0,0.0,0.0,0.0,0.0,0.0,0.0,0.0,0.0,0.0,0.0,-0.9922,-0.9883,-1.0157,-1.0505,-1.0981,-1.1019,-1.1494,-1.2508,-1.2246,-1.2224,-1.2399,-1.167,-1.1962,-1.3135,-1.3044,-1.3676,-1.4868,-1.5681,-1.6291,-1.6712,-1.6722,-1.7183,-1.7764,-1.7403,-1.7496,-1.7811,-1.7811,0.0,0.0,0.0,0.0,0.0,0.0,0.0,-2.1673,-2.1954,-2.3567,-2.547,0.0,0.0,0.0,0.0,0.0,0.0,0.0,0.0,0.0,0.0,0.0,0.0,0.0,-3.8707,-3.8707,-3.8707,-3.8707,-3.8707,-3.8707,-3.8707,-3.8707,-3.8707,-3.8815,-3.8933,-3.9099,-3.9389,-3.9712,-4.0081,-4.0213,-4.0356,-4.0489,-4.0489,-4.0489,-4.0489,-4.0489,-4.0489,-4.0489,-4.0489,-4.0489,-4.0489,-4.0489,-4.0489,-4.0489,-4.0489,-4.0489,-4.0489,-4.0489,-4.0489,-4.0489,-4.0489,-4.0425,-4.0286,-4.0139,-4.0002,-3.9819,-3.9645,-3.9389,-3.9099,0.0,0.0,0.0,0.0,0.0,0.0,0.0,0.0,0.0,0.0,0.0,0.0,0.0,0.0,0.0,0.0,0.0,0.0,0.0,0.0,0.0,-1.0283,-1.039,-1.0659,-1.1132,-1.1207,-1.1726,-1.2615,-1.2746,-1.3021,-1.3461,-1.2246,-1.2355,-1.3584,-1.3561,-1.394,-1.4631,-1.5051,-1.5756,-1.6638,-1.6694,-1.7114,-1.7706,-1.7712,-1.7766,-1.7811,-1.7811,-1.7811,-1.7811,-1.7811,0.0,0.0,0.0,0.0,-2.2633,-2.119,-2.3034,-2.5338,0.0,0.0,0.0,0.0,0.0,0.0,0.0,0.0,0.0,0.0,0.0,0.0,0.0,-3.8707,-3.8707,-3.8707,-3.8707,-3.8707,-3.8707,-3.8707,-3.8719,-3.8762,-3.8943,-3.9152,-3.9264,-3.9775,-4.012,-4.0158,-4.0372,-4.0489,-4.0489,-4.0489,-4.0489,-4.0489,-4.0489,-4.0489,-4.0489,-4.0489,-4.0489,-4.0489,-4.0489,-4.0489,-4.0489,-4.0489,-4.0489,-4.0489,-4.0489,-4.0489,-4.0489,-4.0489,-4.0489,-4.0473,-4.0269,-4.0158,-4.0139,-3.9861,-3.9557,-3.9264,0.0,0.0,0.0,0.0,0.0,0.0,0.0,0.0,0.0,0.0,0.0,0.0,0.0,0.0,0.0,0.0,0.0,0.0,-1.0283,0.0,0.0,-1.0283,-1.0687,-1.1169,-1.17,-1.2102,-1.2579,-1.3094,-1.3626,0.0,0.0,0.0,0.0,-1.5864,-1.5857,-1.5811,-1.5765,-1.5713,-1.5943,-1.6342,-1.6359,-1.6785,-1.7379,-1.7377,-1.7549,-1.7811,-1.7811,-1.7811,-1.7811,-1.7811,-1.7811,0.0,0.0,0.0,-2.1022,-2.1683,-2.384,-2.6032,0.0,0.0,0.0,0.0,0.0,0.0,0.0,0.0,0.0,0.0,0.0,0.0,0.0,-3.8707,-3.8707,-3.8707,-3.8707,-3.8707,-3.8707,-3.8707,-3.8773,-3.9008,-3.9072,-3.9314,-3.9901,-4.0061,-4.0195,-4.0441,-4.0473,-4.0489,-4.0489,-4.0489,-4.0489,-4.0489,-4.0489,-4.0489,-4.0489,-4.0489,-4.0489,-4.0489,-4.0489,-4.0489,-4.0489,-4.0489,-4.0489,-4.0489,-4.0489,-4.0489,-4.0489,-4.0489,-4.0489,-4.0489,-4.0457,-4.0457,-4.0441,-4.0406,-4.0194,-3.9982,0.0,0.0,0.0,0.0,0.0,0.0,0.0,0.0,0.0,0.0,0.0,0.0,0.0,0.0,0.0,-1.0283,-1.0283,-1.0291,-1.0257,-0.9834,-0.9876,-1.062,-1.0631,-1.1159,-1.2174,-1.2401,-1.272,-1.3198,0.0,0.0,0.0,-1.6552,-1.6651,0.0,0.0,0.0,-1.5934,-1.6774,-1.6811,-1.6313,-1.6722,-1.7035,-1.732,-1.7502,-1.7681,-1.7811,-1.7811,-1.7811,-1.7862,-1.8285,-1.842,-1.8646,-2.0,0.0,0.0,0.0,0.0,0.0,0.0,0.0,0.0,0.0,0.0,0.0,0.0,0.0,0.0,0.0,0.0,0.0,0.0,-3.8707,-3.8707,-3.8707,-3.8707,-3.8762,-3.8894,-3.8905,-3.9027,-3.9339,-3.9552,-3.9775,-4.0081,-4.0251,-4.0372,-4.0489,-4.0489,-4.0489,-4.0489,-4.0489,-4.0489,-4.0489,-4.0489,-4.0489,-4.0489,-4.0489,-4.0489,-4.0489,-4.0489,-4.0489,-4.0489,-4.0489,-4.0489,-4.0489,-4.0489,-4.0489,-4.0489,-4.0489,-4.0489,-4.0489,-4.0489,-4.0489,-4.0489,-4.0489,-4.0339,-4.0101,0.0,0.0,0.0,0.0,0.0,0.0,0.0,0.0,0.0,0.0,0.0,0.0,0.0,0.0,0.0,0.0,-1.0186,-1.0109,-1.005,-0.9572,-0.9701,-1.0675,-1.0561,-1.1079,-1.2259,-1.2411,-1.2692,-1.3198,0.0,0.0,-1.6262,-1.7881,-1.7967,0.0,-1.8504,-1.8411,0.0,0.0,0.0,0.0,-1.7664,-1.7699,0.0,-1.7704,-1.7929,-1.8082,-1.8172,-1.8268,-1.8477,-1.9172,-1.9378,-1.9576,-2.1218,-2.1965,0.0,0.0,0.0,0.0,0.0,0.0,0.0,0.0,0.0,0.0,0.0,0.0,0.0,0.0,0.0,0.0,0.0,0.0,-3.8707,-3.8707,-3.8762,-3.8884,-3.9072,-3.916,-3.9339,-3.969,-3.9962,-4.012,-4.0195,-4.0372,-4.0489,-4.0489,-4.0489,-4.0489,-4.0489,-4.0489,-4.0489,-4.0489,-4.0489,-4.0489,-4.0489,-4.0489,-4.0489,-4.0489,-4.0489,-4.0489,-4.0489,-4.0489,-4.0489,-4.0489,-4.0489,-4.0489,-4.0489,-4.0489,-4.0489,-4.0489,-4.0489,-4.0489,-4.0489,-4.0489,-4.0372,-4.0195,0.0,0.0,0.0,0.0,0.0,0.0,0.0,0.0,0.0,0.0,0.0,0.0,-1.0244,-1.0283,-1.0283,-1.0283,-0.9902,-0.9625,-0.9628,-0.9885,-1.0059,-1.0156,-1.0541,0.0,-1.1726,-1.2181,-1.2672,0.0,0.0,0.0,-1.5616,-1.8095,-1.9021,-1.8684,-1.9354,-1.9904,-2.0184,0.0,0.0,0.0,0.0,0.0,0.0,0.0,0.0,0.0,0.0,-1.9567,-1.9991,-2.0666,-2.0684,-2.0616,-2.1723,0.0,0.0,0.0,0.0,0.0,0.0,0.0,0.0,0.0,0.0,0.0,0.0,0.0,0.0,0.0,0.0,0.0,0.0,0.0,-3.8707,-3.8707,-3.8923,-3.9072,-3.9099,-3.9364,-3.9709,-4.0022,-4.0081,-4.0195,-4.0457,-4.0489,-4.0489,-4.0489,-4.0489,-4.0489,-4.0489,-4.0489,-4.0489,-4.0489,-4.0489,-4.0489,-4.0489,-4.0489,-4.0489,-4.0489,-4.0489,-4.0489,-4.0489,-4.0489,-4.0489,-4.0489,-4.0489,-4.0489,-4.0489,-4.0489,-4.0489,-4.0489,-4.0489,-4.0489,-4.0489,-4.0489,-4.0489,-4.0473,0.0,0.0,0.0,0.0,0.0,0.0,0.0,0.0,0.0,0.0,0.0,0.0,0.0,-1.0283,-1.0281,-1.0244,-0.9589,-0.9339,-0.9825,-0.9283,-0.9574,-1.0996,-1.0989,-1.1459,-1.2636,-1.3106,-1.3474,0.0,0.0,-1.4889,-1.5914,-1.7267,-1.8198,-1.8893,-2.1188,-2.1031,-1.9122,-2.0728,0.0,0.0,0.0,0.0,0.0,0.0,0.0,0.0,0.0,0.0,0.0,0.0,0.0,0.0,0.0,0.0,0.0,0.0,0.0,0.0,0.0,0.0,0.0,0.0,0.0,0.0,0.0,0.0,0.0,0.0,0.0,0.0,0.0,0.0,0.0,-3.9223,-3.9358,-3.9505,-3.9712,-3.9859,-4.0023,-4.0302,-4.0356,-4.0389,-4.0489,-4.0489,-4.0489,-4.0489,-3.8988,-3.8777,-4.0412,-3.895,-3.8815,-4.045,-4.0489,-4.0489,-4.0489,-4.0489,-4.0489,-4.0489,-4.0489,-4.0489,-4.0489,-4.0489,-4.0489,-4.0489,-4.0489,-4.0489,-4.0489,-4.0489,-4.0489,-4.0489,-4.0489,-4.0489,-4.0489,-4.0489,-4.0489,-4.0489,0.0,0.0,0.0,0.0,0.0,0.0,0.0,0.0,0.0,0.0,0.0,0.0,0.0,0.0,-1.012,-0.9791,-0.9638,-0.9633,-0.9851,-0.9585,-1.0068,-1.155,-1.1351,-1.1801,-1.3106,-1.322,-1.3536,0.0,0.0,0.0,0.0,-1.667,-1.7586,-1.8535,-2.1252,-2.1491,0.0,0.0,0.0,-2.0261,0.0,0.0,-2.0162,0.0,0.0,0.0,0.0,0.0,0.0,0.0,0.0,0.0,0.0,0.0,0.0,0.0,0.0,0.0,0.0,0.0,0.0,0.0,0.0,0.0,0.0,0.0,0.0,0.0,0.0,0.0,0.0,0.0,0.0,-3.9389,-3.9622,-3.9859,-4.0081,-4.0177,-4.0304,-4.0473,-4.0489,-4.0489,-4.0489,-4.0489,-4.0489,-4.0489,-3.8931,0.0,-4.0412,-3.8892,-3.8757,-4.045,-4.0489,-4.0489,-4.0489,-4.0489,-4.0489,-4.0489,-4.0489,-4.0489,-4.0489,-4.0489,-4.0489,-4.0489,-4.0489,-4.0489,-4.0489,-4.0489,-4.0489,-4.0489,-4.0489,-4.0489,-4.0489,-4.0489,-4.0489,-4.0489,0.0,0.0,0.0,0.0,0.0,0.0,0.0,0.0,0.0,-1.0322,0.0,0.0,0.0,0.0,0.0,-0.9046,-1.0097,-1.0475,-0.972,-1.0876,-1.1588,-1.1613,-1.1643,-1.2083,-1.3002,-1.2413,-1.2887,0.0,0.0,0.0,0.0,0.0,-1.728,-1.7715,-1.9412,-2.1255,-2.3213,0.0,-2.5196,-2.5372,0.0,-2.4523,-2.4218,0.0,0.0,0.0,-2.5991,-2.6143,0.0,-2.8131,0.0,0.0,0.0,0.0,0.0,0.0,0.0,0.0,0.0,0.0,0.0,0.0,0.0,0.0,0.0,0.0,0.0,0.0,0.0,0.0,0.0,0.0,0.0,0.0,-3.9668,-4.0101,-4.0101,-4.0339,-4.0489,-4.0489,-4.0489,-4.0489,-4.0489,-4.0489,-4.0489,-4.0489,-4.0431,-4.0412,-4.0489,-4.0489,-4.0489,-4.0489,-4.0489,-4.0489,-4.0489,-4.0489,-4.0489,-4.0489,-4.0489,-4.0489,-4.0489,-4.0489,-4.0489,-4.0489,-4.0489,-4.0489,-4.0489,-4.0489,-4.0489,-4.0489,-4.0489,-4.0489,-4.0489,-4.0489,-4.0489,-4.0489,0.0,0.0,0.0,0.0,0.0,0.0,-1.0524,-1.0715,-1.0802,0.0,0.0,0.0,-1.0062,-1.0396,-1.0715,-1.0916,-1.0931,-1.096,-1.1051,-1.1113,-1.1461,-1.2165,-1.2453,-1.2948,-1.3636,-1.4042,-1.4461,-1.4937,-1.5081,-1.5316,-1.561,-1.598,-1.6353,0.0,-1.8539,-2.0072,-2.1475,-2.3885,0.0,0.0,-2.5862,-2.4951,0.0,0.0,0.0,0.0,0.0,-2.691,-2.6716,0.0,-2.7248,-2.5975,0.0,0.0,0.0,0.0,0.0,0.0,-2.3492,0.0,0.0,0.0,0.0,0.0,0.0,0.0,0.0,0.0,0.0,0.0,0.0,0.0,0.0,0.0,0.0,-4.0101,-4.0101,-4.0339,-4.0489,-4.0489,-4.0489,-4.0489,-4.0489,-4.0489,-4.0489,0.0,-3.8796,-3.8565,-4.0392,-4.0489,-4.0489,-4.0489,-4.0489,-4.0489,-4.0489,-4.0489,-4.0489,-4.0489,-4.0489,-4.0489,-4.0489,-4.0489,-4.0489,-4.0489,-4.0489,-4.0489,-4.0489,-4.0489,-4.0489,-4.0489,-4.0489,-4.0489,-4.0489,-4.0489,-4.0489,-4.0489,0.0,0.0,0.0,0.0,0.0,-1.0687,-1.0943,-1.1019,-1.1019,0.0,0.0,0.0,-1.0804,-1.1066,-1.1283,-1.139,-1.1511,-1.1621,-1.1696,-1.1841,-1.2262,-1.298,-1.3258,-1.369,-1.4406,-1.4576,-1.492,-1.5389,-1.54,-1.5529,-1.5799,-1.5926,-1.6108,0.0,0.0,0.0,0.0,0.0,0.0,0.0,-2.6787,0.0,0.0,-2.8037,-2.7654,0.0,0.0,0.0,-2.8851,-2.9948,-2.9108,0.0,0.0,0.0,0.0,0.0,0.0,0.0,0.0,0.0,0.0,0.0,0.0,0.0,-1.9786,-2.3799,0.0,0.0,0.0,0.0,0.0,0.0,0.0,0.0,0.0,-3.8918,-4.0116,-4.0389,-4.0489,-4.0489,-4.0489,-4.0489,-4.0489,-4.0489,-4.0489,-4.0489,-3.9123,-3.8931,-4.0412,-4.0489,-4.0489,-4.0489,-4.0489,-4.0489,-4.0489,-4.0489,-4.0489,-4.0489,-4.0489,-4.0489,-4.0489,-4.0489,-4.0489,-4.0489,-4.0489,-4.0489,-4.0489,-4.0489,-4.0489,-4.0489,-4.0489,-4.0489,-4.0489,-4.0489,-4.0489,-4.0489,0.0,0.0,-1.0322,-1.0428,-1.0764,-1.1046,-1.1159,-1.1169,-1.1169,0.0,-1.1116,-1.1253,-1.167,-1.179,-1.1688,-1.1267,-1.2011,-1.2361,-1.2061,-1.2796,-1.3493,-1.3967,-1.4032,-1.4374,-1.5074,-1.4587,-1.4789,-1.5799,-1.5242,-1.5284,-1.5856,-1.6191,-1.6382,-1.6479,0.0,0.0,0.0,0.0,0.0,-2.7334,-2.7555,-2.9084,0.0,0.0,-3.0327,-3.019,-3.2451,-3.2216,-3.1102,-3.292,-3.1641,0.0,0.0,0.0,0.0,0.0,-2.4099,0.0,0.0,0.0,0.0,0.0,0.0,0.0,-1.9855,-2.4492,-2.8879,0.0,0.0,0.0,0.0,0.0,0.0,0.0,0.0,0.0,-3.9653,-4.03,-4.0392,-4.0104,-4.0315,-4.0489,-4.0489,-4.0489,-4.0489,-4.0489,-4.0489,-4.0489,-4.0489,-4.0489,-4.0489,-4.0489,-4.0489,-4.0489,-4.0489,-4.0489,-4.0489,-4.0489,-4.0489,-4.0489,-4.0489,-4.0489,-4.0489,-4.0489,-4.0489,-4.0489,-4.0489,-4.0489,-4.0489,-4.0489,-4.0489,-4.0489,-4.0489,-4.0489,-4.0489,-4.0489,-1.0867,0.0,-1.0544,-1.1367,-1.1244,-1.1271,-1.209,-1.221,-1.221,-1.221,-1.1815,-1.1628,-1.1757,-1.2066,-1.2399,-1.2734,-1.2939,-1.3158,-1.3467,-1.367,-1.3967,-1.4374,-1.469,-1.4937,-1.5104,-1.5345,-1.5578,-1.5799,-1.593,-1.6053,-1.6219,-1.6554,-1.6866,-1.7142,0.0,0.0,0.0,0.0,0.0,-2.454,-2.7833,0.0,-2.8065,-3.1381,-3.0432,-2.788,-3.2135,-3.2235,-3.0485,-3.1531,-3.1439,-3.0338,0.0,0.0,0.0,0.0,0.0,0.0,0.0,0.0,0.0,0.0,0.0,0.0,-2.0171,-2.1713,-2.3796,0.0,0.0,0.0,0.0,0.0,0.0,0.0,0.0,0.0,0.0,-3.9071,-3.9738,-3.77,-3.9238,-4.0489,-4.0489,-4.0489,-4.0489,-4.0489,-4.0489,-4.0489,-4.0489,-4.0489,-4.0489,-4.0489,-4.0489,-4.0489,-4.0489,-4.0489,-4.0489,-4.0489,-4.0489,-4.0489,-4.0489,-4.0489,-4.0489,-4.0489,-4.0489,-4.0489,-4.0489,-4.0489,-4.0489,-4.0489,-4.0489,-4.0489,-4.0489,-4.0489,-4.0489,-4.0489,-1.1431,0.0,-1.1217,-1.17,-1.1763,-1.1988,-1.278,-1.2675,-1.2686,-1.3223,-1.3068,-1.2782,-1.2518,-1.2954,-1.3232,-1.3198,-1.3425,-1.3648,-1.3868,-1.4084,-1.4374,-1.4783,-1.4982,-1.5195,-1.5448,-1.5668,-1.5885,-1.6067,-1.6219,-1.6382,-1.6554,-1.6876,-1.7207,-1.7549,0.0,0.0,0.0,0.0,-2.2598,-2.4245,-2.7539,0.0,-2.8347,-3.2089,-3.2127,-3.0503,-3.2926,-3.3018,-3.1861,-3.1072,-3.1072,0.0,0.0,-2.6794,-2.5207,0.0,-2.2164,-2.1524,0.0,0.0,0.0,-2.023,0.0,0.0,0.0,-2.1908,-2.3832,-2.5375,-2.7869,0.0,0.0,0.0,0.0,0.0,0.0,0.0,0.0,-3.6108,-3.8604,-3.8604,-3.9719,-4.0489,-4.0489,-4.0489,-4.0489,-4.0489,-4.0489,-4.0489,-4.0489,-4.0489,-4.0489,-4.0489,-4.0489,-4.0489,-4.0489,-4.0489,-4.0489,-4.0489,-4.0489,-4.0489,-4.0489,-4.0489,-4.0489,-4.0489,-4.0489,-4.0489,-4.0489,-4.0489,-4.0489,-4.0489,-4.0489,-4.0489,-4.0489,-4.0489,-4.0489,-4.0489,-1.2029,0.0,-1.1881,-1.2192,-1.2388,-1.2723,-1.3359,-1.2987,-1.2951,0.0,0.0,0.0,0.0,0.0,0.0,0.0,0.0,-1.4474,0.0,0.0,-1.5179,-1.5239,-1.5225,-1.5418,-1.5799,-1.5856,-1.6039,-1.6301,-1.6421,-1.6633,-1.6917,-1.7379,-1.7716,0.0,0.0,0.0,0.0,0.0,0.0,-2.506,0.0,-2.8589,-2.9091,-3.2429,-3.3441,-3.3164,-3.3623,-3.3807,-3.344,-3.1017,-3.0632,-3.0987,-2.9913,-2.7557,0.0,0.0,0.0,0.0,0.0,0.0,0.0,0.0,0.0,-2.0312,0.0,0.0,0.0,-2.4534,0.0,0.0,0.0,0.0,0.0,0.0,0.0,0.0,0.0,0.0,0.0,-3.8046,-3.8738,-3.8969,-3.8815,-3.9238,-3.9796,-4.045,-4.0489,-4.0489,-4.0489,-4.0489,-4.0489,-4.0489,-4.0489,-4.0489,-4.0489,-4.0489,-4.0489,-4.0489,-4.0489,-4.0489,-4.0504,-4.0534,-4.0515,-4.0504,-4.0534,-4.053,-4.0549,-4.0504,-4.0519,-4.0549,-4.0504,-4.0489,-4.0489,-4.0489,-4.0489,-4.0489,-1.2508,-1.2102,0.0,-1.3594,-1.3107,-1.283,-1.3851,-1.3513,-1.3166,0.0,0.0,0.0,0.0,0.0,0.0,0.0,0.0,0.0,-1.4555,0.0,0.0,-1.5786,-1.5712,-1.5741,-1.5799,-1.608,-1.6274,-1.6301,-1.6901,-1.7224,-1.7248,-1.8265,-1.8735,0.0,-1.9887,0.0,0.0,0.0,-2.4585,0.0,-2.8988,-2.8841,0.0,-3.1654,-3.2165,-3.0889,-3.3036,-3.3807,-3.344,0.0,-3.0265,-2.9982,0.0,-2.566,-2.3662,0.0,0.0,0.0,0.0,0.0,0.0,0.0,-2.0312,0.0,0.0,0.0,-2.1081,-2.1773,0.0,0.0,0.0,0.0,0.0,0.0,0.0,0.0,-2.7813,0.0,-3.0063,-3.0352,-3.2391,-3.3487,-3.2776,-3.4737,-3.7296,-4.0277,-4.0489,-4.0489,-4.0489,-4.0489,-4.0489,-4.0489,-4.0489,-4.0489,-4.0489,-4.0489,-4.0489,-4.0489,-4.0489,-4.0489,-4.0504,-4.0623,-4.061,-4.0504,-4.0623,-4.0667,-4.0655,-4.0545,-4.0574,-4.0674,-4.0545,-4.0489,-4.0489,-4.0489,-4.0489,-4.0489,-1.3544,-1.3253,0.0,0.0,-1.3914,-1.3704,-1.4438,-1.4601,-1.4287,0.0,0.0,0.0,0.0,0.0,0.0,0.0,0.0,-1.8576,0.0,0.0,0.0,0.0,-1.6493,-1.6163,-1.6382,-1.6528,-1.6686,-1.6876,-1.7158,-1.7631,-1.8232,-1.8694,-1.9209,0.0,-2.0205,0.0,-2.3981,0.0,-2.5192,0.0,0.0,0.0,0.0,-3.1892,-3.3013,-3.2247,-3.1861,-3.2614,-3.322,0.0,-3.0093,0.0,0.0,0.0,0.0,0.0,0.0,0.0,0.0,0.0,0.0,0.0,0.0,0.0,-2.2504,0.0,-2.0966,0.0,0.0,0.0,0.0,0.0,0.0,0.0,-2.362,0.0,0.0,0.0,-2.689,0.0,0.0,0.0,-3.4652,-3.4381,-3.5287,-3.8201,-3.8382,-3.8329,-3.8296,-3.97,-4.0489,-4.0489,-4.0588,-4.0623,-4.0623,-4.0653,-4.066,-4.066,-4.066,-4.066,-4.0679,-4.0723,-4.0732,-4.0679,-4.0723,-4.0762,-4.0743,-4.0701,-4.0688,-4.0703,-4.0668,-4.061,-4.0489,-4.0489,-4.0489,-4.0489,-1.4197,0.0,0.0,0.0,0.0,-1.3997,-1.4362,0.0,0.0,0.0,0.0,0.0,-1.6169,-1.6158,0.0,0.0,-1.9878,-2.036,0.0,0.0,-1.9275,0.0,0.0,0.0,0.0,-1.711,-1.7149,-1.7593,-1.769,-1.8241,-1.9215,-1.9418,-1.993,0.0,0.0,-2.2087,-2.4259,0.0,0.0,-2.8487,-2.8112,-2.8401,-2.9337,-3.1858,-3.322,-3.3568,-3.1825,-3.2302,-3.3164,-2.8998,-3.0091,0.0,-2.9177,0.0,0.0,0.0,0.0,0.0,-2.4649,0.0,0.0,0.0,0.0,0.0,0.0,0.0,0.0,0.0,0.0,0.0,0.0,0.0,0.0,0.0,0.0,-2.2716,0.0,0.0,0.0,0.0,0.0,0.0,0.0,-3.3584,-3.3635,-3.5689,-3.6473,-3.6826,-3.6774,-3.92,-4.0571,-4.0571,-4.0684,-4.0721,-4.0721,-4.0779,-4.0801,-4.0801,-4.0801,-4.0801,-4.0801,-4.085,-4.0824,-4.0801,-4.085,-4.0857,-4.0857,-4.0809,-4.0788,-4.0781,-4.0796,-4.0713,-4.059,-4.0554,-4.0515,-4.0489,-1.4194,-1.4085,0.0,0.0,0.0,0.0,0.0,0.0,0.0,0.0,0.0,0.0,0.0,0.0,0.0,0.0,0.0,-2.1759,-2.0652,0.0,-2.1502,0.0,0.0,-1.7466,0.0,0.0,-1.7642,-1.835,-1.8691,-1.9249,-1.9985,-2.0754,-2.1153,-2.1196,0.0,-2.266,-2.3957,-2.6072,-2.7975,-2.9755,-3.2054,-3.3208,-3.3366,0.0,-3.177,-3.3788,-3.3715,0.0,0.0,-3.0925,-3.0368,0.0,0.0,0.0,0.0,0.0,0.0,0.0,0.0,0.0,0.0,-2.4726,0.0,0.0,0.0,0.0,-2.2504,0.0,0.0,0.0,0.0,0.0,0.0,-2.1677,0.0,0.0,0.0,0.0,0.0,0.0,0.0,0.0,0.0,-3.0962,-3.2305,-3.3169,-3.5554,-3.6989,-3.6981,-3.9416,-4.0785,-4.0785,-4.0793,-4.0793,-4.0793,-4.0793,-4.0801,-4.0801,-4.0801,-4.0801,-4.0801,-4.0925,-4.092,-4.0801,-4.095,-4.0992,-4.0988,-4.0857,-4.087,-4.0983,-4.0857,-4.0793,-4.0777,-4.0729,-4.061,-4.0489,0.0,0.0,0.0,0.0,0.0,0.0,0.0,-1.4687,0.0,0.0,0.0,0.0,0.0,-2.0786,-2.1021,0.0,0.0,-2.4166,-2.2748,-2.3503,0.0,0.0,0.0,-2.1457,0.0,0.0,0.0,0.0,0.0,0.0,-2.0788,-2.1059,-2.1448,-2.1932,0.0,-2.2611,0.0,0.0,0.0,0.0,0.0,-3.1302,-3.1494,0.0,-3.3091,-3.3807,-3.3807,-3.3807,0.0,-3.1017,-3.1597,-3.3029,-3.1486,-3.067,-3.0823,-3.3455,-3.1218,-2.8275,0.0,0.0,-3.0333,-3.0006,0.0,0.0,0.0,0.0,0.0,0.0,0.0,0.0,0.0,0.0,-2.1683,-2.0836,-2.0947,0.0,0.0,0.0,0.0,0.0,0.0,0.0,0.0,0.0,-2.7745,-2.9702,-3.1169,-3.1473,-3.0309,-3.5364,-3.8016,-3.7444,-3.9701,-4.0925,-4.0925,-4.1023,-4.1055,-4.1055,-4.1055,-4.1055,-4.1077,-4.1105,-4.1105,-4.1077,-4.1105,-4.1128,-4.1128,-4.108,-4.1049,-4.0996,-4.1052,-4.0955,-4.0793,-4.0779,-4.071,-4.0623,-1.5868,0.0,0.0,0.0,0.0,0.0,0.0,0.0,0.0,0.0,-1.9,0.0,-2.1951,0.0,-2.2565,0.0,-2.4379,-2.5096,-2.5162,-2.4246,0.0,-2.621,-2.4179,0.0,0.0,0.0,0.0,0.0,0.0,-2.1092,0.0,0.0,-2.1837,0.0,0.0,-2.2474,-2.3313,0.0,-2.8069,0.0,0.0,-3.0705,0.0,0.0,-3.3054,-3.3807,0.0,-3.3807,-3.3595,-3.2121,-3.3,-3.4431,-3.2937,-3.2726,-3.3372,-3.5026,-3.3179,-3.0968,-3.2622,-3.3256,0.0,-3.3006,-3.2122,0.0,-3.0981,0.0,-2.7071,0.0,0.0,0.0,0.0,0.0,0.0,-2.0636,-2.0545,0.0,0.0,-2.0312,0.0,0.0,0.0,0.0,0.0,0.0,-2.5943,-2.6397,-2.803,-2.8522,-2.7398,-3.3249,-3.6528,-3.6275,-3.9384,-4.1077,-4.1077,-4.1151,-4.1191,-4.1191,-4.1191,-4.1191,-4.1191,-4.1191,-4.1191,-4.1191,-4.1191,-4.1191,-4.1191,-4.1191,-4.115,-4.108,-4.1171,-4.1082,-4.0944,-4.0883,-4.0805,-4.0721,0.0,0.0,0.0,0.0,-1.4379,0.0,0.0,0.0,-1.8699,0.0,-2.1431,-2.1681,-2.3116,-2.2603,-2.2621,-2.385,-2.3731,-2.476,-2.7504,-2.3829,0.0,0.0,-2.4337,-2.3321,-2.6759,0.0,0.0,0.0,0.0,0.0,0.0,0.0,0.0,0.0,-2.2908,0.0,-2.1159,-2.6663,-2.8113,-2.6979,-2.9145,-3.1476,-3.3366,-3.1072,-3.1696,-3.3807,-3.3807,-3.3807,-3.3868,-3.4123,-3.4423,-3.4754,-3.5016,-3.5289,-3.5493,-3.5493,-3.5493,-3.5526,-3.5565,-3.6122,-3.6142,-3.3808,-3.4366,0.0,0.0,0.0,-3.2916,0.0,0.0,0.0,0.0,0.0,0.0,-2.1293,-2.1111,0.0,0.0,0.0,0.0,0.0,0.0,0.0,0.0,-2.5944,-2.6555,-2.3379,-2.6211,-2.8125,0.0,-3.291,-3.6113,-3.7207,-3.9473,-4.0859,-4.1191,-4.1035,-4.1035,-4.1191,-4.1191,-4.1191,-4.1191,-4.1191,-4.1191,-4.1191,-4.1191,-4.1191,-4.1191,-4.1191,-4.1191,-4.1191,-4.1191,-4.1191,-4.1171,-4.1052,-4.092,-4.0809,-1.5817,-1.5255,-1.5192,0.0,-1.5949,-1.657,0.0,0.0,0.0,0.0,-2.2638,-2.3456,-2.4094,-2.5734,-2.5894,-2.3725,-2.5274,0.0,0.0,0.0,0.0,-3.0126,-2.9225,-2.8696,-2.8851,-2.7828,0.0,-2.6947,0.0,0.0,-2.4472,0.0,0.0,0.0,0.0,0.0,-2.1137,-2.6417,-2.8883,-2.9182,-2.8007,-2.898,-3.1054,0.0,-3.1696,-3.3807,-3.3807,-3.3928,-3.4099,-3.4195,-3.4553,-3.4999,-3.5088,-3.5289,-3.5493,-3.5493,-3.5493,-3.5641,-3.6238,-3.6546,-3.6862,-3.7556,-3.6632,-3.5601,0.0,0.0,0.0,0.0,0.0,0.0,0.0,0.0,0.0,0.0,0.0,0.0,0.0,0.0,0.0,-2.0366,0.0,0.0,0.0,-2.2927,-2.3116,-2.2285,-2.4199,-2.5684,-2.6328,0.0,-3.2148,-3.6211,-3.4512,-3.6016,-4.1152,-3.8633,-3.8633,-4.1191,-4.1191,-4.1191,-4.1191,-4.1191,-4.1191,-4.1191,-4.1191,-4.1191,-4.1191,-4.1191,-4.1191,-4.1191,-4.1191,-4.1191,-4.1171,-4.1052,-4.0988,-4.0925,-1.6509,0.0,0.0,-1.6617,0.0,0.0,-1.9233,0.0,0.0,-2.4079,-2.5004,0.0,-2.6644,-2.8247,-2.8522,-2.6584,-2.6854,0.0,-2.79,0.0,0.0,-3.1339,-3.0716,-2.9988,-2.9298,-2.9483,0.0,-2.7742,0.0,0.0,-2.5406,0.0,0.0,0.0,0.0,-2.2347,0.0,-2.623,-2.8967,-3.0081,-2.8723,-2.9622,0.0,-3.0595,-3.1777,-3.3986,-3.3986,-3.4068,-3.4246,-3.4492,-3.4813,-3.5122,-3.5239,-3.5383,-3.5493,-3.5493,-3.5757,-3.6122,-3.6584,-3.7257,-3.8089,-3.9151,-3.8604,-3.7977,-3.8611,-3.7649,-3.6633,0.0,-3.6699,-3.6096,0.0,0.0,0.0,0.0,0.0,0.0,0.0,0.0,0.0,0.0,-2.1458,0.0,-2.1867,-2.1823,-2.1826,-2.1894,-2.3105,-2.4043,0.0,0.0,-3.0644,-3.2012,-3.2754,-3.4277,-3.668,-3.4746,-3.5508,-3.8926,-3.8926,-3.9726,-4.1191,-4.1191,-4.1191,-4.1191,-4.1191,-4.1191,-4.1191,-4.1191,-4.1191,-4.1191,-4.1191,-4.1191,-4.1191,-4.1125,-4.1082,-4.108,0.0,0.0,0.0,0.0,0.0,0.0,0.0,-2.2777,0.0,-2.708,0.0,-2.8108,-2.9206,-3.0039,-3.0439,-3.0166,0.0,-2.8482,-3.1138,-2.7539,-2.7459,-3.237,-3.0693,-2.958,-2.949,-3.0194,0.0,0.0,0.0,0.0,0.0,0.0,0.0,0.0,0.0,0.0,0.0,-2.5962,-2.836,-3.0262,-3.0262,-3.1538,-3.3239,-3.1476,-3.2233,-3.4269,-3.4292,-3.4315,-3.4405,-3.4925,-3.5122,-3.519,-3.5432,-3.5493,-3.5526,-3.5641,-3.6161,-3.6757,-3.6988,-3.8137,-3.9364,-3.9542,-4.0167,-4.0781,-4.0983,-4.1026,-4.1055,-4.1171,-4.1191,-4.0273,-3.7246,0.0,0.0,0.0,0.0,0.0,0.0,0.0,0.0,0.0,0.0,0.0,0.0,-2.1909,-2.1887,-2.2051,-2.2812,-2.3379,0.0,0.0,-2.9922,-2.7578,-3.2148,-3.3652,-3.1582,-3.1113,-3.2851,-3.668,-3.6211,-3.7832,-4.1191,-4.1191,-4.1191,-4.1191,-4.1191,-4.1191,-4.1191,-4.1191,-4.1191,-4.1191,-4.1191,-4.1191,-4.1191,-4.1191,-4.1191,-4.1191,0.0,0.0,0.0,0.0,0.0,-2.1562,-2.5663,-2.6565,-2.6707,-2.6475,-2.8066,-2.8858,-2.7882,-3.0172,-3.1128,-2.9543,-2.9879,0.0,0.0,0.0,0.0,-3.2985,-3.2321,-3.2107,-3.2433,-3.2232,-3.1974,0.0,0.0,0.0,-2.6623,0.0,0.0,0.0,0.0,0.0,-2.7616,-2.4976,0.0,-3.0525,-3.0525,-3.0914,-3.1676,-3.3291,-3.4196,-3.4634,-3.487,-3.4944,-3.4962,-3.5051,-3.5258,-3.5432,-3.5493,-3.5493,-3.5641,-3.6315,-3.6603,-3.7007,-3.845,-3.9116,-3.9572,-4.0353,-4.076,-4.0983,-4.1128,-4.1151,-4.1171,-4.1191,-4.1191,-4.1016,-4.0391,0.0,0.0,0.0,0.0,0.0,0.0,0.0,0.0,0.0,0.0,-2.5605,0.0,0.0,-2.2187,-2.293,-2.3711,0.0,0.0,0.0,-2.6387,0.0,-2.8457,-2.9941,0.0,0.0,-3.4062,-4.0254,-3.7363,-3.7832,-4.1191,-4.1191,-4.1191,-4.1191,-4.1191,-4.1191,-4.1191,-4.1191,-4.1191,-4.1191,-4.1191,-4.1191,-4.1191,-4.1191,-4.1191,-4.1191,0.0,0.0,0.0,0.0,0.0,0.0,0.0,-2.8299,-2.9712,-2.9254,-3.0526,-3.1195,-3.048,-3.1949,-3.2602,-3.1682,-3.1319,-3.149,-3.2329,-3.1438,-3.1664,-3.3421,-3.3284,0.0,-3.1674,-3.2669,-3.2463,-3.1005,0.0,0.0,-2.7,-2.395,0.0,0.0,0.0,-2.5437,0.0,0.0,0.0,-3.0903,-3.2198,-3.2805,-3.3053,-3.4241,-3.4793,-3.4926,-3.5034,-3.519,-3.5304,-3.5304,-3.5383,-3.5493,-3.5493,-3.5493,-3.5661,-3.6469,-3.7026,-3.767,-3.8981,-3.9707,-4.0216,-4.076,-4.0955,-4.1046,-4.1171,-4.1191,-4.1191,-4.1191,-4.1191,-4.0781,-3.9434,-3.6776,0.0,0.0,0.0,0.0,0.0,0.0,0.0,0.0,0.0,0.0,0.0,0.0,0.0,0.0,0.0,0.0,0.0,0.0,-2.6543,0.0,0.0,0.0,-3.332,0.0,-3.3457,-3.8476,-3.6797,-3.7832,-4.1191,-4.1191,-4.1191,-4.1191,-4.1191,-4.1191,-4.1191,-4.1191,-4.1191,-4.1191,-4.1191,-4.1191,-4.1191,-4.1191,-4.1191,-4.1191,0.0,-2.173,0.0,0.0,-2.473,0.0,-2.6687,-2.951,-3.1717,-3.1975,-3.2697,-3.3214,-3.3214,-3.355,-3.366,-3.3311,-3.243,-3.2155,-3.2742,-3.2228,-3.232,-3.3238,-3.3623,-3.2908,-3.1017,-3.2834,-3.2666,0.0,0.0,0.0,-2.7173,-2.4557,0.0,0.0,0.0,0.0,0.0,0.0,-3.1673,-3.2046,-3.3999,-3.4832,-3.487,-3.487,-3.4999,-3.519,-3.519,-3.532,-3.5493,-3.5493,-3.5493,-3.5493,-3.5493,-3.5622,-3.593,-3.6738,-3.7593,-3.8491,-3.9441,-4.0206,-4.08,-4.0955,-4.1023,-4.1077,-4.1171,-4.1191,-4.1191,-4.1191,-4.1191,-4.0566,-3.8516,-3.7519,0.0,0.0,0.0,0.0,0.0,0.0,0.0,0.0,0.0,0.0,-2.8711,0.0,0.0,0.0,0.0,0.0,-2.4297,0.0,0.0,0.0,0.0,-3.043,-3.1172,0.0,-3.2988,-3.7109,-3.6348,-3.7832,-4.1191,-4.1191,-4.1191,-4.1191,-4.1191,-4.1191,-4.1191,-4.1191,-4.1191,-4.1191,-4.1191,-4.1191,-4.1191,-4.1191,-4.1191,-4.1172,0.0,0.0,0.0,0.0,0.0,0.0,-3.1787,-3.1255,-3.075,-3.1859,-3.2697,-3.3214,-3.3214,-3.355,-3.3201,-3.1733,-3.2816,-3.2394,-2.9641,-3.2045,-3.2981,-3.1678,-3.3018,-3.3697,-3.3476,-3.3678,-3.3497,0.0,0.0,-2.9304,-2.6725,-2.5791,0.0,0.0,0.0,0.0,-3.1113,-3.0833,-3.226,-3.4727,-3.4975,-3.5207,-3.5432,-3.5432,-3.5446,-3.546,-3.546,-3.5479,-3.5493,-3.5493,-3.5493,-3.5493,-3.5493,-3.6007,-3.6757,-3.7623,-3.8537,-3.9453,-4.0335,-4.0766,-4.0983,-4.0992,-4.1082,-4.1171,-4.1191,-4.1191,-4.1191,-4.1191,-4.1191,-4.1133,-4.0879,-3.8242,-3.5527,0.0,0.0,0.0,0.0,0.0,0.0,0.0,0.0,0.0,0.0,-2.7324,-2.584,0.0,-2.4844,0.0,0.0,0.0,0.0,-2.6816,-2.7187,-2.8887,-3.2051,-3.1289,-3.4199,-4.0684,-3.7519,-3.7832,-4.1191,-4.1191,-4.1191,-4.1191,-4.1191,-4.1191,-4.1191,-4.1191,-4.1191,-4.1191,-4.1191,-4.1191,-4.1191,-4.1191,-4.1191,-4.1094,0.0,0.0,0.0,0.0,0.0,0.0,0.0,-3.1942,-3.2525,-3.3031,-3.335,-3.355,-3.355,-3.3707,-3.3532,-3.2889,-3.3421,-3.3256,-3.1971,-3.3091,-3.3513,-3.2871,-3.3458,-3.3807,-3.3807,-3.3807,-3.3734,0.0,0.0,0.0,0.0,-2.5763,-2.5881,-2.7191,-2.9099,-3.0454,-3.1393,-3.2577,-3.3941,-3.5354,-3.5354,-3.5398,-3.5493,-3.5493,-3.5493,-3.5493,-3.5493,-3.5493,-3.5493,-3.5493,-3.5493,-3.552,-3.5546,-3.6141,-3.7007,-3.7917,-3.8811,-3.9721,-4.0622,-4.0939,-4.1023,-4.1103,-4.1151,-4.1191,-4.1191,-4.1191,-4.1191,-4.1191,-4.1191,-4.1191,-4.1191,-4.0059,-3.8203,-3.541,0.0,0.0,0.0,0.0,0.0,0.0,0.0,0.0,0.0,-3.0,-2.748,-2.8008,0.0,0.0,0.0,0.0,0.0,-3.0039,0.0,-3.1992,-3.7559,-3.5176,-3.6406,-4.1172,-3.9785,-3.9844,-4.1191,-4.1191,-4.1191,-4.1191,-4.1191,-4.1191,-4.1191,-4.1191,-4.1191,-4.1152,-4.0625,-4.043,-4.0351,-3.9824,-3.9648,-3.959,-2.8976,0.0,-2.8682,0.0,-3.1013,-3.1751,-3.0705,-3.2452,-3.371,-3.3172,-3.3556,-3.3876,-3.3807,-3.3807,-3.3605,-3.3128,-3.3532,-3.3403,-3.2449,-3.3275,-3.3587,-3.3109,-3.355,0.0,-3.3807,-3.3807,-3.3807,-3.3807,-3.0732,0.0,0.0,-2.6981,-2.7333,-2.8966,-3.1231,-3.2169,-3.2203,-3.4037,-3.5088,-3.5493,-3.5493,-3.5493,-3.5493,-3.5493,-3.5493,-3.5493,-3.5493,-3.5493,-3.5507,-3.5522,-3.5515,-3.554,-3.5599,-3.6376,-3.7414,-3.8093,-3.911,-4.0162,-4.0827,-4.1026,-4.108,-4.1171,-4.1191,-4.1191,-4.1191,-4.1191,-4.1191,-4.1191,-4.1191,-4.1191,-4.1191,-4.1191,-4.0137,-3.6914,0.0,0.0,0.0,-3.2402,0.0,0.0,-3.3223,-3.2675,-3.5817,-3.1577,-2.8882,-2.9488,0.0,0.0,0.0,0.0,0.0,0.0,0.0,0.0,-3.8496,-3.5859,-3.6758,-4.1191,-4.1191,-4.1191,-4.1191,-4.1191,-4.1191,-4.1191,-4.1191,-4.1055,-4.082,-4.082,-4.0664,-4.0371,-3.9766,-3.9512,-3.9434,-3.8828,-3.8594,-3.8555,-2.9764,-3.1818,-3.3458,-3.2661,-3.3238,-3.322,-3.1623,-3.2988,-3.3523,-3.1673,-3.3043,-3.4074,-3.3815,-3.3807,-3.3164,-3.1568,-3.2871,-3.2449,-2.925,-3.2027,-3.3091,0.0,0.0,-3.3807,-3.3807,-3.3807,-3.3807,-3.3807,0.0,0.0,-3.0173,-3.0155,-3.0577,-3.1446,-3.3332,-3.4342,-3.4676,-3.4962,-3.5239,-3.5493,-3.5493,-3.5493,-3.5493,-3.5493,-3.5493,-3.5493,-3.5493,-3.5493,-3.5515,-3.5577,-3.5611,-3.5611,-3.5611,-3.6802,-3.8209,-3.8288,-3.9563,-4.0996,-4.0996,-4.1103,-4.1191,-4.1191,-4.1191,-4.1191,-4.1191,-4.1191,-4.1191,-4.1191,-4.1191,-4.1191,-4.1191,-4.1191,-4.0332,-3.7715,0.0,0.0,0.0,-3.2871,0.0,-3.2344,-3.0703,-3.0602,-3.3103,-3.0946,0.0,0.0,0.0,0.0,0.0,0.0,0.0,-2.8242,-2.4219,0.0,-3.2246,-3.1406,-3.4414,-4.1191,-4.1191,-4.1191,-4.1191,-4.1191,-4.1191,-4.1191,-4.1191,-4.0703,-3.9922,-3.9922,-3.9414,-3.8633,-3.8613,-3.8613,-3.8613,-3.8594,-3.8594,-3.8476,-2.8547,-3.0851,-3.2742,-3.1916,-3.3056,-3.3907,-3.3388,-3.3997,-3.432,-3.3727,-3.3971,-3.4265,-3.4398,-3.4055,-3.3587,0.0,-3.2485,-3.2192,0.0,-3.2192,-3.2412,-3.2999,-3.1953,-3.1347,-3.1347,-3.1347,-3.1347,-3.1347,0.0,0.0,-3.021,-3.021,-3.1304,-3.3332,-3.3929,-3.4489,-3.4981,-3.5051,-3.5239,-3.5493,-3.5493,-3.5493,-3.5493,-3.5493,-3.5493,-3.5493,-3.5493,-3.5493,-3.5515,-3.5577,-3.5611,-3.5621,-3.5749,-3.698,-3.8361,-3.8473,-3.9758,-4.1149,-4.1149,-4.1171,-4.1191,-4.1191,-4.1191,-4.1191,-4.1191,-4.1191,-4.1191,-4.1191,-4.1191,-4.1191,-4.1191,-4.1191,-4.0156,-3.6934,-3.8418,0.0,-3.5273,0.0,-3.5014,-3.4741,-3.2082,-3.1538,-3.4706,-3.2596,0.0,0.0,0.0,0.0,0.0,0.0,0.0,0.0,-3.2539,0.0,-3.8281,-3.5655,-3.6582,-4.1055,-4.0964,-4.0983,-4.1055,-4.1055,-4.0793,-4.0312,-4.0312,-3.9824,-3.9004,-3.9004,-3.8848,-3.8535,-3.7949,-3.7715,-3.7637,-3.7051,-3.6836,-3.6797,-2.982,-3.1538,-3.2915,-3.2515,-3.343,-3.4041,-3.3518,-3.424,-3.4586,-3.3865,-3.4199,-3.4574,-3.4694,-3.4353,0.0,-3.4136,-3.3111,-3.289,-3.3862,-3.2912,-3.2742,-3.3752,-3.2357,-3.1549,-3.1549,-3.1549,-3.1549,-3.1549,-3.1636,-3.1708,-3.1708,-3.1825,-3.2784,-3.4401,-3.4492,-3.4755,-3.5105,-3.5207,-3.5354,-3.5493,-3.5493,-3.5493,-3.5493,-3.5493,-3.5493,-3.5493,-3.5493,-3.5493,-3.5515,-3.5601,-3.5648,-3.5663,-3.5861,-3.7116,-3.8487,-3.8574,-3.9824,-4.1191,-4.1191,-4.1191,-4.1191,-4.1191,-4.1191,-4.1191,-4.1191,-4.1191,-4.1191,-4.1191,-4.1191,-4.1191,-4.1191,-4.1191,-4.0488,-3.8301,-3.9744,-4.0365,-3.8178,0.0,-3.5978,0.0,0.0,-3.2422,0.0,-3.4669,-3.3951,0.0,0.0,0.0,0.0,0.0,-3.2586,-3.5152,-3.4407,-3.5639,-3.9097,-3.6933,-3.7537,-4.092,-4.085,-4.0694,-4.0476,-4.0476,-4.0032,-3.9298,-3.9298,-3.879,-3.799,-3.8059,-3.7886,-3.7535,-3.7011,-3.6816,-3.6758,-3.6191,-3.5996,-3.5996,-3.2743,-3.3352,-3.3899,-3.4027,-3.4172,-3.3836,-3.26,-3.3954,-3.448,-3.2673,-3.3992,-3.4999,-3.4774,-3.4734,-3.4753,-3.4754,0.0,0.0,-3.4223,-3.3876,-3.3705,-3.3815,-3.3668,-3.355,-3.3576,-3.3576,-3.3676,-3.3868,-3.4099,-3.4223,-3.4223,-3.4551,-3.4694,-3.4734,-3.4981,-3.5105,-3.5138,-3.5383,-3.5493,-3.5493,-3.5493,-3.5493,-3.5493,-3.5493,-3.5493,-3.5493,-3.5493,-3.5507,-3.5534,-3.5655,-3.571,-3.5741,-3.5932,-3.7207,-3.8594,-3.8594,-3.9824,-4.1191,-4.1191,-4.1191,-4.1191,-4.1191,-4.1191,-4.1191,-4.1191,-4.1191,-4.1191,-4.1191,-4.1191,-4.1191,-4.1191,-4.1191,-4.1191,-4.1191,-4.108,-4.0918,-4.066,-3.7834,-3.5989,0.0,0.0,0.0,-3.6416,-3.6914,-3.7003,0.0,0.0,0.0,0.0,0.0,-2.9852,-3.2346,-3.1689,-3.2831,-3.6009,-3.604,-3.7603,-4.0699,-4.0699,-4.0279,-3.949,-3.9497,-3.9018,-3.8215,-3.8215,-3.7721,-3.693,-3.703,-3.6622,-3.5884,-3.5951,-3.5976,-3.5976,-3.5976,-3.5996,-3.5996,0.0,0.0,-3.4095,-3.288,-3.3904,-3.4793,-3.4447,-3.499,-3.5249,-3.4779,-3.4939,-3.5138,-3.5289,-3.5122,-3.5088,-3.5289,-3.3674,-3.322,-3.4496,-3.3112,-3.2823,-3.4043,-3.214,-3.1157,-3.1355,-3.1355,-3.2378,-3.4505,-3.4551,-3.4572,-3.4572,-3.4653,-3.4793,-3.4999,-3.507,-3.5207,-3.5417,-3.546,-3.5493,-3.5493,-3.5493,-3.5493,-3.5493,-3.5493,-3.5493,-3.5493,-3.5493,-3.5528,-3.559,-3.5667,-3.5766,-3.5877,-3.5974,-3.7207,-3.8594,-3.8594,-3.9824,-4.1191,-4.1191,-4.1191,-4.1191,-4.1191,-4.1191,-4.1191,-4.1191,-4.1191,-4.1191,-4.1191,-4.1191,-4.1191,-4.1191,-4.1191,-4.1171,-4.1055,-4.1023,-4.0071,-3.74,-3.6227,-3.4775,0.0,-3.3615,-3.4943,-3.572,-3.8127,-3.8844,0.0,0.0,-3.5983,-3.679,-3.5514,-3.594,-3.858,-3.8482,-3.8782,-3.9579,-3.9549,-3.9557,-3.9669,-3.9669,-3.925,-3.852,-3.852,-3.8071,-3.7313,-3.7313,-3.68,-3.6002,-3.6041,-3.593,-3.5755,-3.5752,-3.5763,-3.5763,-3.5763,-3.5849,-3.5916,-3.2381,-3.3563,-3.4451,-3.3674,-3.4407,-3.5138,-3.5254,-3.5417,-3.5493,-3.5493,-3.5369,-3.5354,-3.5493,-3.5369,-3.5354,-3.5493,-3.4279,-3.3902,-3.4813,-3.3786,-3.3527,-3.4386,-3.3038,-3.2328,-3.2478,-3.2478,-3.3216,-3.4694,-3.4813,-3.4889,-3.4889,-3.4999,-3.5138,-3.5289,-3.5289,-3.5369,-3.5493,-3.5493,-3.5493,-3.5493,-3.5493,-3.5493,-3.5493,-3.5493,-3.5509,-3.5546,-3.5546,-3.559,-3.5655,-3.5755,-3.5841,-3.591,-3.5975,-3.6914,-3.8086,-3.8476,-3.9824,-4.1191,-4.1191,-4.1191,-4.1191,-4.1191,-4.1191,-4.1191,-4.1191,-4.1191,-4.1191,-4.1191,-4.1191,-4.1191,-4.1191,-4.115,-4.108,-4.1019,-3.9959,-3.8454,-3.6561,-3.4875,-3.3719,-3.3429,-3.4648,-3.6103,-3.7642,-3.9431,-3.9942,-3.8587,-3.7064,0.0,-3.8414,-3.7045,-3.759,-4.056,-4.0668,-4.0668,-4.0668,-4.0275,-3.9802,-3.9296,-3.8892,-3.8296,-3.7513,-3.7513,-3.7077,-3.6319,-3.6319,-3.6038,-3.5611,-3.5629,-3.5888,-3.6257,-3.6285,-3.6533,-3.6883,-3.6883,-3.693,-3.6991,-3.5122,-3.4981,-3.4889,-3.5122,-3.5155,-3.5239,-3.5479,-3.5493,-3.5493,-3.5493,-3.5493,-3.5493,-3.5493,-3.5493,-3.5493,-3.5493,-3.5289,-3.5155,-3.5155,-3.4908,-3.4754,-3.4754,-3.4714,-3.4714,-3.4754,-3.4793,-3.4813,-3.4813,-3.5053,-3.5155,-3.5174,-3.5383,-3.5493,-3.5493,-3.5493,-3.5493,-3.5493,-3.5493,-3.5493,-3.5493,-3.5493,-3.5493,-3.5507,-3.5515,-3.5558,-3.5591,-3.5611,-3.5663,-3.5755,-3.5869,-3.5907,-3.5938,-3.5975,-3.6601,-3.7461,-3.834,-3.9746,-4.1035,-4.1152,-4.1191,-4.1191,-4.1191,-4.1191,-4.1191,-4.1191,-4.1191,-4.1191,-4.1191,-4.1171,-4.1171,-4.1171,-4.1055,-4.0842,-4.0447,-3.8424,-3.6725,-3.6181,0.0,-3.3468,-3.6199,-3.6372,-3.7373,-4.0219,-4.0489,-4.0489,-4.0489,-3.7853,-3.7507,-4.0335,-3.7796,-3.7565,-4.0412,-4.0489,-4.0431,-4.0315,-3.9508,-3.9027,-3.8892,-3.8161,-3.7353,-3.6526,-3.6526,-3.6161,-3.5493,-3.5493,-3.5584,-3.568,-3.5736,-3.6276,-3.7069,-3.7123,-3.7605,-3.8237,-3.8237,-3.8255,-3.828,-3.5432,-3.5398,-3.5383,-3.5432,-3.5432,-3.5446,-3.5493,-3.5493,-3.5493,-3.5493,-3.5493,-3.5493,-3.5493,-3.5493,-3.5493,-3.5493,-3.546,-3.5432,-3.5432,-3.519,-3.5053,-3.5053,-3.4813,-3.4812,-3.5016,-3.5273,-3.5369,-3.5369,-3.5417,-3.5432,-3.5432,-3.5493,-3.5493,-3.5493,-3.5493,-3.5493,-3.5493,-3.5493,-3.5493,-3.5493,-3.5493,-3.5493,-3.552,-3.5562,-3.559,-3.5601,-3.5652,-3.5761,-3.5873,-3.59,-3.5942,-3.5995,-3.5996,-3.6601,-3.7461,-3.834,-3.9316,-4.0254,-4.0996,-4.1191,-4.1191,-4.1191,-4.1191,-4.1191,-4.1191,-4.1191,-4.1191,-4.1191,-4.1105,-4.1026,-4.1026,-4.092,-4.012,-3.7898,-3.7191,-3.5861,-3.2926,0.0,-3.5872,-3.5718,-3.8084,-3.9931,-4.045,-4.0489,-4.0489,-4.0489,-4.0008,-3.995,-4.0469,-4.0008,-3.995,-4.0469,-4.0489,-4.0162,-3.9488,-3.8623,-3.7834,-3.7103,-3.6969,-3.6469,-3.5699,-3.5699,-3.5622,-3.5493,-3.5493,-3.5892,-3.6507,-3.6516,-3.7049,-3.7819,-3.7847,-3.7938,-3.8053,-3.8053,-3.8085,-3.813,-3.5493,-3.5493,-3.5493,-3.5493,-3.5493,-3.5493,-3.5493,-3.5493,-3.5493,-3.5493,-3.5493,-3.5493,-3.5493,-3.5493,-3.5493,-3.5493,-3.5493,-3.5493,-3.5493,-3.5383,-3.5304,-3.5304,-3.5207,-3.519,-3.5304,-3.5432,-3.5493,-3.5493,-3.5493,-3.5493,-3.5493,-3.5493,-3.5493,-3.5493,-3.5493,-3.5493,-3.5493,-3.5493,-3.5493,-3.5493,-3.5493,-3.5522,-3.555,-3.5579,-3.5676,-3.5775,-3.5791,-3.5861,-3.595,-3.595,-3.5974,-3.5996,-3.5996,-3.6289,-3.6777,-3.7637,-3.918,-4.0684,-4.1094,-4.1191,-4.1191,-4.1191,-4.1191,-4.1191,-4.1191,-4.1149,-4.1082,-4.1082,-4.0988,-4.0883,-4.0883,-4.0805,-4.0354,-3.9138,-3.7742,-3.6228,-3.4616,-3.5718,-3.6565,-3.6199,-3.8719,-4.0489,-4.0489,-4.0489,-4.0489,-4.0489,-4.0489,-4.0489,-4.0489,-4.0489,-4.0489,-4.0489,-4.0065,-3.945,-3.8604,-3.7738,-3.7103,-3.6699,-3.6257,-3.5872,-3.5493,-3.5493,-3.5738,-3.6161,-3.6161,-3.6622,-3.7411,-3.7411,-3.7911,-3.87,-3.87,-3.8969,-3.9354,-3.9354,-3.9374,-3.9399,-3.5493,-3.5493,-3.5493,-3.5493,-3.5493,-3.5493,-3.5493,-3.5493,-3.5493,-3.5493,-3.5493,-3.5493,-3.5493,-3.5493,-3.5493,-3.5493,-3.5493,-3.5493,-3.5493,-3.5493,-3.5493,-3.5493,-3.5493,-3.5493,-3.5493,-3.5493,-3.5493,-3.5493,-3.5493,-3.5493,-3.5493,-3.5493,-3.5493,-3.5493,-3.5493,-3.5493,-3.5493,-3.5493,-3.5501,-3.5522,-3.5522,-3.5562,-3.564,-3.5668,-3.5775,-3.5903,-3.5913,-3.595,-3.5996,-3.5996,-3.5996,-3.5996,-3.5996,-3.5996,-3.6172,-3.7031,-3.9004,-4.0937,-4.1133,-4.1191,-4.1191,-4.1191,-4.1191,-4.1191,-4.1151,-4.1077,-4.0992,-4.0959,-4.085,-4.0779,-4.0779,-4.071,-4.0449,-3.9869,-3.8047,-3.6699,-3.6699,-3.6699,-3.693,-3.7507,-3.9315,-4.0489,-4.0489,-4.0489,-4.0489,-4.0489,-4.0489,-4.0489,-4.0489,-4.0489,-4.0315,-3.9931,-3.9315,-3.8584,-3.7719,-3.6853,-3.643,-3.6411,-3.5815,-3.5493,-3.5526,-3.5699,-3.6122,-3.6719,-3.6911,-3.7507,-3.8296,-3.8296,-3.8815,-3.9565,-3.9565,-3.995,-4.0489,-4.0489,-4.0489,-4.0519,-3.5493,-3.5493,-3.5493,-3.5493,-3.5493,-3.5493,-3.5493,-3.5493,-3.5493,-3.5493,-3.5493,-3.5493,-3.5493,-3.5493,-3.5493,-3.5493,-3.5493,-3.5493,-3.5493,-3.5493,-3.5493,-3.5493,-3.5493,-3.5493,-3.5493,-3.5493,-3.5493,-3.5493,-3.5493,-3.5493,-3.5493,-3.5493,-3.5493,-3.5493,-3.5493,-3.5493,-3.5493,-3.5493,-3.554,-3.559,-3.559,-3.5639,-3.5703,-3.5831,-3.5896,-3.5907,-3.5973,-3.5996,-3.5996,-3.5996,-3.5996,-3.5996,-3.5996,-3.5996,-3.6172,-3.7031,-3.8574,-4.0176,-4.0976,-4.1191,-4.1191,-4.1191,-4.1191,-4.1171,-4.103,-4.1019,-4.0959,-4.085,-4.0752,-4.0715,-4.0715,-4.061,-3.9749,-3.7368,0.0,0.0,-3.6699,-3.6699,-3.7584,-3.9931,-4.0392,-4.0489,-4.0489,-4.0489,-4.0489,-4.0489,-4.0489,-4.0489,-4.0489,-4.0489,-3.9777,-3.8238,-3.8123,-3.768,-3.6796,-3.5988,-3.5603,-3.5603,-3.5532,-3.5493,-3.5545,-3.6276,-3.6642,-3.6738,-3.7546,-3.8392,-3.92,-3.92,-3.9681,-4.0412,-4.0412,-4.045,-4.0489,-4.0489,-4.0489,-4.0504,-3.5493,-3.5493,-3.5493,-3.5493,-3.5493,-3.5493,-3.5493,-3.5493,-3.5493,-3.5493,-3.5493,-3.5493,-3.5493,-3.5493,-3.5493,-3.5493,-3.5493,-3.5493,-3.5493,-3.5493,-3.5493,-3.5493,-3.5493,-3.5493,-3.5493,-3.5493,-3.5493,-3.5493,-3.5493,-3.5493,-3.5493,-3.5493,-3.5493,-3.5493,-3.5493,-3.5522,-3.5562,-3.5562,-3.5591,-3.5671,-3.5671,-3.5723,-3.5836,-3.5877,-3.5938,-3.5972,-3.5996,-3.5996,-3.5996,-3.5996,-3.5996,-3.5996,-3.5996,-3.5996,-3.6172,-3.7031,-3.7773,-3.8574,-3.9912,-4.0667,-4.108,-4.108,-4.1,-4.095,-4.0902,-4.0848,-4.08,-4.0752,-4.0648,-4.0588,-4.0588,-4.053,-4.0181,-3.92,0.0,-3.9065,-3.9065,-3.9065,-3.9411,-4.0373,-4.0489,-4.0489,-4.0489,-4.0489,-4.0489,-4.0489,-4.0489,-4.0489,-4.0489,-4.0027,-3.8969,-3.7257,-3.7199,-3.6796,-3.5968,-3.5661,-3.5493,-3.5526,-3.6007,-3.6238,-3.6276,-3.7123,-3.7796,-3.8334,-3.8661,-3.9277,-4.0027,-4.0027,-4.0219,-4.0489,-4.0489,-4.0489,-4.0489,-4.0489,-4.0489,-4.0489,-3.5493,-3.5493,-3.5493,-3.5493,-3.5493,-3.5493,-3.5493,-3.5493,-3.5493,-3.5493,-3.5493,-3.5493,-3.5493,-3.5493,-3.5501,-3.5515,-3.5528,-3.5528,-3.5528,-3.5515,-3.5493,-3.5493,-3.5493,-3.5493,-3.5493,-3.5493,-3.5493,-3.5493,-3.5493,-3.5493,-3.5493,-3.5493,-3.5493,-3.5507,-3.5522,-3.555,-3.5591,-3.5611,-3.5679,-3.5761,-3.5761,-3.5821,-3.5921,-3.5921,-3.5951,-3.5996,-3.5996,-3.5996,-3.5996,-3.5996,-3.5996,-3.5996,-3.5996,-3.5995,-3.6091,-3.6676,-3.7024,-3.7443,-3.8541,-3.9472,-4.024,-4.0808,-4.087,-4.0793,-4.077,-4.0731,-4.068,-4.0649,-4.0574,-4.0489,-4.0489,-4.0489,-4.0489,-4.0489,-4.0489,-4.0489,-4.0489,-4.0489,-4.0489,-4.0489,-4.0489,-4.0489,-4.0489,-4.0489,-4.0489,-4.0489,-4.0489,-4.0392,-4.0142,-3.9335,-3.8219,-3.6757,-3.6449,-3.618,-3.5892,-3.5892,-3.5892,-3.5892,-3.6719,-3.7123,-3.7142,-3.8007,-3.8719,-3.9296,-3.9565,-3.9988,-4.0489,-4.0489,-4.0489,-4.0489,-4.0489,-4.0489,-4.0489,-4.0489,-4.0489,-4.0489,-3.5493,-3.5493,-3.5493,-3.5493,-3.5493,-3.5493,-3.5493,-3.5507,-3.5507,-3.5507,-3.5507,-3.5507,-3.5507,-3.5507,-3.5534,-3.56,-3.5591,-3.5591,-3.5591,-3.554,-3.5507,-3.5507,-3.5507,-3.5493,-3.5493,-3.5493,-3.5493,-3.5493,-3.5493,-3.5507,-3.5507,-3.5507,-3.5507,-3.5488,-3.5566,-3.5591,-3.5601,-3.5667,-3.5772,-3.5903,-3.5903,-3.5945,-3.5996,-3.5996,-3.5996,-3.5996,-3.5996,-3.5996,-3.5996,-3.5996,-3.5996,-3.5996,-3.5996,-3.595,-3.5903,-3.59,-3.6411,-3.7001,-3.7001,-3.7586,-3.8607,-4.0349,-4.0793,-4.0768,-4.0707,-4.0692,-4.0655,-4.0534,-4.0489,-4.0489,-4.0489,-4.0489,-4.0489,-4.0489,-4.0489,-4.0489,-4.0489,-4.0489,-4.0489,-4.0489,-4.0489,-4.0489,-4.0489,-4.0489,-4.0489,-4.0489,-4.0489,-4.0142,-3.9335,-3.8469,-3.7603,-3.6738,-3.5916,-3.5878,-3.6685,-3.6699,-3.6699,-3.6719,-3.7584,-3.8007,-3.8046,-3.8911,-3.9296,-3.9354,-4.0142,-4.0489,-4.0489,-4.0489,-4.0489,-4.0489,-4.0489,-4.0489,-4.0489,-4.0489,-4.0489,-4.0489,-3.5493,-3.5493,-3.5493,-3.5493,-3.5493,-3.5493,-3.5493,-3.5553,-3.5566,-3.5566,-3.5611,-3.5648,-3.5648,-3.5648,-3.5646,-3.5679,-3.5659,-3.5659,-3.5659,-3.5646,-3.5648,-3.5648,-3.5558,-3.5493,-3.5493,-3.5493,-3.5493,-3.5493,-3.5493,-3.5522,-3.5566,-3.5566,-3.56,-3.5629,-3.5663,-3.5716,-3.5811,-3.5831,-3.589,-3.5973,-3.5973,-3.5975,-3.5996,-3.5996,-3.5996,-3.5996,-3.5996,-3.5973,-3.594,-3.594,-3.594,-3.594,-3.594,-3.5913,-3.5877,-3.5797,-3.5924,-3.6222,-3.6783,-3.7113,-3.7693,-3.9393,-3.9782,-3.9895,-4.0439,-4.0559,-4.0545,-4.0504,-4.0489,-4.0489,-4.0489,-4.0489,-4.0489,-4.0489,-4.0489,-4.0489,-4.0489,-4.0489,-4.0489,-4.0489,-4.0489,-4.0489,-4.0489,-4.0489,-4.0489,-4.0489,-4.0489,-3.9772,-3.8129,-3.8009,-3.7603,-3.6738,-3.6281,-3.6449,-3.7252,-3.6895,-3.7007,-3.7623,-3.8488,-3.8911,-3.8931,-3.9758,-4.0142,-4.0162,-4.0392,-4.0489,-4.0489,-4.0489,-4.0489,-4.0489,-4.0489,-4.0489,-4.0489,-4.0489,-4.0489,-4.0489,-3.5588,-3.5588,-3.5588,-3.5588,-3.5588,-3.5588,-3.5588,-3.5621,-3.5648,-3.5648,-3.5667,-3.5703,-3.5703,-3.5703,-3.5717,-3.5766,-3.5772,-3.5772,-3.5772,-3.5723,-3.5703,-3.5703,-3.5611,-3.5588,-3.5588,-3.5588,-3.5588,-3.5588,-3.5588,-3.5611,-3.5648,-3.5648,-3.5663,-3.571,-3.5761,-3.5812,-3.5903,-3.5938,-3.5951,-3.5996,-3.5996,-3.5996,-3.5996,-3.5996,-3.5996,-3.5996,-3.5973,-3.5923,-3.59,-3.5841,-3.5812,-3.5812,-3.5812,-3.5791,-3.5775,-3.5679,-3.5629,-3.5728,-3.6203,-3.6354,-3.6663,-3.8008,-3.8554,-3.8988,-3.9835,-4.0027,-4.0104,-4.0431,-4.0489,-4.0489,-4.0489,-4.0489,-4.0489,-4.0489,-4.0489,-4.0489,-4.0489,-4.0489,-4.0489,-4.0489,-4.0489,-4.0489,-4.0489,-4.0406,-4.0285,-4.0157,-4.0157,-3.9528,-3.808,-3.8078,-3.7785,-3.7044,-3.6748,-3.6994,-3.7811,-3.7489,-3.767,-3.8345,-3.9207,-3.9679,-3.9777,-4.0277,-4.0489,-4.0489,-4.0489,-4.0489,-4.0489,-4.0489,-4.0489,-4.0489,-4.0489,-4.0489,-4.0489,-4.0489,-4.0489,-4.0489,-3.5703,-3.5703,-3.5703,-3.5703,-3.5703,-3.5703,-3.5703,-3.571,-3.5717,-3.5717,-3.5723,-3.5729,-3.5729,-3.5729,-3.5777,-3.5903,-3.5907,-3.5907,-3.5907,-3.5783,-3.5729,-3.5729,-3.5729,-3.5729,-3.5729,-3.5717,-3.5703,-3.5703,-3.5703,-3.571,-3.5717,-3.5717,-3.5723,-3.5729,-3.5849,-3.5907,-3.591,-3.5974,-3.5996,-3.5996,-3.5996,-3.5996,-3.5996,-3.5996,-3.5996,-3.5996,-3.5918,-3.59,-3.5869,-3.5723,-3.5689,-3.5689,-3.5689,-3.5646,-3.5611,-3.559,-3.5546,-3.5493,-3.5493,-3.5493,-3.568,-3.6411,-3.7199,-3.8027,-3.8969,-3.9181,-3.9392,-4.0123,-4.0335,-4.0392,-4.0392,-4.045,-4.0489,-4.0489,-4.0489,-4.0489,-4.0489,-4.0489,-4.0489,-4.0489,-4.0473,-4.0473,-4.0473,-4.0213,-3.9922,-3.9576,-3.9576,-3.9331,-3.8765,-3.8464,-3.8083,-3.7604,-3.7305,-3.7566,-3.8361,-3.8357,-3.8512,-3.888,-3.97,-4.0213,-4.0473,-4.0489,-4.0489,-4.0489,-4.0489,-4.0489,-4.0489,-4.0489,-4.0489,-4.0489,-4.0489,-4.0489,-4.0489,-4.0489,-4.0489,-4.0489,-3.5703,-3.5703,-3.5703,-3.5703,-3.5703,-3.5703,-3.5703,-3.5797,-3.5864,-3.5864,-3.5899,-3.593,-3.593,-3.593,-3.5953,-3.5974,-3.5975,-3.5975,-3.5975,-3.5953,-3.593,-3.593,-3.593,-3.593,-3.593,-3.5788,-3.5703,-3.5703,-3.5703,-3.5755,-3.5864,-3.5864,-3.5887,-3.5932,-3.5973,-3.5975,-3.5975,-3.5996,-3.5996,-3.5996,-3.5996,-3.5996,-3.5996,-3.5996,-3.5996,-3.5996,-3.5918,-3.5836,-3.5736,-3.5657,-3.5611,-3.5611,-3.5611,-3.5611,-3.559,-3.554,-3.5515,-3.5493,-3.5493,-3.5493,-3.5532,-3.5718,-3.5911,-3.6449,-3.793,-3.8277,-3.8334,-3.8507,-3.9084,-3.9546,-3.9546,-4.0065,-4.0489,-4.0489,-4.0489,-4.0489,-4.0489,-4.0489,-4.0489,-4.0489,-4.0302,-4.0177,-4.0177,-3.9901,-3.9576,-3.9238,-3.9438,-3.9147,-3.8165,-3.8216,-3.826,-3.8137,-3.7853,-3.8115,-3.8925,-3.8702,-3.8894,-3.9425,-3.9887,-4.012,-4.0195,-4.0406,-4.0489,-4.0489,-4.0489,-4.0489,-4.0489,-4.0489,-4.0489,-4.0489,-4.0489,-4.0489,-4.0489,-4.0489,-4.0489,-4.0489,-3.5841,-3.5841,-3.5841,-3.5841,-3.5841,-3.5841,-3.5841,-3.5899,-3.5947,-3.5947,-3.5975,-3.5996,-3.5996,-3.5996,-3.5996,-3.5996,-3.5996,-3.5996,-3.5996,-3.5996,-3.5996,-3.5996,-3.5996,-3.5996,-3.5996,-3.5901,-3.5841,-3.5841,-3.5841,-3.5874,-3.5947,-3.5947,-3.5972,-3.5996,-3.5996,-3.5996,-3.5996,-3.5996,-3.5996,-3.5996,-3.5996,-3.5996,-3.5996,-3.5953,-3.5948,-3.5945,-3.5811,-3.5682,-3.5611,-3.5574,-3.5558,-3.5558,-3.5558,-3.5558,-3.5546,-3.5515,-3.5493,-3.5493,-3.5493,-3.5493,-3.5493,-3.5493,-3.5493,-3.5834,-3.7084,-3.7392,-3.7507,-3.7911,-3.8354,-3.8681,-3.8681,-3.9008,-3.9431,-3.9854,-3.9931,-4.0046,-4.045,-4.0389,-4.0321,-4.0321,-4.0043,-3.9797,-3.9645,-3.9462,-3.9231,-3.8952,-3.9073,-3.8968,-3.8495,-3.8476,-3.8562,-3.8658,-3.8414,-3.8487,-3.8923,-3.8762,-3.8913,-3.9383,-3.969,-3.9962,-4.0101,-4.0372,-4.0489,-4.0489,-4.0489,-4.0489,-4.0489,-4.0489,-4.0489,-4.0489,-4.0489,-4.0489,-4.0489,-4.0489,-4.0489,-4.0489,-3.5996,-3.5996,-3.5996,-3.5996,-3.5996,-3.5996,-3.5996,-3.5996,-3.5996,-3.5996,-3.5996,-3.5996,-3.5996,-3.5996,-3.5996,-3.5996,-3.5996,-3.5996,-3.5996,-3.5996,-3.5996,-3.5996,-3.5996,-3.5996,-3.5996,-3.5996,-3.5996,-3.5996,-3.5996,-3.5996,-3.5996,-3.5996,-3.5996,-3.5996,-3.5996,-3.5996,-3.5996,-3.5996,-3.5996,-3.5996,-3.5995,-3.5976,-3.5974,-3.5907,-3.5869,-3.5836,-3.5657,-3.555,-3.5493,-3.5493,-3.5493,-3.5493,-3.5493,-3.5493,-3.5493,-3.5493,-3.5493,-3.5493,-3.5493,-3.5493,-3.5493,-3.5493,-3.5493,-3.568,-3.6353,-3.6488,-3.6699,-3.743,-3.768,-3.7777,-3.7777,-3.7862,-3.8174,-3.8885,-3.8984,-3.9164,-3.9835,-3.9852,-3.9813,-3.9813,-3.9637,-3.9408,-3.9063,-3.9036,-3.8933,-3.8719,-3.8707,-3.8803,-3.9008,-3.8815,-3.8803,-3.9008,-3.8833,-3.8707,-3.8707,-3.8707,-3.8833,-3.9036,-3.9358,-3.9731,-4.0101,-4.0339,-4.0457,-4.0489,-4.0489,-4.0489,-4.0489,-4.0489,-4.0489,-4.0489,-4.0489,-4.0489,-4.0489,-4.0489,-4.0489,-4.0489,-3.5996,-3.5996,-3.5996,-3.5996,-3.5996,-3.5996,-3.5996,-3.5996,-3.5996,-3.5996,-3.5996,-3.5996,-3.5996,-3.5996,-3.5996,-3.5996,-3.5996,-3.5996,-3.5996,-3.5996,-3.5996,-3.5996,-3.5996,-3.5996,-3.5996,-3.5996,-3.5996,-3.5996,-3.5996,-3.5996,-3.5996,-3.5996,-3.5996,-3.5996,-3.5996,-3.5996,-3.5996,-3.5996,-3.5996,-3.5996,-3.5942,-3.591,-3.5907,-3.5772,-3.5723,-3.573,-3.5621,-3.555,-3.5493,-3.5493,-3.5493,-3.5493,-3.5493,-3.5493,-3.5493,-3.5493,-3.5493,-3.5493,-3.5493,-3.5493,-3.5493,-3.5493,-3.5493,-3.5532,-3.5641,-3.5661,-3.5699,-3.5815,-3.6392,-3.6892,-3.6892,-3.7294,-3.7693,-3.7808,-3.7643,-3.7523,-3.7618,-3.822,-3.8631,-3.8631,-3.8952,-3.9063,-3.8773,-3.8762,-3.875,-3.8707,-3.8707,-3.8738,-3.8732,-3.8719,-3.8738,-3.8762,-3.8719,-3.8707,-3.8707,-3.8707,-3.8719,-3.8762,-3.9027,-3.9505,-4.0101,-4.0139,-4.0267,-4.0489,-4.0489,-4.0489,-4.0489,-4.0489,-4.0489,-4.0489,-4.0489,-4.0489,-4.0489,-4.0489,-4.0489,-4.0489,-3.5996,-3.5996,-3.5996,-3.5996,-3.5996,-3.5996,-3.5996,-3.5996,-3.5996,-3.5996,-3.5996,-3.5996,-3.5996,-3.5996,-3.5996,-3.5996,-3.5996,-3.5996,-3.5996,-3.5996,-3.5996,-3.5996,-3.5996,-3.5996,-3.5996,-3.5996,-3.5996,-3.5996,-3.5996,-3.5996,-3.5996,-3.5996,-3.5996,-3.5996,-3.5996,-3.5996,-3.5996,-3.5996,-3.5975,-3.5945,-3.591,-3.5864,-3.5786,-3.5679,-3.5638,-3.5697,-3.6076,-3.6517,-3.6911,-3.6911,-3.6911,-3.6815,-3.6334,-3.618,-3.6084,-3.5641,-3.5493,-3.5493,-3.5493,-3.5493,-3.5493,-3.5493,-3.5493,-3.5493,-3.5493,-3.5493,-3.5493,-3.5493,-3.5795,-3.5984,-3.5822,-3.6012,-3.629,-3.6616,-3.6554,-3.6793,-3.7737,-3.8014,-3.8234,-3.855,-3.8748,-3.8844,-3.8689,-3.8707,-3.8707,-3.8707,-3.8707,-3.8707,-3.8707,-3.8707,-3.8707,-3.8707,-3.8707,-3.8707,-3.8707,-3.8707,-3.8792,-3.8923,-3.8894,-3.9109,-3.9552,-3.9731,-3.9882,-4.0004,-4.0213,-4.0286,-4.0304,-4.0441,-4.0489,-4.0489,-4.0489,-4.0489,-4.0489,-4.0489,-4.0489,-4.0489]},{"header":{"parameterUnit":"m.s-1","parameterCategory":1,"la1":30.6,"la2":28.766,"lo1":-90.7593,"lo2":-88.6598,"dy":0.0162,"dx":0.0183,"nx":116,"ny":114,"refTime":"2023-09-06T12:00:00:Z","depth":0,"parameterNumber":3,"parameterNumberName":"V-component_of_WINDS"},"data":[0.0,0.0,0.0,0.0,0.0,0.0,0.0,0.0,0.0,0.0,0.0,0.0,0.0,0.0,0.0,0.0,0.0,0.0,0.0,0.0,0.0,0.0,0.0,0.0,0.0,0.0,0.0,0.0,0.0,0.0,0.0,0.0,0.0,0.0,0.0,0.0,0.0,0.0,0.0,0.0,0.0,0.0,0.0,0.0,0.0,0.0,0.0,0.0,0.0,0.0,0.0,0.0,0.0,0.0,0.0,0.0,0.0,0.0,0.0,0.0,0.0,0.0,0.0,0.0,0.0,0.0,0.0,0.0,0.0,0.0,0.0,0.0,0.0,0.0,0.0,0.0,0.0,0.0,0.0,0.0,0.0,0.0,0.0,0.0,0.0,0.0,0.0,0.0,0.0,0.0,0.0,0.0,0.0,0.0,0.0,0.0,0.0,0.0,0.0,0.0,0.0,0.0,0.0,0.0,0.0,0.0,0.0,0.0,0.0,0.0,0.0,0.0,0.0,0.0,0.0,0.0,0.0,0.0,0.0,0.0,0.0,0.0,0.0,0.0,0.0,0.0,0.0,0.0,0.0,0.0,0.0,0.0,0.0,0.0,0.0,0.0,0.0,0.0,0.0,0.0,0.0,0.0,0.0,0.0,0.0,0.0,0.0,0.0,0.0,0.0,0.0,0.0,0.0,0.0,0.0,0.0,0.0,0.0,0.0,0.0,0.0,0.0,0.0,0.0,0.0,0.0,0.0,0.0,0.0,0.0,0.0,0.0,0.0,0.0,0.0,0.0,0.0,0.0,0.0,0.0,0.0,0.0,0.0,0.0,0.0,0.0,0.0,0.0,0.0,0.0,0.0,0.0,0.0,0.0,0.0,0.0,0.0,0.0,0.0,0.0,0.0,0.0,0.0,0.0,0.0,0.0,0.0,0.0,0.0,0.0,0.0,0.0,0.0,0.0,0.0,0.0,0.0,0.0,0.0,0.0,0.0,0.0,0.0,0.0,0.0,0.0,0.0,0.0,0.0,0.0,0.0,0.0,0.0,0.0,0.0,0.0,0.0,0.0,0.0,0.0,0.0,0.0,0.0,0.0,0.0,0.0,0.0,0.0,0.0,0.0,0.0,0.0,0.0,0.0,0.0,0.0,0.0,0.0,0.0,0.0,0.0,0.0,0.0,0.0,0.0,0.0,0.0,0.0,0.0,0.0,0.0,0.0,0.0,0.0,0.0,0.0,0.0,0.0,0.0,0.0,0.0,0.0,0.0,0.0,0.0,0.0,0.0,0.0,0.0,0.0,0.0,0.0,0.0,0.0,0.0,0.0,0.0,0.0,0.0,0.0,0.0,0.0,0.0,0.0,0.0,0.0,0.0,0.0,0.0,0.0,0.0,0.0,0.0,0.0,0.0,0.0,0.0,0.0,0.0,0.0,0.0,0.0,0.0,0.0,0.0,0.0,0.0,0.0,0.0,0.0,0.0,0.0,0.0,0.0,0.0,0.0,0.0,0.0,0.0,0.0,0.0,0.0,0.0,0.0,0.0,0.0,0.0,0.0,0.0,0.0,0.0,0.0,0.0,0.0,0.0,0.0,0.0,0.0,0.0,0.0,0.0,0.0,0.0,0.0,0.0,0.0,0.0,0.0,0.0,0.0,0.0,0.0,0.0,0.0,0.0,0.0,0.0,0.0,0.0,0.0,0.0,0.0,0.0,0.0,0.0,0.0,0.0,0.0,0.0,0.0,0.0,0.0,0.0,0.0,0.0,0.0,0.0,0.0,0.0,0.0,0.0,0.0,0.0,0.0,0.0,0.0,0.0,0.0,0.0,0.0,0.0,0.0,0.0,0.0,0.0,0.0,0.0,0.0,0.0,0.0,0.0,0.0,0.0,0.0,0.0,0.0,0.0,0.0,0.0,0.0,0.0,0.0,0.0,0.0,0.0,0.0,0.0,0.0,0.0,0.0,0.0,0.0,0.0,0.0,0.0,0.0,0.0,0.0,0.0,0.0,0.0,0.0,0.0,0.0,0.0,0.0,0.0,0.0,0.0,0.0,0.0,0.0,0.0,0.0,0.0,0.0,0.0,0.0,0.0,0.0,0.0,0.0,0.0,0.0,0.0,0.0,0.0,0.0,0.0,0.0,0.0,0.0,0.0,0.0,0.0,0.0,0.0,0.0,0.0,0.0,0.0,0.0,0.0,0.0,0.0,0.0,0.0,0.0,0.0,0.0,0.0,0.0,0.0,0.0,0.0,0.0,0.0,0.0,0.0,0.0,0.0,0.0,0.0,0.0,0.0,0.0,0.0,0.0,0.0,0.0,0.0,0.0,0.0,0.0,0.0,0.0,0.0,0.0,0.0,0.0,0.0,0.0,0.0,0.0,0.0,0.0,0.0,0.0,0.0,0.0,0.0,0.0,0.0,0.0,0.0,0.0,0.0,0.0,0.0,0.0,0.0,0.0,0.0,0.0,0.0,0.0,0.0,0.0,0.0,0.0,0.0,0.0,0.0,0.0,0.0,0.0,0.0,0.0,0.0,0.0,0.0,0.0,0.0,0.0,0.0,0.0,0.0,0.0,0.0,0.0,0.0,0.0,0.0,0.0,0.0,0.0,0.0,0.0,0.0,0.0,0.0,0.0,0.0,0.0,0.0,0.0,0.0,0.0,0.0,0.0,0.0,0.0,0.0,0.0,0.0,0.0,0.0,0.0,0.0,0.0,0.0,0.0,0.0,0.0,0.0,0.0,0.0,0.0,0.0,0.0,0.0,0.0,0.0,0.0,0.0,0.0,0.0,0.0,0.0,0.0,0.0,0.0,0.0,0.0,0.0,0.0,0.0,0.0,0.0,0.0,0.0,0.0,0.0,0.0,0.0,0.0,0.0,0.0,0.0,0.0,0.0,0.0,0.0,0.0,0.0,0.0,0.0,0.0,0.0,0.0,0.0,0.0,0.0,0.0,0.0,0.0,0.0,0.0,0.0,0.0,0.0,0.0,0.0,0.0,0.0,0.0,0.0,0.0,0.0,0.0,0.0,0.0,0.0,0.0,0.0,0.0,0.0,0.0,0.0,0.0,0.0,0.0,0.0,0.0,0.0,0.0,0.0,0.0,0.0,0.0,0.0,0.0,0.0,0.0,0.0,0.0,0.0,0.0,0.0,0.0,0.0,0.0,0.0,0.0,0.0,0.0,0.0,0.0,0.0,0.0,0.0,0.0,0.0,0.0,0.0,0.0,0.0,0.0,0.0,0.0,0.0,0.0,0.0,0.0,0.0,0.0,0.0,0.0,0.0,0.0,0.0,0.0,0.0,0.0,0.0,0.0,0.0,0.0,0.0,0.0,0.0,0.0,0.0,0.0,0.0,0.0,0.0,0.0,0.0,0.0,0.0,0.0,0.0,0.0,0.0,0.0,0.0,0.0,0.0,0.0,0.0,0.0,0.0,0.0,0.0,0.0,0.0,0.0,0.0,0.0,0.0,0.0,0.0,0.0,0.0,0.0,0.0,0.0,0.0,0.0,0.0,0.0,0.0,0.0,0.0,0.0,0.0,0.0,0.0,0.0,0.0,0.0,0.0,0.0,0.0,0.0,0.0,0.0,0.0,0.0,0.0,0.0,0.0,0.0,0.0,0.0,0.0,0.0,0.0,0.0,0.0,0.0,0.0,0.0,0.0,0.0,0.0,0.0,0.0,0.0,0.0,0.0,0.0,0.0,0.0,0.0,0.0,0.0,0.0,0.0,0.0,0.0,0.0,0.0,0.0,0.0,0.0,0.0,0.0,0.0,0.0,0.0,0.0,0.0,0.0,0.0,0.0,0.0,0.0,0.0,0.0,0.0,0.0,0.0,0.0,0.0,0.0,0.0,0.0,0.0,0.0,0.0,0.0,0.0,0.0,0.0,0.0,0.0,0.0,0.0,0.0,0.0,0.0,0.0,0.0,0.0,0.0,0.0,0.0,0.0,0.0,0.0,0.0,0.0,0.0,0.0,0.0,0.0,0.0,0.0,0.0,0.0,0.0,0.0,0.0,0.0,0.0,0.0,0.0,0.0,0.0,0.0,0.0,0.0,0.0,0.0,0.0,0.0,0.0,0.0,0.0,0.0,0.0,0.0,0.0,0.0,0.0,0.0,0.0,0.0,0.0,0.0,0.0,0.0,0.0,0.0,0.0,0.0,0.0,0.0,0.0,0.0,0.0,0.0,0.0,0.0,0.0,0.0,0.0,0.0,0.0,0.0,0.0,0.0,0.0,0.0,0.0,0.0,0.0,0.0,0.0,0.0,0.0,0.0,0.0,0.0,0.0,0.0,0.0,0.0,0.0,0.0,0.0,0.0,0.0,0.0,0.0,0.0,0.0,0.0,0.0,0.0,0.0,0.0,0.0,0.0,0.0,0.0,0.0,0.0,0.0,0.0,0.0,0.0,0.0,0.0,0.0,0.0,0.0,0.0,0.0,0.0,0.0,0.0,0.0,0.0,0.0,0.0,0.0,0.0,0.0,0.0,0.0,0.0,0.0,0.0,0.0,0.0,0.0,0.0,0.0,0.0,0.0,0.0,0.0,0.0,0.0,0.0,0.0,0.0,0.0,0.0,0.0,0.0,0.0,0.0,0.0,0.0,0.0,0.0,0.0,0.0,0.0,0.0,0.0,0.0,0.0,0.0,0.0,0.0,0.0,0.0,0.0,0.0,0.0,0.0,0.0,0.0,0.0,0.0,0.0,0.0,0.0,0.0,0.0,0.0,0.0,0.0,0.0,0.0,0.0,0.0,0.0,0.0,0.0,0.0,0.0,0.0,0.0,0.0,0.0,0.0,0.0,0.0,0.0,0.0,0.0,0.0,0.0,0.0,0.0,0.0,0.0,0.0,0.0,0.0,0.0,0.0,0.0,0.0,0.0,0.0,0.0,0.0,0.0,0.0,0.0,0.0,0.0,0.0,0.0,0.0,0.0,0.0,0.0,0.0,0.0,0.0,0.0,0.0,0.0,0.0,0.0,0.0,0.0,0.0,0.0,0.0,0.0,0.0,0.0,0.0,0.0,0.0,0.0,0.0,0.0,0.0,0.0,0.0,0.0,0.0,0.0,0.0,0.0,0.0,0.0,0.0,0.0,0.0,0.0,0.0,0.0,0.0,0.0,0.0,0.0,0.0,0.0,0.0,0.0,0.0,0.0,0.0,0.0,0.0,0.0,0.0,0.0,0.0,0.0,0.0,0.0,0.0,0.0,0.0,0.0,0.0,0.0,0.0,0.0,0.0,0.0,0.0,0.0,0.0,0.0,0.0,0.0,0.0,0.0,0.0,0.0,0.0,0.0,0.0,0.0,0.0,0.0,0.0,0.0,0.0,0.0,0.0,0.0,0.0,0.0,0.0,0.0,0.0,0.0,0.0,0.0,0.0,0.0,0.0,0.0,0.0,0.0,0.0,0.0,0.0,0.0,0.0,0.0,0.0,0.0,0.0,0.0,0.0,0.0,0.0,0.0,0.0,0.0,0.0,0.0,0.0,0.0,0.0,0.0,0.0,0.0,0.0,0.0,0.0,0.0,0.0,0.0,0.0,0.0,0.0,0.0,0.0,0.0,0.0,0.0,0.0,0.0,0.0,0.0,0.0,0.0,0.0,0.0,0.0,0.0,0.0,0.0,0.0,0.0,0.0,0.0,0.0,0.0,0.0,0.0,0.0,0.0,0.0,0.0,0.0,0.0,0.0,0.0,0.0,0.0,0.0,0.0,0.0,0.0,0.0,0.0,0.0,0.0,0.0,0.0,0.0,0.0,0.0,0.0,0.0,0.0,0.0,0.0,0.0,0.0,0.0,0.0,0.0,0.0,0.0,0.0,0.0,0.0,0.0,0.0,0.0,0.0,0.0,0.0,0.0,0.0,0.0,0.0,0.0,0.0,0.0,0.0,0.0,0.0,0.0,0.0,0.0,0.0,0.0,0.0,0.0,0.0,0.0,0.0,0.0,0.0,0.0,0.0,0.0,0.0,0.0,0.0,0.0,0.0,0.0,0.0,0.0,0.0,0.0,0.0,0.0,0.0,0.0,0.0,0.0,0.0,0.0,0.0,0.0,0.0,0.0,0.0,0.0,0.0,0.0,0.0,0.0,0.0,0.0,0.0,0.0,0.0,0.0,-1.7495,0.0,0.0,0.0,0.0,0.0,0.0,0.0,0.0,0.0,0.0,0.0,0.0,0.0,0.0,0.0,0.0,0.0,0.0,0.0,0.0,0.0,0.0,0.0,0.0,0.0,0.0,0.0,0.0,0.0,0.0,0.0,0.0,0.0,0.0,0.0,0.0,0.0,0.0,0.0,0.4651,0.5037,0.5173,0.4815,0.4452,0.4192,0.0,0.0,0.0,0.0,0.0,0.0,0.0,0.0,0.0,0.0,0.0,0.0,0.0,0.0,0.0,0.0,0.0,0.0,0.0,0.0,0.0,0.0,0.0,0.0,0.0,0.0,0.0,0.0,0.0,0.0,0.0,0.0,0.0,0.0,0.0,0.0,0.0,0.0,0.0,0.0,0.0,0.0,0.0,0.0,0.0,0.0,0.0,0.0,0.0,0.0,0.0,0.0,0.0,0.0,0.0,0.0,0.0,0.0,0.0,0.0,0.0,0.0,0.0,0.0,0.0,0.0,0.0,0.0,0.0,0.0,0.0,-1.6973,0.0,0.0,0.0,0.0,0.0,0.0,0.0,0.0,0.0,0.0,0.0,0.0,0.0,0.0,0.0,0.0,0.0,0.0,0.0,0.0,0.0,0.0,0.0,0.0,0.4092,0.3622,0.3482,0.3382,0.0,0.0,0.0,0.0,0.0,0.0,0.0,0.0,0.0,0.3202,0.4375,0.5195,0.5672,0.5724,0.5505,0.5029,0.5122,0.0,0.0,0.0,0.0,0.0,0.0,0.0,0.0,0.0,0.0,0.0,0.0,0.0,0.0,0.0,0.0,0.0,0.0,0.0,0.0,0.0,0.0,0.0,0.0,0.0,0.0,0.0,0.0,0.0,0.0,0.0,0.0,0.0,0.0,0.0,0.0,0.0,0.0,0.0,0.0,0.0,0.0,0.0,0.0,0.0,0.0,0.0,0.0,0.0,0.0,0.0,0.0,0.0,0.0,0.0,0.0,0.0,0.0,0.0,0.0,0.0,0.0,0.0,-1.725,-1.7334,-1.7738,-1.7226,-1.6741,-1.6344,-1.6974,-1.6458,-1.5188,-1.5504,0.0,0.0,0.0,0.0,0.0,0.0,0.0,0.0,0.0,0.0,0.0,0.0,0.0,0.0,0.0,0.0,0.0,0.0,0.0,0.0,0.0,0.4108,0.3667,0.3626,0.3439,0.3297,0.0,0.0,0.0,0.0,0.0,0.0,0.0,0.2839,0.3381,0.4355,0.6302,0.725,0.7232,0.7454,0.7518,0.7442,0.8045,0.8208,0.808,0.0,0.0,0.0,0.0,0.0,0.0,0.0,0.0,0.0,0.0,0.0,0.0,0.0,0.0,0.0,0.0,0.0,0.0,0.0,0.0,0.0,0.0,0.0,0.0,0.0,0.0,0.0,0.0,0.0,0.0,0.0,0.0,0.0,0.0,0.0,0.0,0.0,0.0,0.0,0.0,0.0,-1.7263,-1.949,0.0,0.0,0.0,0.0,0.0,0.0,0.0,0.0,0.0,0.0,0.0,0.0,0.0,-1.8229,-1.811,-1.8382,-1.8209,-1.7702,-1.8178,-1.8163,-1.7668,-1.7941,-1.7712,-1.7034,-1.6774,0.0,-1.6632,-1.6515,0.0,0.0,0.0,0.0,0.0,0.0,0.0,0.0,0.0,0.0,0.0,0.0,0.0,0.0,0.0,0.0,0.0,0.0,0.0,0.0,0.0,0.3912,0.3876,0.3934,0.3849,0.377,0.3626,0.3454,0.0,0.0,0.0,0.0,0.2878,0.3263,0.4193,0.5619,0.687,0.7885,0.8759,0.8872,0.9486,1.0669,1.1584,1.1173,0.9725,1.0939,0.0,0.0,0.0,0.0,0.0,0.0,0.0,0.0,0.0,0.0,0.0,0.0,0.0,0.0,0.0,0.0,0.0,0.0,0.0,0.0,0.0,0.0,0.0,0.0,0.0,0.0,0.0,0.0,0.0,0.0,0.0,0.0,0.0,0.0,0.0,0.0,0.0,0.0,0.0,-1.6445,-1.8792,-2.0289,-2.0685,-2.0901,0.0,0.0,0.0,0.0,0.0,0.0,0.0,0.0,0.0,-1.7862,-1.8628,-1.8927,-1.8706,-1.978,-1.9922,-1.9107,-1.9424,-1.9134,-1.8347,-1.8099,-1.785,-1.7488,-1.689,-1.6673,-1.6782,-1.6591,-1.6759,-1.7035,0.0,0.0,0.0,0.0,-1.4696,-1.4881,0.0,0.0,0.0,0.0,0.0,0.0,0.0,0.0,0.0,0.0,0.0,0.0,0.3841,0.401,0.4189,0.4261,0.4164,0.3805,0.3063,0.2794,0.0,0.0,0.0,0.2143,0.2365,0.3696,0.5046,0.6372,0.7201,0.8169,0.9406,0.9872,1.0914,1.2407,1.444,1.3953,1.1678,1.3154,1.3418,1.285,0.0,0.0,0.0,0.0,0.0,0.0,0.0,0.0,0.0,0.0,0.0,0.0,0.0,0.0,0.0,0.0,0.0,0.0,0.0,0.0,0.0,0.0,0.0,0.0,0.0,0.0,0.0,0.0,0.0,0.0,0.0,0.0,0.0,0.0,0.0,0.0,0.0,-1.8383,-1.9921,-2.1259,-2.1246,-2.1359,0.0,0.0,0.0,0.0,0.0,0.0,-1.9562,-1.9899,-1.9681,-1.8684,-1.9729,-2.0002,-1.9327,-2.0526,-2.0653,-1.9574,-1.9574,-1.9227,-1.8513,-1.803,-1.7902,-1.7951,-1.752,-1.7324,-1.7139,-1.6749,-1.6456,-1.6374,-1.6818,-1.6497,-1.5752,-1.5195,-1.5132,-1.5248,0.0,0.0,0.0,0.0,0.0,0.0,0.0,0.0,0.0,0.0,0.0,0.4225,0.4442,0.4439,0.4505,0.4473,0.4126,0.2941,0.0718,0.0343,-0.02,-0.1046,-0.0288,0.0332,0.0696,0.3678,0.5628,0.6391,0.7678,0.8414,0.8529,1.0374,1.1268,1.1546,1.586,1.6222,1.3715,1.5039,1.5447,1.5073,1.3203,0.0,0.0,0.0,0.0,0.0,0.0,0.0,0.0,0.0,0.0,0.0,0.0,0.0,0.0,0.0,0.0,0.0,0.0,0.0,0.0,0.0,0.0,0.0,0.0,0.0,0.0,0.0,0.0,0.0,0.0,0.0,0.0,0.0,0.0,0.0,0.0,0.0,0.0,-2.2242,-2.2621,0.0,0.0,0.0,0.0,-2.1063,-2.0523,-2.0444,-2.0954,-2.1311,-2.1442,-2.1289,-2.1936,-2.1568,-2.0165,-2.0248,-1.9456,-1.7913,-1.7913,-1.7791,-1.7494,-1.7831,-1.8233,-1.8555,-1.8975,-1.8926,-1.8437,-1.7187,-1.7069,-1.7603,-1.6622,-1.6613,-1.7038,-1.5458,-1.5442,-1.6064,0.0,0.0,0.0,0.0,0.0,0.0,0.0,0.0,0.3628,0.258,0.2548,0.2998,0.3827,0.4265,0.4664,0.5047,0.3859,0.3287,0.359,0.1725,-0.0421,-0.2652,-0.2452,-0.089,0.2151,0.4266,0.5911,0.7136,0.7947,0.8831,0.9691,1.1013,1.2644,1.4503,1.7509,1.9264,1.9964,1.9992,1.9683,1.9127,1.8433,1.7312,0.0,0.0,0.0,0.0,0.0,0.0,0.0,0.0,0.0,0.0,0.0,0.0,0.0,0.0,0.0,0.0,0.0,0.0,0.0,0.0,0.0,0.0,0.0,0.0,0.0,0.0,0.0,0.0,0.0,0.0,0.0,0.0,0.0,0.0,0.0,0.0,0.0,-2.2528,-2.2563,0.0,-2.3047,-2.2952,-2.2754,-2.2483,-2.3218,-2.3393,-2.2721,-2.2791,-2.2458,-2.1524,-2.1497,-2.1411,-2.1173,-2.0934,-2.0422,-1.963,-1.963,-1.9247,-1.8613,-1.8769,-1.8916,-1.9062,-1.9219,-1.9199,-1.9023,-1.8564,-1.8183,-1.7865,-1.7213,-1.7099,-1.7266,-1.6377,-1.6237,-1.6505,0.0,0.0,0.0,0.0,0.0,0.0,0.0,0.0,0.3322,0.2509,0.1718,0.1514,0.2306,0.2769,0.3168,0.3561,0.2489,0.1917,0.2234,0.0162,-0.1801,-0.3409,-0.3175,-0.1386,0.197,0.4475,0.6184,0.7112,0.7851,0.8875,1.0262,1.1847,1.4363,1.7572,2.0245,2.3057,2.5651,2.5288,2.4372,2.3186,2.2508,2.0755,1.8447,0.0,0.0,0.0,0.0,0.0,0.0,0.0,0.0,0.0,0.0,0.0,0.0,0.0,0.0,0.0,0.0,0.0,0.0,0.0,0.0,0.0,0.0,0.0,0.0,0.0,0.0,0.0,0.0,0.0,0.0,0.0,0.0,0.0,0.0,0.0,-2.1377,-2.3219,-2.3185,-2.3319,-2.4051,-2.3835,-2.3638,-2.3638,-2.4393,-2.4469,-2.3564,-2.3662,-2.3197,-2.1876,-2.1776,-2.1642,-2.1334,-2.113,-2.0706,-2.0186,-2.0186,-1.9917,-1.9502,-1.9502,-1.9424,-1.9307,-1.959,-1.9473,-1.9092,-1.9385,-1.9082,-1.8408,-1.8135,-1.8027,-1.7988,-1.7695,-1.75,-1.7288,0.0,0.0,0.0,0.0,0.0,0.0,0.0,0.3602,0.3579,0.3503,0.1445,-0.0057,-0.0183,-0.0193,-0.02,-0.02,-0.02,-0.1255,-0.3785,-0.4625,-0.4526,-0.3402,-0.237,-0.123,-0.0,0.4002,0.6154,0.6355,0.7415,0.8621,0.9993,1.307,1.6519,2.0391,2.4055,2.7397,3.0312,3.0396,2.9155,2.694,2.4986,2.3262,2.1696,0.0,0.0,0.0,0.0,0.0,0.0,0.0,0.0,0.0,0.0,0.0,0.0,0.0,0.0,0.0,0.0,0.0,0.0,0.0,0.0,0.0,0.0,0.0,0.0,0.0,0.0,0.0,0.0,0.0,0.0,0.0,0.0,0.0,-2.0809,-2.2085,-2.3227,-2.4398,-2.4591,-2.4822,-2.5302,-2.484,-2.4496,-2.4511,-2.3872,-2.3472,-2.3352,-2.3848,-2.3603,-2.2526,-2.297,-2.2343,-2.0652,-2.0613,-2.0145,-1.9326,-1.9326,-1.9541,-1.9932,-1.9932,-1.9707,-1.9375,-2.0205,-1.9853,-1.876,-1.959,-1.9697,-1.9326,-1.9297,-1.9287,-1.9287,-1.9287,-1.9023,-1.8594,0.0,0.0,0.0,0.0,0.0,0.0,0.0,0.3612,0.2968,0.12,0.0409,-0.1006,-0.3624,-0.3944,-0.3897,-0.3892,-0.3889,-0.4411,-0.5502,-0.5326,-0.4914,-0.4193,-0.2624,-0.1212,-0.0,0.1107,0.3677,0.7748,0.9324,1.0787,1.2157,1.6525,2.05,2.4123,2.7696,3.0481,3.2473,3.1526,3.0318,2.8926,2.7716,2.6178,2.449,0.0,0.0,0.0,0.0,0.0,0.0,0.0,0.0,0.0,0.0,0.0,0.0,0.0,0.0,0.0,0.0,0.0,0.0,0.0,0.0,0.0,0.0,0.0,0.0,0.0,0.0,0.0,0.0,0.0,0.0,0.0,0.0,-2.15,-2.2844,-2.2873,-2.3371,-2.5081,-2.5304,-2.5176,-2.4787,-2.5032,-2.4989,-2.4473,-2.5039,-2.5168,-2.4662,-2.4366,-2.3819,-2.2973,-2.1818,-2.1085,-2.0891,-2.0329,-2.0118,-2.0215,-2.0215,-2.0273,-2.0391,-2.0391,-2.0322,-2.0225,-2.0459,-2.0361,-2.0049,-2.0293,-2.0322,-2.0156,-1.9531,-1.9287,-1.9287,-1.9287,-1.9209,-1.8965,0.0,0.0,0.0,0.0,0.0,0.0,0.0,0.1655,0.0852,-0.059,-0.098,-0.1909,-0.4041,-0.5373,-0.6129,-0.6125,-0.6439,-0.6519,-0.6244,-0.545,-0.5078,-0.51,-0.3781,-0.2129,-0.0073,0.0,0.1569,0.4826,1.0608,1.4352,1.6383,2.0724,2.4235,2.6918,2.902,3.0423,3.1125,2.9665,2.881,2.83,2.7076,2.618,2.5447,2.4617,2.3065,2.1315,2.1322,2.1477,2.1618,2.1033,0.0,0.0,0.0,0.0,0.0,0.0,0.0,0.0,0.0,0.0,0.0,0.0,0.0,0.0,0.0,0.0,0.0,0.0,0.0,0.0,0.0,0.0,0.0,0.0,-2.0345,-2.2173,-2.3819,-2.3703,-2.3878,-2.5011,-2.5121,-2.5069,-2.4919,-2.5149,-2.5163,-2.4732,-2.5274,-2.5458,-2.4993,-2.489,-2.4102,-2.2462,-2.1953,-2.1268,-2.0323,-2.0256,-2.0312,-2.0566,-2.0566,-2.0566,-2.0566,-2.0566,-2.0371,-2.0049,-2.041,-2.0361,-2.0059,-2.042,-2.0566,0.0,0.0,0.0,0.0,0.0,-1.9551,-1.9414,0.0,0.0,0.0,0.0,0.0,0.0,0.0,-0.1337,-0.2025,-0.2093,-0.257,-0.298,-0.3175,-0.5503,-0.7109,-0.717,-0.7935,-0.7882,-0.6634,-0.5719,-0.5483,-0.6082,-0.5576,-0.3702,-0.0391,-0.0156,0.0,0.0,0.9916,1.6936,2.106,2.4733,2.7184,2.855,2.8852,2.8579,2.7809,2.6089,2.5599,2.5744,2.41,2.4116,2.5128,2.458,2.3401,2.1871,2.0894,2.0874,2.1189,2.0427,0.0,0.0,0.0,0.0,0.0,0.0,0.0,0.0,0.0,0.0,0.0,0.0,0.0,0.0,0.0,0.0,0.0,0.0,0.0,0.0,0.0,0.0,0.0,0.0,-2.0233,-2.1845,-2.4054,-2.4465,-2.4483,-2.4583,-2.4553,-2.4743,-2.5408,-2.5265,-2.5069,-2.5074,-2.495,-2.4908,-2.4908,0.0,0.0,0.0,0.0,-2.1932,-1.9433,-2.0213,-2.0566,-2.0566,-2.0566,-2.0566,-2.0566,-2.0566,-2.0156,-1.9473,-2.0234,-2.0137,-1.9492,-2.0177,-2.0401,-2.0401,-2.0557,-2.0566,-2.0508,-2.0019,-1.9902,-1.9912,0.0,0.0,0.0,0.0,0.0,0.0,0.0,-0.3099,-0.3425,-0.3913,-0.4094,-0.4713,-0.6104,-0.674,-0.7292,-0.7782,-0.8254,-0.8569,-0.8776,-0.8472,-0.8072,-0.7611,-0.7331,-0.5663,-0.2574,-0.0855,0.0,0.0,0.2134,0.9606,2.1776,2.5048,2.6743,2.71,2.8729,2.8254,2.6034,2.3778,2.2577,2.2053,1.9909,2.1179,2.4278,2.3785,2.3212,2.2623,2.2655,2.2394,2.1819,2.0489,1.9826,1.9551,1.9531,0.0,0.0,0.0,0.0,0.0,0.0,0.0,0.0,0.0,0.0,0.0,0.0,0.0,0.0,0.0,0.0,0.0,0.0,0.0,0.0,-1.9989,-2.1692,-2.3226,-2.416,-2.4343,-2.4556,-2.5148,-2.5204,-2.5189,-2.5164,-2.5137,-2.5058,-2.4862,-2.5212,-2.5448,-2.5448,-2.4359,-2.3471,-2.2936,-2.1684,-2.077,-2.0175,-2.042,-2.0566,-2.0566,0.0,0.0,-2.0566,-2.0566,-2.0469,-2.0332,-2.0498,-2.0469,-2.0332,-1.9612,-1.9283,-1.9362,-2.0245,-2.0566,-2.0469,-1.9697,-1.9844,-2.0273,0.0,0.0,0.0,0.0,0.0,0.0,0.0,-0.4072,-0.4215,-0.4819,-0.5259,-0.6057,-0.7381,-0.7698,-0.8085,-0.8854,-0.9336,-1.025,-1.1586,-1.1084,-1.0732,-1.0779,-0.958,-0.8779,-0.851,-0.2893,0.0,0.0,0.0,0.3748,1.1045,1.6174,1.9869,2.2268,2.2766,2.2005,2.0145,1.8012,1.6904,1.6468,1.5807,1.6367,1.779,1.9922,2.0367,1.9803,1.9393,1.9208,1.9058,1.7969,1.7617,1.7606,1.735,1.6571,1.5506,0.0,0.0,0.0,0.0,0.0,0.0,0.0,0.0,0.0,0.0,0.0,0.0,0.0,0.0,-1.2806,0.0,0.0,-1.8472,-1.9722,-2.1331,-2.2729,-2.3592,-2.3708,-2.4002,-2.4738,-2.4762,-2.4774,-2.5064,-2.5247,-2.5333,-2.5184,-2.5296,-2.5318,-2.5318,-2.4061,-2.2982,-2.2069,-2.1535,-2.0772,-1.9837,-2.0355,-2.0566,-2.0566,-2.0566,-2.0566,-2.0566,-2.0566,-2.0566,-2.0566,-2.0566,-2.0566,-2.0566,-2.0001,-1.9766,-1.9835,-2.0401,-2.0566,-2.0518,-2.0088,-2.0195,-2.0469,0.0,0.0,0.0,0.0,0.0,0.0,0.0,-0.4705,-0.4971,-0.5618,-0.6401,-0.7267,-0.83,-0.8612,-0.9083,-0.9909,-1.0595,-1.1786,-1.3588,-1.3374,-1.3353,-1.3721,-1.2564,-1.2714,-1.4261,-0.7932,-0.3976,-0.2665,-0.0859,0.0,0.0154,0.6834,1.1972,1.5603,1.5349,1.4646,1.3689,1.1945,1.1325,1.1633,1.2082,1.1606,1.1155,1.4953,1.6267,1.5962,1.5049,1.5031,1.5465,1.4907,1.4869,1.4925,1.4628,1.4298,1.3642,1.1498,1.0377,0.0,0.0,0.0,0.0,0.0,0.0,0.0,0.0,0.0,-0.7918,-1.0282,-1.1787,-1.3122,-1.4545,-1.6224,-1.7901,-1.9332,-2.0664,-2.1935,-2.2952,-2.3226,-2.353,-2.4171,-2.407,-2.4316,-2.5114,-2.5447,-2.5569,-2.548,-2.5187,-2.4933,-2.4707,-2.3745,-2.2502,-2.1111,-2.1511,-2.1029,-1.9541,-2.0225,-2.0566,-2.0566,-2.0566,-2.0566,-2.0566,-2.0566,-2.0566,-2.0566,-2.0566,-2.0479,-2.0323,-2.0479,-2.0479,-2.0323,-2.0489,-2.0566,-2.0566,-2.0566,-2.0566,-2.0566,0.0,0.0,0.0,0.0,0.0,0.0,0.0,0.0,0.0,-0.6994,-0.7563,-0.8525,-1.0129,-0.9898,-0.9918,-1.0606,-1.1312,-1.1997,-1.2686,-1.5103,-1.5782,-1.4277,-1.6768,-1.7389,-1.5661,-1.9203,-1.8207,-1.2256,-0.4012,0.0,0.0115,0.5497,0.7769,0.7435,0.9866,1.0527,0.9701,0.8422,0.9006,1.0568,0.9196,0.9192,0.9968,1.0103,1.1479,1.3253,1.2999,1.3033,1.3186,1.3076,1.2185,1.1178,1.1897,1.1098,0.9587,0.7996,0.0,0.5797,0.3679,0.1876,0.0,-0.2443,-0.3924,-0.5254,0.0,0.0,-1.1293,-1.2467,-1.4277,-1.6028,-1.7292,-1.8344,-1.9351,-2.0273,-2.1253,-2.2128,-2.2992,-2.3577,-2.3904,-2.4015,-2.4016,-2.4431,-2.5441,-2.5589,-2.545,-2.5097,-2.5052,-2.4636,-2.3745,-2.2702,-2.206,-2.188,-2.1171,-2.0663,-2.042,-2.0518,-2.0566,-2.0566,-2.0566,-2.0566,-2.0566,-2.0566,-2.0566,-2.0566,-2.0566,-2.0079,-1.9274,-2.0245,-2.0001,-1.9274,-2.0245,-2.0566,-2.0566,-2.0566,-2.0566,-2.0566,0.0,0.0,0.0,0.0,0.0,0.0,0.0,0.0,0.0,0.0,-0.9215,-1.0176,-1.1384,-1.1118,-1.0855,-1.0908,-1.1768,-1.3144,-1.505,-1.6558,-1.7712,-1.8441,-1.9905,-2.0857,-2.1192,-2.2554,-2.3047,-2.2589,-1.6326,-1.1367,-0.7644,-0.346,-0.0043,0.258,0.374,0.5097,0.6404,0.5343,0.535,0.6039,0.591,0.5798,0.5701,0.6029,0.681,0.7881,0.9161,0.9432,0.0,0.9596,0.8692,0.7583,0.848,0.7669,0.6132,0.465,0.3574,0.0,0.044,0.0,0.0,0.0,-0.6076,-0.7687,-0.9083,-1.0196,-1.1643,-1.3826,-1.4984,-1.6094,-1.7687,-1.8599,-1.923,0.0,-2.0854,-2.1764,-2.1985,-2.2635,-2.3353,-2.4049,-2.3498,-2.3426,-2.4092,-2.5335,-2.5438,-2.3685,-2.3909,-2.3661,-2.2702,-2.1745,-2.1155,-2.1155,-2.0779,-2.0566,-2.0566,-2.0566,-2.0566,-2.0566,-2.0566,-2.0566,-2.0566,-2.0566,-2.0245,-1.9678,-2.0323,-2.0001,-1.9116,-2.0157,-2.0323,-2.0001,-2.0401,-2.0566,-2.0566,-2.0566,-2.0566,-2.0566,0.0,0.0,0.0,0.0,0.0,0.0,0.0,0.0,0.0,0.0,-1.0887,-1.1801,-1.2512,-1.235,-1.2001,-1.1527,-1.2655,-1.4451,-1.6849,-1.8171,-1.9787,-2.1802,-2.2694,-2.3798,-2.5359,-2.4931,-2.5718,-2.7818,-2.3745,-1.8936,-1.3414,-0.9099,-0.4949,-0.1095,-0.0888,0.0808,0.3315,0.2587,0.2485,0.2929,0.3518,0.333,0.2743,0.34,0.3561,0.3618,0.5502,0.6075,0.5981,0.637,0.5498,0.4378,0.5308,0.4565,0.3066,0.1793,0.0517,-0.0777,-0.2107,0.0,0.0,-0.6183,-0.7527,-0.9179,-1.0719,-1.1454,-1.2506,-1.4743,-1.5587,-1.6376,-1.7725,-1.8366,-1.888,-1.9576,-2.0357,-2.1043,-2.1467,-2.2027,-2.2616,-2.337,-2.2706,-2.2131,-2.1872,-2.4131,-2.4847,-2.294,-2.2981,-2.2627,-2.1669,-2.0934,-2.0566,-2.0566,-2.0566,-2.0566,-2.0566,-2.0566,-2.0566,-2.0566,-2.0566,-2.0566,-2.0566,-2.0323,-1.9599,-1.855,-1.9353,-1.9441,-1.9036,-1.9844,-2.0323,-2.0566,-2.0566,-2.0566,-2.0566,-2.0566,-2.0566,-2.0566,0.0,0.0,0.0,0.0,0.0,0.0,0.0,0.0,0.0,0.0,0.0,0.0,0.0,-1.3631,-1.3384,-1.2789,-1.4259,-1.5744,-1.6936,-1.9995,-2.2148,-2.2926,-2.5118,-2.6251,-2.607,-2.8122,-2.785,-2.5123,-2.1095,-1.7337,-1.3855,-0.7517,-0.4315,-0.3824,-0.2973,-0.1523,0.0289,0.0141,0.1184,0.2924,0.2778,0.2746,0.2678,0.2743,0.2389,0.1963,0.2579,0.3364,0.4099,0.4076,0.289,0.1627,0.2826,0.1967,0.0,-0.0412,-0.2217,-0.3996,0.0,0.0,-0.5962,-0.8017,-0.857,-0.9234,-1.1721,-1.3715,-1.5076,-1.5163,-1.6655,-1.794,-1.8008,-1.7988,-1.8556,-2.0268,-1.9857,-2.0074,-2.2168,-2.2193,-2.1856,-2.1553,-2.1595,-2.0864,0.0,-2.1498,-2.3442,-2.3453,-2.2606,-2.1659,-2.0712,-2.0644,-2.0566,-2.0566,-2.0566,-2.0566,-2.0566,-2.0566,-2.0566,-2.0566,-2.0566,-2.0566,-2.0566,-1.952,-1.839,-1.7334,-1.7423,-1.7989,-1.9036,-1.9036,-1.9678,-2.0566,-2.0566,-2.0566,-2.0566,-2.0566,-2.0566,-2.0566,0.0,0.0,0.0,0.0,0.0,0.0,0.0,0.0,0.0,0.0,0.0,0.0,0.0,0.0,0.0,0.0,-1.4539,-1.5905,-1.8235,-1.9797,-2.1807,-2.4408,-2.6302,-2.7555,-2.8129,-2.8492,-2.7513,-2.5143,-2.1969,-1.8219,-1.3928,-1.0572,-0.7599,-0.5126,-0.4162,-0.2938,-0.1717,-0.109,-0.0814,-0.0745,-0.0201,-0.0334,-0.0865,-0.0641,-0.0686,-0.0788,0.0,0.0322,0.112,0.1507,0.0577,-0.0593,0.0439,-0.0387,-0.1934,-0.2669,-0.4138,-0.5524,-0.5361,0.0,-0.8038,-0.9446,-1.0441,-1.1278,-1.2084,-1.331,-1.4386,-1.5092,-1.5745,-1.6403,-1.7028,-1.7161,-1.74,-1.8325,-1.8687,-1.928,-2.06,-2.0164,-2.0264,-2.16,-2.0668,0.0,0.0,0.0,0.0,-2.0175,-2.1239,-2.1593,-2.0634,-2.0566,-2.0566,-2.0566,-2.0566,-2.0245,-1.952,-1.952,-1.9195,-1.839,-1.9195,-1.952,-1.952,-1.9195,-1.798,-1.6355,-1.7819,-1.823,-1.7989,-1.9432,-2.0245,-2.0566,-2.0566,-2.0566,-2.0566,-2.0566,-2.0566,-2.0566,0.0,0.0,0.0,0.0,0.0,0.0,0.0,0.0,0.0,0.0,0.0,0.0,0.0,0.0,0.0,0.0,0.0,-1.6835,-1.9308,-2.0093,-2.1726,-2.4478,-2.5941,-2.6878,-2.7269,-2.7262,-2.6055,-2.3572,-2.1587,-1.8469,-1.4253,-1.2138,-0.9644,-0.6927,-0.5674,-0.4349,-0.3145,-0.2544,-0.241,-0.2606,-0.19,-0.2016,-0.2518,-0.2191,-0.2169,0.0,-0.2182,-0.1873,-0.144,-0.067,-0.1223,-0.2166,-0.1687,-0.2678,-0.4227,-0.521,-0.6267,-0.7083,-0.7116,-0.8139,-0.9427,-1.032,-1.1137,-1.1916,-1.2659,-1.3528,-1.4522,-1.5517,-1.6034,-1.6384,-1.6854,-1.6778,-1.7021,-1.7926,-1.8155,-1.868,-2.0159,-1.9576,-1.9532,-2.0892,-1.9808,-1.9607,0.0,0.0,0.0,-1.925,-2.037,-2.0757,-2.0183,-2.0107,-2.0091,-1.9991,-2.0001,-1.952,-1.839,-1.839,-1.7989,-1.7342,-1.8069,-1.8221,-1.7819,-1.7819,-1.6709,-1.4887,-1.6579,-1.7185,-1.7121,-1.8752,-1.9923,-2.0566,-2.0566,-2.0566,-2.0566,-2.0566,-2.0566,-2.0566,0.0,0.0,0.0,0.0,0.0,0.0,0.0,0.0,0.0,0.0,0.0,0.0,0.0,0.0,0.0,0.0,0.0,0.0,-2.0008,-2.0924,-2.1989,-2.323,-2.4307,-2.4524,-2.3801,-2.4726,-2.3661,-2.0415,-1.985,-1.7893,-1.4585,-1.2078,-1.0251,-0.9035,-0.7416,-0.5745,-0.4175,-0.4045,-0.3581,-0.2774,-0.2438,-0.2323,-0.2308,-0.1999,-0.2302,-0.2768,-0.2763,-0.3161,-0.3496,-0.2322,0.0,0.0,-0.356,-0.4798,-0.6401,-0.7774,-0.8408,-0.8714,-0.8837,-0.9383,-1.0102,-1.0739,-1.0932,-1.1452,-1.3302,-1.4522,-1.55,-1.6374,-1.7269,-1.7773,0.0,0.0,-1.7139,-1.8913,-1.8172,-1.8228,-2.0731,-2.0326,-1.9678,0.0,0.0,0.0,0.0,0.0,0.0,-2.0582,0.0,-1.9355,-1.9355,-1.9282,-1.9183,-1.9018,-1.8957,-1.839,-1.7253,-1.7172,-1.7172,-1.7261,-1.7261,-1.6683,-1.5696,-1.5696,-1.4806,-1.3287,-1.3924,-1.5035,-1.6412,-1.7045,-1.855,-2.0401,-2.0401,-2.0489,-2.0489,-2.0489,-2.0557,-2.0566,0.0,0.0,0.0,0.0,0.0,0.0,0.0,0.0,0.0,0.0,0.0,0.0,0.0,0.0,0.0,0.0,0.0,0.0,-2.0038,-2.11,-2.2111,-2.305,-2.4062,-2.4257,-2.3519,-2.3085,-2.1137,-1.7615,-1.765,-1.5463,-1.1177,-1.1062,-1.0038,-0.8128,-0.7319,-0.6653,-0.6194,-0.5113,-0.4663,-0.4548,-0.384,-0.3707,-0.3871,-0.3661,-0.367,-0.3807,-0.3705,0.0,0.0,0.0,0.0,0.0,0.0,-0.6748,-0.8039,-0.7774,-0.857,-0.9536,-0.9354,-0.9939,-1.0771,-1.1662,-1.2425,-1.3077,-1.36,-1.5013,-1.612,-1.5743,-1.6111,-1.6328,0.0,0.0,0.0,-1.7551,-1.7086,0.0,-1.8993,-1.8823,0.0,-1.8779,0.0,-1.9336,-1.9863,-2.001,0.0,0.0,-2.0023,-2.0244,-2.0244,-1.9523,-1.9063,-1.9027,-1.8149,-1.7172,-1.6108,-1.5304,-1.5304,-1.6108,-1.6108,-1.5944,-1.5696,-1.5696,-1.5051,-1.3951,-1.4906,-1.5524,-1.5936,-1.6936,-1.7658,-1.8141,-1.8141,-1.863,-1.9441,-1.9441,-1.9923,-2.0566,0.0,0.0,0.0,0.0,0.0,0.0,0.0,0.0,0.0,0.0,0.0,0.0,0.0,0.0,0.0,0.0,0.0,0.0,0.0,-2.0719,-2.1344,-2.1715,-2.2101,-2.1958,-2.1185,-2.0884,-1.9225,-1.6163,-1.6528,-1.4898,-1.1509,-1.1379,-1.0463,-0.8865,-0.7964,-0.734,-0.6919,-0.5905,-0.5538,0.0,0.0,-0.5091,-0.5247,-0.5118,-0.5052,-0.509,0.0,0.0,0.0,0.0,0.0,-0.6407,-0.748,-0.8483,-0.9223,-0.9496,0.0,-1.0566,-1.0716,-1.1075,-1.1687,-1.2659,-1.331,-1.3807,-1.4274,-1.5232,-1.5894,-1.5411,-1.5779,0.0,-1.5186,0.0,0.0,0.0,0.0,0.0,-1.8447,-1.8437,-1.8379,0.0,-1.8857,0.0,-2.0469,-2.0566,-2.0371,0.0,-1.9941,-2.0,-2.0,-1.8991,-1.8362,-1.8301,-1.7172,-1.6116,-1.4977,-1.4412,-1.4412,-1.4977,-1.4977,-1.4977,-1.4977,-1.4977,-1.4504,-1.3714,0.0,-1.5136,-1.5373,-1.623,-1.6846,-1.7342,-1.7342,-1.7666,-1.831,-1.8798,-1.9362,-2.0001,0.0,0.0,0.0,0.0,0.0,0.0,0.0,0.0,0.0,0.0,0.0,0.0,0.0,0.0,0.0,0.0,0.0,0.0,0.0,0.0,0.0,-2.0379,-1.987,-1.9208,-1.8351,-1.8633,-1.7713,-1.5527,-1.5893,-1.5181,-1.3503,-1.2206,-1.1173,-1.0344,-0.8976,-0.7922,-0.72,-0.6639,-0.6347,-0.6279,-0.6319,-0.6248,-0.6182,0.0,0.0,0.0,0.0,0.0,0.0,0.0,-0.6993,-0.6901,-0.9046,-0.9812,-1.0214,-1.1737,-1.1877,-1.1637,-1.2071,-1.2311,-1.2666,-1.3528,-1.3882,-1.4301,-1.523,-1.5467,-1.5486,-1.5409,0.0,-1.5859,-1.5488,-1.5508,-1.6123,-1.7744,0.0,-1.7637,-1.8135,-1.8506,-1.8643,-1.8408,-1.8584,-1.9209,-2.0439,-2.0459,-2.0439,-2.0557,-1.9798,-1.9232,-1.9232,-1.8238,-1.7398,-1.6911,-1.5951,-1.5054,-1.4088,-1.4088,-1.4088,-1.4088,-1.4088,-1.4088,-1.4088,-1.4088,-1.3808,-1.3353,-1.3861,-1.4351,-1.4739,-1.5309,-1.6034,-1.6854,-1.6854,-1.696,-1.7245,-1.8218,-1.8709,-1.8958,0.0,0.0,0.0,0.0,0.0,0.0,0.0,0.0,0.0,0.0,-1.6561,-1.7948,0.0,0.0,0.0,0.0,0.0,0.0,0.0,0.0,0.0,0.0,-2.073,-1.9632,-1.85,-1.7617,-1.6537,-1.5191,-1.4952,-1.4232,-1.3168,-1.2222,-1.147,-1.0815,-0.9308,-0.8563,-0.8364,-0.7575,-0.6993,-0.6537,-0.6846,-0.6666,-0.6237,0.0,0.0,0.0,0.0,0.0,0.0,0.0,-0.8594,-0.8575,-0.9669,-1.0522,-1.1182,-1.149,-1.185,-1.2064,-1.1683,-1.2494,-1.3528,-1.3673,-1.4887,-1.6131,-1.6327,-1.6412,0.0,0.0,-1.5469,-1.5498,-1.543,-1.6006,0.0,-1.7842,0.0,0.0,0.0,0.0,-1.8643,0.0,0.0,0.0,0.0,0.0,0.0,0.0,-1.9625,-1.9072,-1.9072,-1.7951,-1.6563,-1.4734,-1.4496,-1.425,-1.4088,-1.4088,-1.4088,-1.4088,-1.4088,-1.4088,-1.4088,-1.4088,-1.4035,-1.3941,-1.4041,0.0,-1.4268,-1.4371,-1.4496,-1.4657,-1.4657,-1.5303,-1.6346,-1.6515,-1.7195,-1.8037,0.0,0.0,0.0,0.0,0.0,0.0,0.0,-1.5742,-1.6032,-1.5754,-1.646,-1.7467,-1.8727,-1.9465,-1.9963,0.0,0.0,0.0,0.0,0.0,0.0,0.0,0.0,0.0,0.0,-1.8643,0.0,0.0,0.0,0.0,0.0,0.0,0.0,0.0,0.0,-1.0074,-0.9761,-0.9056,-0.858,-0.833,-0.829,-0.8116,0.0,0.0,0.0,0.0,0.0,0.0,0.0,0.0,-0.8824,-0.8858,-1.0295,-1.1073,-1.1423,-1.1423,-1.1844,-1.2244,-1.2199,-1.2551,-1.3237,-1.4243,-1.5163,-1.5739,-1.5334,0.0,0.0,0.0,-1.46,-1.4814,-1.5049,0.0,0.0,0.0,0.0,0.0,0.0,0.0,0.0,0.0,0.0,0.0,0.0,0.0,0.0,0.0,0.0,-1.8524,-1.9018,-1.7415,-1.5711,-1.4173,-1.4088,-1.4088,-1.4088,-1.4088,-1.4088,-1.4088,-1.4088,-1.4088,-1.4088,-1.4088,-1.4088,-1.4088,-1.4088,-1.3915,-1.3654,-1.3961,-1.3995,-1.3888,-1.4195,-1.4829,-1.5595,-1.6191,-1.6703,-1.7282,0.0,0.0,0.0,0.0,0.0,0.0,0.0,-1.6153,-1.6277,-1.5988,-1.6396,-1.7044,-1.7918,-1.9233,-2.0188,0.0,0.0,0.0,0.0,0.0,0.0,0.0,0.0,0.0,0.0,0.0,0.0,0.0,0.0,0.0,0.0,0.0,0.0,0.0,0.0,0.0,0.0,-1.0452,-1.0123,0.0,0.0,0.0,0.0,0.0,0.0,0.0,0.0,0.0,0.0,0.0,-0.8704,-0.8771,-1.0508,-1.1049,-1.1102,-1.1356,-1.1757,-1.2182,-1.2673,-1.2657,-1.3018,-1.4736,-1.5376,-1.5308,-1.4728,-1.4996,0.0,0.0,-1.3906,-1.4297,-1.4824,0.0,0.0,0.0,0.0,0.0,0.0,0.0,0.0,0.0,0.0,0.0,0.0,0.0,0.0,0.0,0.0,-1.7596,-1.8275,-1.6437,-1.4977,-1.4173,-1.4088,-1.4088,-1.4088,-1.4088,-1.4088,-1.4088,-1.4088,-1.4088,-1.4088,-1.4088,-1.4088,-1.4088,-1.4088,-1.3754,-1.3253,-1.3848,-1.3874,-1.3614,-1.4262,-1.4703,-1.5149,-1.5981,-1.6308,-1.6389,0.0,0.0,0.0,0.0,0.0,0.0,0.0,-1.8056,-1.7793,-1.5497,-1.6633,-1.7435,-1.6833,-1.8223,-1.9848,0.0,0.0,0.0,0.0,0.0,0.0,0.0,0.0,0.0,0.0,0.0,0.0,0.0,0.0,0.0,0.0,0.0,0.0,0.0,0.0,0.0,0.0,0.0,0.0,0.0,0.0,0.0,0.0,0.0,0.0,0.0,0.0,0.0,0.0,0.0,0.0,-0.8898,-0.9619,-0.9846,-1.0053,-1.1116,0.0,0.0,-1.2236,-1.2983,-1.381,-1.495,-1.586,-1.6487,-1.6424,0.0,0.0,-1.4204,-1.4048,-1.4385,-1.5205,-1.6045,-1.6914,0.0,0.0,-1.7002,0.0,0.0,0.0,0.0,0.0,0.0,0.0,0.0,0.0,0.0,-1.6984,-1.5883,-1.6018,-1.4894,-1.4166,-1.4088,-1.4088,-1.4088,-1.4088,-1.4088,-1.4088,-1.4088,-1.4088,-1.4088,-1.4088,-1.4088,-1.4088,-1.4088,-1.4088,-1.3754,0.0,-1.3848,-1.3761,-1.3333,-1.4188,-1.4703,-1.5087,-1.5342,-1.5366,-1.5136,0.0,0.0,0.0,0.0,0.0,0.0,-1.839,-1.8171,-1.7572,-1.6017,-1.6101,-1.6367,-1.658,-1.7656,-1.9062,-2.0778,0.0,0.0,0.0,0.0,0.0,0.0,0.0,0.0,0.0,0.0,0.0,-2.0312,0.0,0.0,0.0,0.0,0.0,0.0,0.0,0.0,0.0,0.0,0.0,0.0,0.0,0.0,0.0,0.0,0.0,0.0,0.0,0.0,0.0,0.0,0.0,0.0,-0.933,-0.9256,0.0,0.0,-1.067,-1.1533,-1.2002,-1.2862,-1.3954,-1.495,-1.5939,-1.6301,-1.5293,0.0,-1.5098,-1.3984,-1.3902,-1.4262,-1.4922,-1.5527,-1.6221,-1.71,0.0,0.0,0.0,0.0,0.0,0.0,0.0,0.0,0.0,0.0,0.0,0.0,-1.4961,-1.4342,-1.4713,-1.4328,-1.4088,-1.4088,-1.4088,-1.4088,-1.4088,-1.4088,-1.4088,-1.4088,-1.4088,-1.4088,-1.4088,-1.4088,-1.4088,-1.4088,-1.4088,-1.3547,0.0,-1.3694,-1.3641,-1.3053,-1.4108,-1.481,-1.5217,-1.5157,-1.517,-1.517,0.0,0.0,0.0,0.0,0.0,-1.9763,-1.888,-1.8355,-1.7732,-1.6854,-1.6132,-1.5924,-1.6534,-1.7316,-1.8387,-1.9807,-2.1478,0.0,0.0,0.0,0.0,0.0,0.0,0.0,0.0,0.0,-2.1876,-2.1253,-2.0906,-2.0192,0.0,0.0,0.0,0.0,0.0,0.0,0.0,0.0,0.0,0.0,0.0,0.0,0.0,0.0,0.0,0.0,0.0,0.0,0.0,0.0,0.0,0.0,0.0,0.0,0.0,0.0,-1.0343,-1.1375,-1.2322,-1.3149,-1.4027,-1.5296,-1.5992,-1.6075,0.0,0.0,-1.501,-1.3613,-1.3857,-1.4385,-1.4561,-1.5049,-1.5703,-1.6592,0.0,-1.7197,0.0,0.0,0.0,0.0,0.0,0.0,0.0,0.0,0.0,0.0,-1.3783,-1.3647,-1.4068,-1.4088,-1.4088,-1.4088,-1.4088,-1.4088,-1.4088,-1.4088,-1.4088,-1.4088,-1.4088,-1.3995,-1.3834,-1.4008,-1.3995,-1.3841,-1.4008,-1.3514,0.0,-1.3667,-1.3621,-1.3013,-1.4102,-1.477,-1.5124,-1.5003,-1.5037,-1.5077,0.0,0.0,0.0,0.0,0.0,0.0,-1.9041,-1.8994,-1.877,-1.7895,-1.7087,-1.6578,-1.6598,-1.7205,-1.7937,-1.8753,-2.0408,0.0,0.0,0.0,0.0,0.0,0.0,0.0,0.0,0.0,-2.1709,-2.0496,-2.0162,-1.9402,-1.8192,-1.7876,-1.7419,0.0,0.0,0.0,0.0,0.0,0.0,0.0,0.0,0.0,0.0,0.0,0.0,0.0,0.0,0.0,0.0,0.0,0.0,0.0,0.0,0.0,0.0,0.0,-1.0622,-1.1072,-1.3296,-1.3785,-1.4171,-1.607,-1.626,-1.5796,0.0,0.0,-1.4932,-1.3232,-1.3896,-1.4648,-1.4165,-1.4834,-1.5703,-1.6592,-1.6665,0.0,0.0,0.0,0.0,0.0,0.0,0.0,0.0,0.0,0.0,-1.4159,-1.4075,0.0,-1.4088,-1.4088,-1.4088,-1.4088,-1.4088,-1.4088,-1.4088,-1.4088,-1.4088,-1.4088,-1.4088,-1.3781,-1.324,-1.3821,-1.3768,-1.3253,-1.3834,-1.3748,0.0,-1.3841,-1.3741,-1.3293,-1.4175,-1.4522,-1.4563,-1.4856,-1.4776,-1.4529,0.0,0.0,0.0,0.0,0.0,0.0,0.0,-1.9437,-1.8984,-1.8665,-1.7882,-1.7317,-1.7237,-1.7943,-1.8479,-1.8575,-2.0176,0.0,0.0,0.0,0.0,0.0,0.0,0.0,0.0,0.0,-2.0814,-2.0416,-1.992,-1.9317,-1.8675,-1.8346,-1.7717,-1.6904,-1.6689,0.0,0.0,0.0,0.0,0.0,0.0,0.0,0.0,0.0,0.0,0.0,0.0,0.0,0.0,0.0,0.0,0.0,0.0,0.0,0.0,-1.1333,0.0,0.0,-1.2626,-1.3639,-1.4456,-1.4764,-1.5173,-1.546,-1.5079,-1.4756,-1.4307,-1.3477,-1.3857,-1.4297,-1.4107,-1.4834,-1.5703,-1.6592,-1.6665,0.0,0.0,0.0,0.0,0.0,0.0,0.0,0.0,0.0,0.0,-1.4055,-1.3714,-1.3661,-1.4068,-1.4088,-1.4088,-1.4088,-1.4088,-1.4088,-1.4088,-1.4088,-1.4088,-1.4088,-1.4088,-1.3781,-1.3227,-1.3821,-1.3768,-1.324,-1.3834,-1.3754,-1.3253,-1.3848,-1.3741,-1.328,-1.3961,-1.4349,-1.4502,-1.4402,-1.4429,-1.4489,0.0,0.0,0.0,0.0,0.0,0.0,0.0,-1.9437,-1.9202,-1.9164,-1.8486,-1.7981,-1.789,-1.8324,-1.8564,-1.8432,-1.9645,0.0,0.0,0.0,0.0,0.0,0.0,0.0,0.0,-2.0598,-2.0205,-1.9836,-1.8968,-1.83,-1.7856,-1.7061,-1.6516,-1.6241,-1.6145,-1.5974,0.0,0.0,0.0,0.0,0.0,0.0,-1.2006,0.0,0.0,0.0,0.0,0.0,0.0,0.0,0.0,0.0,0.0,0.0,0.0,0.0,-1.2612,0.0,0.0,-1.4072,-1.4683,-1.4805,-1.5105,0.0,0.0,-1.457,-1.4258,-1.3828,-1.4336,-1.4766,-1.4443,-1.5215,-1.5977,-1.6201,-1.645,0.0,0.0,0.0,0.0,0.0,0.0,0.0,0.0,0.0,-1.3694,-1.4055,-1.3748,-1.3701,-1.4068,-1.4088,-1.4088,-1.4088,-1.4088,-1.4088,-1.4088,-1.4088,-1.4088,-1.4088,-1.4088,-1.3781,-1.3227,-1.3821,-1.3768,-1.324,-1.3834,-1.3881,0.0,-1.3941,-1.3874,-1.3581,-1.3941,-1.4202,-1.4335,-1.4155,-1.4202,-1.4335,0.0,0.0,0.0,0.0,0.0,0.0,0.0,-1.9166,-1.9404,-1.9436,-1.8938,-1.8587,-1.8576,-1.8485,-1.8384,-1.8371,0.0,0.0,0.0,0.0,0.0,0.0,0.0,0.0,-2.0304,-2.0258,-1.9791,-1.8856,-1.7511,-1.6646,-1.618,-1.4581,-1.4318,-1.5186,-1.4902,-1.4903,-1.5013,-1.4246,-1.3387,-1.2508,-1.2029,-1.1779,0.0,0.0,0.0,0.0,0.0,0.0,0.0,0.0,0.0,0.0,0.0,0.0,0.0,0.0,0.0,0.0,0.0,0.0,0.0,0.0,0.0,0.0,0.0,-1.4697,0.0,-1.4277,-1.5176,-1.5781,-1.4963,-1.5877,-1.6471,-1.5585,-1.5965,0.0,0.0,0.0,0.0,0.0,0.0,0.0,0.0,0.0,-1.4088,-1.4088,-1.4088,-1.4088,-1.4088,-1.4088,-1.4088,-1.4088,-1.4088,-1.4088,-1.4088,-1.4088,-1.4068,-1.4028,-1.4068,-1.3754,-1.3166,-1.3801,-1.3768,0.0,-1.3834,-1.4088,-1.4088,-1.4088,-1.4088,-1.4088,-1.4088,-1.4088,-1.4088,-1.4088,-1.4088,-1.4088,0.0,0.0,0.0,0.0,0.0,0.0,0.0,0.0,0.0,0.0,-1.9578,-1.9449,-1.9363,-1.9311,-1.923,0.0,0.0,0.0,0.0,0.0,0.0,0.0,0.0,0.0,-1.9306,-1.8933,-1.8594,-1.8362,-1.7025,-1.6315,-1.618,-1.4758,-1.4504,-1.5186,-1.4902,-1.4732,-1.4627,-1.4438,-1.3868,-1.2978,-1.2508,-1.2098,0.0,0.0,0.0,0.0,-1.145,-1.1856,0.0,0.0,0.0,0.0,0.0,0.0,0.0,0.0,-1.3541,-1.3552,-1.5023,0.0,-1.4716,-1.4612,-1.4268,-1.4014,0.0,-1.3789,-1.3672,0.0,0.0,0.0,-1.4944,-1.6434,-1.7214,-1.5696,-1.6145,0.0,0.0,0.0,0.0,0.0,0.0,0.0,0.0,0.0,-1.4088,-1.4088,-1.4088,-1.4088,-1.4088,-1.4088,-1.4088,-1.4088,-1.4088,-1.4088,-1.4088,-1.4088,-1.3861,-1.342,-1.3874,-1.3534,-1.2552,-1.3607,-1.3768,-1.324,-1.3834,-1.4088,-1.4088,-1.4088,-1.4088,-1.4088,-1.4088,-1.4088,-1.4088,-1.4088,-1.4088,-1.4088,0.0,0.0,0.0,0.0,0.0,0.0,0.0,0.0,0.0,0.0,0.0,0.0,0.0,0.0,0.0,0.0,0.0,0.0,0.0,0.0,0.0,0.0,0.0,-1.8789,-1.8807,-1.8079,-1.7648,-1.7504,-1.5984,-1.5296,-1.54,-1.4085,-1.4072,-1.5161,-1.5386,-1.521,-1.4783,-1.4783,-1.4278,-1.348,-1.2998,0.0,0.0,0.0,0.0,0.0,-1.1535,-1.1846,0.0,-1.2734,-1.2403,-1.1922,0.0,0.0,0.0,0.0,-1.3863,-1.378,-1.4828,-1.4814,-1.4521,-1.4678,-1.4111,-1.3672,-1.4287,0.0,0.0,0.0,0.0,0.0,0.0,0.0,0.0,0.0,-1.5158,0.0,0.0,0.0,0.0,0.0,0.0,0.0,0.0,-1.3748,-1.4088,-1.4088,-1.4088,-1.4088,-1.4088,-1.4088,-1.4088,-1.4088,-1.4088,-1.4088,-1.4088,-1.4088,-1.3794,-1.322,-1.3808,-1.3607,-1.2746,-1.3667,-1.3915,-1.3614,-1.3667,-1.3841,-1.4068,-1.3794,-1.3841,-1.4088,-1.4088,-1.4088,-1.4088,-1.4088,-1.4088,-1.4088,0.0,0.0,0.0,0.0,0.0,0.0,0.0,0.0,0.0,0.0,0.0,0.0,0.0,0.0,0.0,0.0,0.0,0.0,0.0,0.0,0.0,0.0,0.0,-1.8717,-1.837,-1.7613,-1.6996,-1.6529,-1.5064,-1.4393,-1.4477,-1.3233,-1.3484,-1.4995,-1.5738,-1.5706,-1.5104,-1.5104,-1.4627,-1.3855,-1.3403,0.0,0.0,0.0,0.0,0.0,0.0,0.0,0.0,-1.2715,-1.2501,-1.208,-1.2715,0.0,0.0,0.0,0.0,0.0,-1.4629,-1.4369,-1.4096,-1.5128,-1.4453,-1.373,-1.459,0.0,0.0,0.0,0.0,0.0,0.0,0.0,0.0,0.0,0.0,0.0,0.0,0.0,0.0,0.0,0.0,0.0,-1.3173,-1.3748,-1.4088,-1.4088,-1.4088,-1.4088,-1.4088,-1.4088,-1.4088,-1.4088,-1.4088,-1.4088,-1.4088,-1.4088,-1.3794,-1.322,-1.3808,-1.3781,-1.3227,-1.3821,-1.4088,-1.4055,0.0,0.0,-1.4048,-1.3547,-1.3641,-1.4088,-1.4088,-1.4088,-1.4088,-1.4088,-1.4088,-1.4088,0.0,0.0,0.0,0.0,0.0,0.0,0.0,0.0,0.0,0.0,0.0,0.0,0.0,0.0,0.0,0.0,0.0,0.0,0.0,0.0,0.0,-1.9035,-1.8585,-1.7997,-1.7335,-1.7569,-1.7059,-1.5764,-1.5488,-1.5066,-1.4477,-1.3433,-1.344,-1.4358,-1.481,-1.5062,-1.5104,-1.5104,-1.4627,-1.3888,-1.3822,0.0,0.0,0.0,0.0,0.0,0.0,0.0,0.0,-1.2655,-1.2822,-1.2764,-1.2871,0.0,0.0,0.0,0.0,0.0,-1.4473,-1.3812,-1.319,-1.4936,-1.4453,-1.373,-1.459,0.0,0.0,0.0,0.0,0.0,0.0,0.0,0.0,0.0,0.0,0.0,0.0,0.0,0.0,0.0,0.0,-1.3654,-1.3253,-1.3748,-1.4088,-1.4088,-1.4088,-1.4088,-1.4088,-1.4088,-1.4088,-1.4088,-1.4088,-1.4088,-1.4088,-1.4088,-1.3794,-1.322,-1.3808,-1.3781,-1.3227,-1.3821,-1.4088,-1.4082,0.0,-1.4001,-1.4082,-1.3988,-1.4008,-1.4088,-1.4088,-1.4088,-1.4088,-1.4088,-1.4088,-1.4088,0.0,0.0,0.0,0.0,0.0,0.0,0.0,0.0,0.0,0.0,0.0,0.0,0.0,0.0,0.0,0.0,0.0,0.0,0.0,0.0,0.0,-1.7985,-1.8124,-1.7844,-1.712,-1.6792,-1.6086,-1.502,-1.4597,-1.4225,-1.3921,-1.4048,-1.4244,-1.4444,-1.5268,-1.5568,-1.5448,-1.5195,-1.4752,-1.4214,0.0,0.0,0.0,0.0,0.0,0.0,0.0,0.0,0.0,0.0,-1.2881,-1.2881,-1.2881,0.0,0.0,0.0,0.0,0.0,-1.3762,-1.3044,-1.2395,-1.4206,-1.3314,-1.2597,-1.4619,0.0,0.0,0.0,0.0,0.0,0.0,0.0,0.0,0.0,0.0,0.0,0.0,0.0,0.0,0.0,0.0,-1.3507,-1.324,-1.3748,-1.4088,-1.4088,-1.4088,-1.4088,-1.4088,-1.4088,-1.4088,-1.4088,-1.4088,-1.4088,-1.4088,-1.4088,-1.3794,-1.322,-1.3808,-1.3781,-1.3227,-1.3821,-1.4088,-1.4068,0.0,-1.3794,-1.4062,-1.3748,-1.3801,-1.4088,-1.4088,-1.4088,-1.4088,-1.4088,-1.4088,-1.4088,0.0,0.0,0.0,0.0,0.0,0.0,0.0,0.0,0.0,0.0,0.0,0.0,0.0,0.0,0.0,0.0,0.0,0.0,0.0,0.0,-1.7989,-1.7458,-1.7703,-1.7417,-1.6505,-1.6147,-1.5401,-1.4242,-1.3853,-1.3583,-1.3413,-1.4338,-1.4697,-1.4646,-1.5552,-1.5887,-1.577,-1.5299,-1.4876,-1.447,0.0,0.0,0.0,0.0,0.0,0.0,0.0,0.0,0.0,0.0,0.0,0.0,0.0,0.0,0.0,-1.3076,-1.2506,-1.1826,-1.3118,-1.2416,-1.1741,-1.3367,0.0,-1.1542,-1.4336,0.0,0.0,0.0,0.0,0.0,0.0,0.0,0.0,0.0,0.0,0.0,0.0,0.0,0.0,-1.3414,-1.3414,-1.3414,-1.3414,-1.3821,-1.4088,-1.4088,-1.4088,-1.4088,-1.4088,-1.4088,-1.4088,-1.4088,-1.4088,-1.4088,-1.4088,-1.3822,-1.3598,-1.342,-1.3605,-1.3592,-1.3434,-1.3618,-1.3822,-1.4062,-1.3614,-1.3667,-1.4048,-1.3601,-1.3681,-1.4088,-1.4088,-1.4088,-1.4088,-1.4088,-1.4088,-1.4088,0.0,0.0,0.0,0.0,0.0,0.0,0.0,0.0,0.0,0.0,0.0,0.0,0.0,0.0,0.0,0.0,0.0,0.0,0.0,0.0,-1.8293,-1.8478,-1.7417,-1.6143,-1.4717,-1.619,-1.5847,-1.3481,-1.4107,-1.4073,-1.3396,-1.3616,-1.4036,-1.4607,-1.4816,-1.5257,-1.577,-1.5299,-1.4876,-1.447,-1.4052,0.0,0.0,0.0,0.0,0.0,0.0,0.0,0.0,0.0,0.0,0.0,0.0,0.0,-1.126,-1.2549,-1.1884,-1.1086,-1.3015,-1.2208,-1.1242,-1.2797,-1.1982,0.0,-1.3523,-1.3201,0.0,-1.4643,0.0,0.0,0.0,0.0,0.0,0.0,0.0,0.0,0.0,0.0,-1.4028,-1.4028,-1.4028,-1.4028,-1.4028,-1.4062,-1.4088,-1.4088,-1.4088,-1.4088,-1.4088,-1.4088,-1.4088,-1.4088,-1.4088,-1.4088,-1.4088,-1.3027,-1.3008,-1.4021,-1.2923,-1.3008,-1.4021,-1.2923,-1.3033,-1.4082,-1.4041,-1.4048,-1.4082,-1.4041,-1.4048,-1.4088,-1.4088,-1.4088,-1.4088,-1.4088,-1.4088,-1.4088,0.0,0.0,0.0,0.0,0.0,0.0,0.0,0.0,0.0,0.0,0.0,0.0,0.0,0.0,0.0,0.0,0.0,0.0,0.0,-1.8113,-1.8041,-1.7691,-1.7809,-1.7026,-1.5223,-1.5388,-1.4792,-1.3396,-1.3684,-1.3799,-1.3781,-1.4068,-1.4498,-1.5003,-1.5288,-1.5559,-1.5741,-1.5043,-1.4627,-1.4438,-1.3735,-1.3173,0.0,0.0,0.0,0.0,0.0,0.0,0.0,0.0,-1.2549,-1.2539,-1.1992,-1.1582,-1.1465,-1.2246,-1.1574,-1.0858,-1.2101,-1.1327,-1.0483,-1.1829,-1.0821,0.0,0.0,0.0,0.0,0.0,0.0,0.0,0.0,0.0,0.0,0.0,0.0,0.0,0.0,-1.4088,-1.4088,-1.4088,-1.4088,-1.4088,-1.4088,-1.4088,-1.4088,-1.4088,-1.4088,-1.4088,-1.4088,-1.4088,-1.4088,-1.4088,-1.3379,-1.2942,-1.2942,-1.1815,-1.1472,-1.1912,-1.1472,-1.1472,-1.1912,-1.1472,-1.1901,-1.2942,-1.2942,-1.3379,-1.4088,-1.4088,-1.4088,-1.4088,-1.4088,-1.4088,-1.4088,-1.4088,-1.4088,-1.4088,0.0,0.0,0.0,0.0,0.0,0.0,0.0,0.0,0.0,0.0,0.0,0.0,0.0,0.0,0.0,0.0,0.0,0.0,-1.7861,-1.8069,-1.8006,-1.7602,-1.7923,-1.7371,-1.5767,-1.5143,-1.4597,-1.4091,-1.4091,-1.418,-1.4349,-1.4764,-1.5025,-1.5222,-1.5611,-1.5799,-1.5741,-1.4876,-1.4501,-1.4452,-1.3741,-1.3307,0.0,0.0,0.0,0.0,0.0,0.0,0.0,0.0,-1.2246,-1.2148,-1.1553,-1.14,-1.1402,-1.1614,-1.1104,-1.0615,-1.1291,-1.0661,-1.003,0.0,0.0,0.0,0.0,0.0,0.0,0.0,0.0,0.0,0.0,0.0,0.0,0.0,0.0,0.0,0.0,-1.4088,-1.4088,-1.4088,-1.4088,-1.4088,-1.4088,-1.4088,-1.4088,-1.4088,-1.4088,-1.4088,-1.4088,-1.373,-1.3555,-1.3555,-1.2419,-1.1724,-1.1724,-1.0611,-1.0096,-1.0096,-0.9657,-0.9918,-1.0611,-1.0269,-1.0697,-1.1724,-1.1724,-1.2419,-1.3555,-1.3555,-1.3737,-1.4088,-1.4088,-1.4088,-1.4088,-1.4088,-1.4088,-1.4088,0.0,0.0,0.0,0.0,0.0,0.0,0.0,0.0,0.0,0.0,0.0,0.0,0.0,0.0,0.0,0.0,0.0,0.0,-1.7136,-1.7812,-1.831,-1.8585,-1.7656,-1.6756,-1.6045,-1.5767,-1.5612,-1.5595,-1.5595,-1.5419,-1.5112,-1.5501,-1.5524,-1.5232,-1.5624,-1.5799,-1.5741,-1.489,-1.4515,-1.4461,-1.4201,-1.4085,-1.4099,0.0,0.0,0.0,0.0,0.0,0.0,0.0,-1.1641,-1.0918,-1.0908,-1.0908,-1.0871,-1.0684,-1.0432,-1.0319,-1.068,-1.032,0.0,0.0,0.0,0.0,0.0,0.0,0.0,0.0,0.0,0.0,-1.33,0.0,0.0,-1.316,-1.2953,-1.3144,-1.3961,-1.4088,-1.4088,-1.4088,-1.4088,-1.4088,-1.4088,-1.4088,-1.4088,-1.4088,-1.4088,-1.4088,-1.4088,-1.2942,-1.2237,-1.2237,-1.1209,-1.0611,-1.0611,-0.9492,-0.889,-0.889,-0.7665,-0.8356,-1.0524,-0.9405,-0.9492,-1.0611,-1.0611,-1.1209,-1.2237,-1.2237,-1.3027,-1.4088,-1.4088,-1.4088,-1.4088,-1.4088,-1.4088,-1.4088,0.0,0.0,0.0,0.0,0.0,0.0,0.0,0.0,0.0,0.0,0.0,0.0,0.0,0.0,0.0,0.0,0.0,0.0,-1.8136,-1.8188,-1.831,-1.8585,-1.8124,-1.7693,-1.7279,-1.7194,-1.629,-1.4555,-1.5031,-1.5096,-1.4815,-1.4703,-1.5112,-1.598,-1.5836,-1.561,-1.5313,-1.5646,-1.5319,-1.4626,-1.4262,-1.3853,-1.3531,0.0,0.0,0.0,0.0,0.0,0.0,0.0,0.0,0.0,-1.0654,-1.0879,-1.1373,-1.1226,-1.1372,-1.1463,-1.087,0.0,0.0,0.0,0.0,0.0,0.0,0.0,0.0,0.0,0.0,0.0,0.0,0.0,0.0,-1.2973,-1.3333,-1.3781,-1.4048,-1.4088,-1.4088,-1.4088,-1.4088,-1.4088,-1.4088,-1.4088,-1.3737,-1.2942,-1.2851,-1.2504,-1.1649,-1.13,-1.1123,-1.1123,-1.0009,-0.9405,-0.9405,-0.8189,-0.7665,-0.7665,-0.7316,-0.7489,-0.8097,-0.7753,-0.8273,-0.9405,-0.9405,-1.0009,-1.1123,-1.1123,-1.1815,-1.2851,-1.2851,-1.3379,-1.4088,-1.4088,-1.4088,-1.4088,0.0,0.0,0.0,0.0,0.0,0.0,0.0,0.0,0.0,0.0,0.0,0.0,0.0,0.0,0.0,0.0,0.0,0.0,0.0,-1.8391,-1.8391,-1.843,-1.829,-1.8061,-1.7811,-1.7507,-1.6507,-1.4782,-1.5416,-1.5605,-1.5318,-1.468,-1.4854,-1.5698,-1.5493,-1.5152,-1.4744,-1.5329,-1.5236,-1.4655,-1.4023,-1.3715,-1.3617,0.0,0.0,0.0,0.0,0.0,0.0,0.0,0.0,0.0,-1.0489,-1.0883,-1.1445,-1.0933,-1.1121,-1.1276,-1.0661,0.0,0.0,0.0,0.0,0.0,0.0,0.0,0.0,0.0,0.0,0.0,0.0,-1.336,0.0,-1.3367,-1.3734,-1.4088,-1.4088,-1.4088,-1.4088,-1.4088,-1.4088,-1.4088,-1.4088,-1.3646,-1.3118,-1.2328,-1.1895,-1.1295,-1.0611,-1.0183,-0.9923,-0.9923,-0.8798,-0.8189,-0.8189,-0.7489,-0.7139,-0.7139,-0.7139,-0.7139,-0.7139,-0.7139,-0.7489,-0.8189,-0.8715,-0.9323,-0.9923,-1.0438,-1.1037,-1.1643,-1.2151,-1.2766,-1.347,-1.3913,-1.4088,-1.4088,0.0,0.0,0.0,0.0,0.0,0.0,0.0,0.0,0.0,0.0,0.0,0.0,0.0,0.0,0.0,0.0,0.0,0.0,0.0,0.0,-1.843,-1.8208,-1.8166,-1.8035,-1.7749,-1.7113,-1.6464,-1.5847,-1.642,-1.6551,-1.6177,-1.5129,-1.4747,-1.5016,-1.4827,-1.4537,-1.4241,-1.4485,-1.4614,-1.455,-1.3729,-1.3631,-1.3907,-1.3443,0.0,0.0,0.0,0.0,0.0,0.0,0.0,0.0,-1.0283,-1.0814,-1.1217,-1.0241,-1.0238,-1.0476,0.0,0.0,0.0,0.0,0.0,0.0,0.0,0.0,0.0,0.0,0.0,0.0,0.0,-1.4088,-1.4088,-1.4088,-1.4088,-1.4088,-1.4088,-1.4088,-1.4088,-1.4088,-1.4088,-1.4088,-1.3913,-1.2942,-1.2242,-1.1986,-1.1037,-1.0438,-1.0265,-0.9318,-0.8715,-0.8715,-0.7665,-0.7139,-0.7139,-0.7139,-0.7139,-0.7139,-0.7139,-0.7139,-0.7139,-0.7139,-0.7139,-0.7139,-0.8277,-0.8715,-0.8803,-0.9836,-1.0351,-1.0524,-1.1552,-1.2066,-1.2242,-1.3385,-1.3822,-1.3913,0.0,0.0,0.0,0.0,0.0,0.0,0.0,0.0,0.0,0.0,0.0,0.0,0.0,0.0,0.0,0.0,0.0,0.0,0.0,0.0,-1.8057,-1.8187,-1.7992,-1.7749,-1.7415,-1.7266,-1.6832,-1.6202,-1.6575,-1.6358,-1.548,-1.446,-1.4969,-1.6686,-1.5003,-1.4584,-1.5203,-1.5372,-1.4957,-1.4217,-1.3999,-1.3529,-1.2849,-1.2347,-1.1555,0.0,0.0,0.0,0.0,0.0,0.0,0.0,-1.0283,-1.0862,-1.1397,-1.0513,-1.1206,-1.1927,0.0,0.0,0.0,0.0,0.0,0.0,0.0,0.0,0.0,0.0,0.0,0.0,0.0,-1.4088,-1.4088,-1.4088,-1.4088,-1.4088,-1.4088,-1.4088,-1.4088,-1.4088,-1.4088,-1.373,-1.2766,-1.2413,-1.1552,-0.9753,-0.9405,-0.8886,-0.7925,-0.7661,-0.7489,-0.7489,-0.7228,-0.7139,-0.7139,-0.7139,-0.7139,-0.7139,-0.7139,-0.7139,-0.7139,-0.7139,-0.7139,-0.7139,-0.7404,-0.7489,-0.7489,-0.7749,-0.8448,-0.9323,-0.9492,-1.0178,-1.1042,-1.1305,-1.1906,-1.2674,0.0,0.0,0.0,0.0,0.0,0.0,0.0,0.0,0.0,0.0,0.0,0.0,0.0,0.0,0.0,0.0,0.0,0.0,0.0,0.0,-1.7992,-1.8014,-1.7861,-1.7658,-1.732,-1.7296,-1.696,-1.6301,-1.6474,-1.6222,-1.5518,-1.4476,-1.4641,-1.5724,-1.4615,-1.4162,-1.4295,-1.4687,-1.454,-1.4023,-1.3301,-1.2831,-1.2496,-1.1464,-1.0774,-1.0283,-1.0283,0.0,0.0,0.0,0.0,0.0,0.0,0.0,-1.0983,-1.059,-1.074,-1.0877,0.0,0.0,0.0,0.0,0.0,0.0,0.0,0.0,0.0,0.0,0.0,0.0,0.0,-1.4088,-1.4088,-1.4088,-1.4088,-1.4088,-1.4088,-1.4088,-1.4088,-1.4088,-1.3555,-1.3027,-1.2328,-1.1295,-1.0178,-0.8978,-0.8364,-0.7753,-0.7139,-0.7139,-0.7139,-0.7139,-0.7139,-0.7139,-0.7139,-0.7139,-0.7139,-0.7139,-0.7139,-0.7139,-0.7139,-0.7139,-0.7139,-0.7139,-0.7139,-0.7139,-0.7139,-0.7139,-0.7492,-0.8105,-0.8715,-0.9235,-0.9836,-1.0438,-1.1295,-1.2328,0.0,0.0,0.0,0.0,0.0,0.0,0.0,0.0,0.0,0.0,0.0,0.0,0.0,0.0,0.0,0.0,0.0,0.0,0.0,0.0,0.0,-1.7811,-1.7726,-1.7566,-1.7224,-1.7175,-1.6825,-1.6219,-1.6314,-1.6296,-1.6113,-1.4989,-1.4594,-1.4759,-1.4353,-1.3819,-1.3232,-1.3611,-1.3818,-1.3715,-1.2409,-1.2095,-1.2169,-1.0907,-1.0361,-1.0283,-1.0283,-1.0283,-1.0283,-1.0283,0.0,0.0,0.0,0.0,-1.0434,-1.0507,-1.0015,-0.9473,0.0,0.0,0.0,0.0,0.0,0.0,0.0,0.0,0.0,0.0,0.0,0.0,0.0,-1.4088,-1.4088,-1.4088,-1.4088,-1.4088,-1.4088,-1.4088,-1.3997,-1.3822,-1.2936,-1.2157,-1.1724,-1.0009,-0.8803,-0.8627,-0.7665,-0.7139,-0.7139,-0.7139,-0.7139,-0.7139,-0.7139,-0.7139,-0.7139,-0.7139,-0.7139,-0.7139,-0.7139,-0.7139,-0.7139,-0.7139,-0.7139,-0.7139,-0.7139,-0.7139,-0.7139,-0.7139,-0.7139,-0.7228,-0.8193,-0.8627,-0.8715,-0.9662,-1.0692,-1.1724,0.0,0.0,0.0,0.0,0.0,0.0,0.0,0.0,0.0,0.0,0.0,0.0,0.0,0.0,0.0,0.0,0.0,0.0,-1.7811,0.0,0.0,-1.7811,-1.7526,-1.7199,-1.6866,-1.6581,-1.6246,-1.5885,-1.6383,0.0,0.0,0.0,0.0,-1.7464,-1.5379,-1.4488,-1.4509,-1.3659,-1.3084,-1.271,-1.2496,-1.1918,-1.1179,-1.0964,-1.0649,-1.0283,-1.0283,-1.0283,-1.0283,-1.0283,-1.0283,0.0,0.0,0.0,-1.0538,-1.0342,-1.0366,-1.0386,0.0,0.0,0.0,0.0,0.0,0.0,0.0,0.0,0.0,0.0,0.0,0.0,0.0,-1.4088,-1.4088,-1.4088,-1.4088,-1.4088,-1.4088,-1.4088,-1.373,-1.2674,-1.2413,-1.1552,-0.9579,-0.9065,-0.8452,-0.7404,-0.7228,-0.7139,-0.7139,-0.7139,-0.7139,-0.7139,-0.7139,-0.7139,-0.7139,-0.7139,-0.7139,-0.7139,-0.7139,-0.7139,-0.7139,-0.7139,-0.7139,-0.7139,-0.7139,-0.7139,-0.7139,-0.7139,-0.7139,-0.7139,-0.7316,-0.7316,-0.7404,-0.7489,-0.836,-0.9323,0.0,0.0,0.0,0.0,0.0,0.0,0.0,0.0,0.0,0.0,0.0,0.0,0.0,0.0,0.0,-1.7811,-1.7811,-1.7558,-1.6987,-1.6694,-1.6601,-1.667,-1.6687,-1.6621,-1.6528,-1.6382,-1.6136,-1.5799,0.0,0.0,0.0,-1.7519,-1.7018,0.0,0.0,0.0,-1.3912,-1.3766,-1.3252,-1.2461,-1.1872,-1.1383,-1.0981,-1.0725,-1.0467,-1.0283,-1.0283,-1.0283,-1.0312,-1.0557,-1.0635,-1.0711,-1.0973,0.0,0.0,0.0,0.0,0.0,0.0,0.0,0.0,0.0,0.0,0.0,0.0,0.0,0.0,0.0,0.0,0.0,0.0,-1.4088,-1.4088,-1.4088,-1.4088,-1.3822,-1.3203,-1.3112,-1.2681,-1.1466,-1.0783,-1.0009,-0.8978,-0.8281,-0.7665,-0.7139,-0.7139,-0.7139,-0.7139,-0.7139,-0.7139,-0.7139,-0.7139,-0.7139,-0.7139,-0.7139,-0.7139,-0.7139,-0.7139,-0.7139,-0.7139,-0.7139,-0.7139,-0.7139,-0.7139,-0.7139,-0.7139,-0.7139,-0.7139,-0.7139,-0.7139,-0.7139,-0.7139,-0.7139,-0.7841,-0.889,0.0,0.0,0.0,0.0,0.0,0.0,0.0,0.0,0.0,0.0,0.0,0.0,0.0,0.0,0.0,0.0,-1.7642,-1.7076,-1.6083,-1.5621,-1.5449,-1.5533,-1.5658,-1.5823,-1.6049,-1.5957,-1.5884,-1.5799,0.0,0.0,-1.904,-1.8355,-1.7579,0.0,-1.6956,-1.5794,0.0,0.0,0.0,0.0,-1.1636,-1.1113,0.0,-1.0428,-1.0352,-1.0439,-1.0281,-1.0388,-1.0614,-1.0573,-1.0686,-1.0851,-1.0928,-1.0477,0.0,0.0,0.0,0.0,0.0,0.0,0.0,0.0,0.0,0.0,0.0,0.0,0.0,0.0,0.0,0.0,0.0,0.0,-1.4088,-1.4088,-1.3822,-1.3294,-1.2413,-1.2066,-1.1466,-1.0265,-0.941,-0.8803,-0.8452,-0.7665,-0.7139,-0.7139,-0.7139,-0.7139,-0.7139,-0.7139,-0.7139,-0.7139,-0.7139,-0.7139,-0.7139,-0.7139,-0.7139,-0.7139,-0.7139,-0.7139,-0.7139,-0.7139,-0.7139,-0.7139,-0.7139,-0.7139,-0.7139,-0.7139,-0.7139,-0.7139,-0.7139,-0.7139,-0.7139,-0.7139,-0.7665,-0.8452,0.0,0.0,0.0,0.0,0.0,0.0,0.0,0.0,0.0,0.0,0.0,0.0,-1.7833,-1.7811,-1.7811,-1.7811,-1.7151,-1.6341,-1.5333,-1.5005,-1.4842,-1.4847,-1.4576,0.0,-1.535,-1.5042,-1.5169,0.0,0.0,0.0,-1.7267,-1.8254,-1.8288,-1.7423,-1.6824,-1.6046,-1.521,0.0,0.0,0.0,0.0,0.0,0.0,0.0,0.0,0.0,0.0,-1.0624,-1.131,-1.0024,-1.0032,-1.0561,-1.0303,0.0,0.0,0.0,0.0,0.0,0.0,0.0,0.0,0.0,0.0,0.0,0.0,0.0,0.0,0.0,0.0,0.0,0.0,0.0,-1.4088,-1.4088,-1.3118,-1.2413,-1.2328,-1.1381,-1.0269,-0.9148,-0.8978,-0.8452,-0.7316,-0.7139,-0.7139,-0.7139,-0.7139,-0.7139,-0.7139,-0.7139,-0.7139,-0.7139,-0.7139,-0.7139,-0.7139,-0.7139,-0.7139,-0.7139,-0.7139,-0.7139,-0.7139,-0.7139,-0.7139,-0.7139,-0.7139,-0.7139,-0.7139,-0.7139,-0.7139,-0.7139,-0.7139,-0.7139,-0.7139,-0.7139,-0.7139,-0.7228,0.0,0.0,0.0,0.0,0.0,0.0,0.0,0.0,0.0,0.0,0.0,0.0,0.0,-1.7811,-1.7541,-1.6881,-1.5725,-1.473,-1.4031,-1.3763,-1.3801,-1.4137,-1.4192,-1.4667,-1.5604,-1.521,-1.5096,0.0,0.0,-1.5758,-1.6697,-1.6674,-1.697,-1.7542,-1.8257,-1.7106,-1.4607,-1.5198,0.0,0.0,0.0,0.0,0.0,0.0,0.0,0.0,0.0,0.0,0.0,0.0,0.0,0.0,0.0,0.0,0.0,0.0,0.0,0.0,0.0,0.0,0.0,0.0,0.0,0.0,0.0,0.0,0.0,0.0,0.0,0.0,0.0,0.0,0.0,-1.1992,-1.1472,-1.0956,-1.0178,-0.9753,-0.9056,-0.7925,-0.7753,-0.7577,-0.7139,-0.7139,-0.7139,-0.7139,-0.6875,-0.6837,-0.7126,-0.6868,-0.6844,-0.7132,-0.7139,-0.7139,-0.7139,-0.7139,-0.7139,-0.7139,-0.7139,-0.7139,-0.7139,-0.7139,-0.7139,-0.7139,-0.7139,-0.7139,-0.7139,-0.7139,-0.7139,-0.7139,-0.7139,-0.7139,-0.7139,-0.7139,-0.7139,-0.7139,0.0,0.0,0.0,0.0,0.0,0.0,0.0,0.0,0.0,0.0,0.0,0.0,0.0,0.0,-1.6842,-1.5669,-1.47,-1.395,-1.3435,-1.3315,-1.3421,-1.3765,-1.3955,-1.4444,-1.521,-1.4747,-1.4643,0.0,0.0,0.0,0.0,-1.5545,-1.5904,-1.6689,-1.7911,-1.7095,0.0,0.0,0.0,-1.2355,0.0,0.0,-1.1641,0.0,0.0,0.0,0.0,0.0,0.0,0.0,0.0,0.0,0.0,0.0,0.0,0.0,0.0,0.0,0.0,0.0,0.0,0.0,0.0,0.0,0.0,0.0,0.0,0.0,0.0,0.0,0.0,0.0,0.0,-1.1295,-1.0524,-0.9753,-0.8978,-0.854,-0.8017,-0.7228,-0.7139,-0.7139,-0.7139,-0.7139,-0.7139,-0.7139,-0.6865,0.0,-0.7126,-0.6858,-0.6834,-0.7132,-0.7139,-0.7139,-0.7139,-0.7139,-0.7139,-0.7139,-0.7139,-0.7139,-0.7139,-0.7139,-0.7139,-0.7139,-0.7139,-0.7139,-0.7139,-0.7139,-0.7139,-0.7139,-0.7139,-0.7139,-0.7139,-0.7139,-0.7139,-0.7139,0.0,0.0,0.0,0.0,0.0,0.0,0.0,0.0,0.0,-1.7789,0.0,0.0,0.0,0.0,0.0,-1.4268,-1.4221,-1.4092,-1.3627,-1.3735,-1.381,-1.384,-1.3814,-1.39,-1.4127,-1.3606,-1.37,0.0,0.0,0.0,0.0,0.0,-1.5221,-1.4864,-1.5441,-1.58,-1.588,0.0,-1.5214,-1.4648,0.0,-1.4087,-1.3912,0.0,0.0,0.0,-1.2606,-1.247,0.0,-1.1081,0.0,0.0,0.0,0.0,0.0,0.0,0.0,0.0,0.0,0.0,0.0,0.0,0.0,0.0,0.0,0.0,0.0,0.0,0.0,0.0,0.0,0.0,0.0,0.0,-1.0351,-0.889,-0.889,-0.7841,-0.7139,-0.7139,-0.7139,-0.7139,-0.7139,-0.7139,-0.7139,-0.7139,-0.7129,-0.7126,-0.7139,-0.7139,-0.7139,-0.7139,-0.7139,-0.7139,-0.7139,-0.7139,-0.7139,-0.7139,-0.7139,-0.7139,-0.7139,-0.7139,-0.7139,-0.7139,-0.7139,-0.7139,-0.7139,-0.7139,-0.7139,-0.7139,-0.7139,-0.7139,-0.7139,-0.7139,-0.7139,-0.7139,0.0,0.0,0.0,0.0,0.0,0.0,-1.7602,-1.7486,-1.7455,0.0,0.0,0.0,-1.642,-1.5486,-1.4884,-1.4956,-1.4506,-1.4091,-1.377,-1.3971,-1.4217,-1.4498,-1.42,-1.4255,-1.4817,-1.4104,-1.3844,-1.4052,-1.3579,-1.3372,-1.3391,-1.3709,-1.3601,0.0,-1.3593,-1.3795,-1.3946,-1.5216,0.0,0.0,-1.4932,-1.4045,0.0,0.0,0.0,0.0,0.0,-1.1631,-1.1686,0.0,-1.0052,-0.9776,0.0,0.0,0.0,0.0,0.0,0.0,-0.855,0.0,0.0,0.0,0.0,0.0,0.0,0.0,0.0,0.0,0.0,0.0,0.0,0.0,0.0,0.0,0.0,-0.889,-0.889,-0.7841,-0.7139,-0.7139,-0.7139,-0.7139,-0.7139,-0.7139,-0.7139,0.0,-0.6841,-0.68,-0.7122,-0.7139,-0.7139,-0.7139,-0.7139,-0.7139,-0.7139,-0.7139,-0.7139,-0.7139,-0.7139,-0.7139,-0.7139,-0.7139,-0.7139,-0.7139,-0.7139,-0.7139,-0.7139,-0.7139,-0.7139,-0.7139,-0.7139,-0.7139,-0.7139,-0.7139,-0.7139,-0.7139,0.0,0.0,0.0,0.0,0.0,-1.7526,-1.7344,-1.7296,-1.7296,0.0,0.0,0.0,-1.5942,-1.5161,-1.4705,-1.4844,-1.4602,-1.4415,-1.4379,-1.4688,-1.4875,-1.4932,-1.466,-1.4553,-1.4596,-1.3893,-1.3552,-1.3615,-1.3095,-1.2973,-1.3198,-1.3012,-1.2756,0.0,0.0,0.0,0.0,0.0,0.0,0.0,-1.4925,0.0,0.0,-1.3979,-1.3339,0.0,0.0,0.0,-1.1803,-1.1197,-1.0595,0.0,0.0,0.0,0.0,0.0,0.0,0.0,0.0,0.0,0.0,0.0,0.0,0.0,-0.5394,-0.6488,0.0,0.0,0.0,0.0,0.0,0.0,0.0,0.0,0.0,-0.8539,-0.8162,-0.7577,-0.7139,-0.7139,-0.7139,-0.7139,-0.7139,-0.7139,-0.7139,-0.7139,-0.6898,-0.6865,-0.7126,-0.7139,-0.7139,-0.7139,-0.7139,-0.7139,-0.7139,-0.7139,-0.7139,-0.7139,-0.7139,-0.7139,-0.7139,-0.7139,-0.7139,-0.7139,-0.7139,-0.7139,-0.7139,-0.7139,-0.7139,-0.7139,-0.7139,-0.7139,-0.7139,-0.7139,-0.7139,-0.7139,0.0,0.0,-1.7789,-1.7704,-1.7479,-1.7256,-1.7183,-1.7199,-1.7199,0.0,-1.7117,-1.6605,-1.5417,-1.5227,-1.496,-1.4421,-1.4701,-1.4995,-1.5163,-1.5523,-1.5522,-1.5043,-1.4982,-1.4627,-1.3934,-1.3308,-1.3084,-1.3198,-1.2676,-1.2656,-1.3129,-1.265,-1.2401,-1.2305,0.0,0.0,0.0,0.0,0.0,-1.5702,-1.4574,-1.4979,0.0,0.0,-1.3661,-1.3441,-1.3525,-1.3016,-1.233,-1.2226,-1.1516,0.0,0.0,0.0,0.0,0.0,-0.818,0.0,0.0,0.0,0.0,0.0,0.0,0.0,-0.5135,-0.6391,-0.7603,0.0,0.0,0.0,0.0,0.0,0.0,0.0,0.0,0.0,-0.726,-0.7197,-0.7122,-0.7071,-0.7109,-0.7139,-0.7139,-0.7139,-0.7139,-0.7139,-0.7139,-0.7139,-0.7139,-0.7139,-0.7139,-0.7139,-0.7139,-0.7139,-0.7139,-0.7139,-0.7139,-0.7139,-0.7139,-0.7139,-0.7139,-0.7139,-0.7139,-0.7139,-0.7139,-0.7139,-0.7139,-0.7139,-0.7139,-0.7139,-0.7139,-0.7139,-0.7139,-0.7139,-0.7139,-0.7139,-1.7392,0.0,-1.7635,-1.7093,-1.715,-1.7109,-1.6565,-1.6501,-1.6501,-1.6501,-1.604,-1.5571,-1.5253,-1.5034,-1.5041,-1.5448,-1.5557,-1.5474,-1.5155,-1.5182,-1.5043,-1.4627,-1.431,-1.4052,-1.3901,-1.3398,-1.3187,-1.3198,-1.2728,-1.2542,-1.2615,-1.2138,-1.17,-1.1292,0.0,0.0,0.0,0.0,0.0,-1.4097,-1.4799,0.0,-1.3386,-1.3645,-1.2373,-1.0702,-1.2095,-1.2052,-1.1322,-1.1476,-1.1443,-1.1042,0.0,0.0,0.0,0.0,0.0,0.0,0.0,0.0,0.0,0.0,0.0,0.0,-0.4012,-0.427,-0.5004,0.0,0.0,0.0,0.0,0.0,0.0,0.0,0.0,0.0,0.0,-0.7506,-0.7007,-0.6647,-0.6919,-0.7139,-0.7139,-0.7139,-0.7139,-0.7139,-0.7139,-0.7139,-0.7139,-0.7139,-0.7139,-0.7139,-0.7139,-0.7139,-0.7139,-0.7139,-0.7139,-0.7139,-0.7139,-0.7139,-0.7139,-0.7139,-0.7139,-0.7139,-0.7139,-0.7139,-0.7139,-0.7139,-0.7139,-0.7139,-0.7139,-0.7139,-0.7139,-0.7139,-0.7139,-0.7139,-1.7027,0.0,-1.7191,-1.6866,-1.6799,-1.6807,-1.6806,-1.6518,-1.6533,-1.7155,-1.6954,-1.6435,-1.5598,-1.5645,-1.577,-1.5799,-1.558,-1.5359,-1.5134,-1.4907,-1.4627,-1.4214,-1.4032,-1.3802,-1.3547,-1.3323,-1.3094,-1.2838,-1.2615,-1.2401,-1.2138,-1.1653,-1.1121,-1.0649,0.0,0.0,0.0,0.0,-1.3047,-1.3787,-1.3881,0.0,-1.2919,-1.2965,-1.2172,-1.1102,-1.1984,-1.2017,-1.1597,-1.1309,-1.1309,0.0,0.0,-0.9291,-0.8251,0.0,-0.646,-0.5466,0.0,0.0,0.0,-0.4116,0.0,0.0,0.0,-0.3863,-0.4417,-0.5278,-0.5354,0.0,0.0,0.0,0.0,0.0,0.0,0.0,0.0,-0.6774,-0.6807,-0.6807,-0.7004,-0.7139,-0.7139,-0.7139,-0.7139,-0.7139,-0.7139,-0.7139,-0.7139,-0.7139,-0.7139,-0.7139,-0.7139,-0.7139,-0.7139,-0.7139,-0.7139,-0.7139,-0.7139,-0.7139,-0.7139,-0.7139,-0.7139,-0.7139,-0.7139,-0.7139,-0.7139,-0.7139,-0.7139,-0.7139,-0.7139,-0.7139,-0.7139,-0.7139,-0.7139,-0.7139,-1.6633,0.0,-1.6811,-1.6781,-1.6514,-1.6506,-1.7099,-1.6622,-1.6576,0.0,0.0,0.0,0.0,0.0,0.0,0.0,0.0,-1.4858,0.0,0.0,-1.4279,-1.3782,-1.3769,-1.3581,-1.3198,-1.3129,-1.2873,-1.2508,-1.2318,-1.2029,-1.1627,-1.1179,-1.075,0.0,0.0,0.0,0.0,0.0,0.0,-1.3891,0.0,-1.2953,-1.3028,-1.2692,-1.2337,-1.2071,-1.2238,-1.2305,-1.2171,-1.1289,-1.1149,-1.1202,-1.0666,-0.9354,0.0,0.0,0.0,0.0,0.0,0.0,0.0,0.0,0.0,-0.3581,0.0,0.0,0.0,-0.4381,0.0,0.0,0.0,0.0,0.0,0.0,0.0,0.0,0.0,0.0,0.0,-0.6709,-0.6831,-0.6871,-0.6844,-0.6919,-0.7017,-0.7132,-0.7139,-0.7139,-0.7139,-0.7139,-0.7139,-0.7139,-0.7139,-0.7139,-0.7139,-0.7139,-0.7139,-0.7139,-0.7139,-0.7139,-0.7051,-0.6874,-0.6871,-0.7051,-0.6874,-0.6782,-0.6786,-0.7051,-0.6962,-0.6786,-0.7051,-0.7139,-0.7139,-0.7139,-0.7139,-0.7139,-1.6301,-1.6581,0.0,-1.6712,-1.6478,-1.6422,-1.6729,-1.6248,-1.5901,0.0,0.0,0.0,0.0,0.0,0.0,0.0,0.0,0.0,-1.2877,0.0,0.0,-1.3304,-1.3301,-1.3267,-1.3198,-1.2791,-1.2544,-1.2508,-1.1616,-1.1132,-1.1094,-1.0975,-1.0871,0.0,-1.0854,0.0,0.0,0.0,-1.3004,0.0,-1.3672,-1.3296,0.0,-1.3355,-1.2508,-1.1243,-1.2024,-1.2305,-1.2171,0.0,-1.1015,-1.0764,0.0,-0.7723,-0.6618,0.0,0.0,0.0,0.0,0.0,0.0,0.0,-0.3581,0.0,0.0,0.0,-0.3717,-0.3839,0.0,0.0,0.0,0.0,0.0,0.0,0.0,0.0,-0.4904,0.0,-0.5301,-0.5352,-0.5711,-0.5905,-0.5779,-0.6125,-0.6576,-0.7102,-0.7139,-0.7139,-0.7139,-0.7139,-0.7139,-0.7139,-0.7139,-0.7139,-0.7139,-0.7139,-0.7139,-0.7139,-0.7139,-0.7139,-0.7051,-0.6071,-0.616,-0.7051,-0.6071,-0.5625,-0.5714,-0.6694,-0.6517,-0.5716,-0.6694,-0.7139,-0.7139,-0.7139,-0.7139,-0.7139,-1.6577,-1.6661,0.0,0.0,-1.6879,-1.6698,-1.7206,-1.7401,-1.7103,0.0,0.0,0.0,0.0,0.0,0.0,0.0,0.0,-1.511,0.0,0.0,0.0,0.0,-1.3119,-1.2685,-1.2401,-1.2174,-1.1957,-1.1653,-1.1196,-1.0964,-1.0955,-1.0902,-1.0868,0.0,-1.08,0.0,-1.2219,0.0,-1.2767,0.0,0.0,0.0,0.0,-1.2563,-1.2425,-1.1737,-1.1597,-1.187,-1.2091,0.0,-1.0509,0.0,0.0,0.0,0.0,0.0,0.0,0.0,0.0,0.0,0.0,0.0,0.0,0.0,-0.3968,0.0,-0.3697,0.0,0.0,0.0,0.0,0.0,0.0,0.0,-0.4165,0.0,0.0,0.0,-0.4741,0.0,0.0,0.0,-0.4485,-0.4603,-0.5038,-0.5624,-0.5993,-0.6328,-0.6753,-0.7,-0.7139,-0.7139,-0.6428,-0.6071,-0.6071,-0.5442,-0.5082,-0.5082,-0.5082,-0.5082,-0.5085,-0.455,-0.4641,-0.5085,-0.455,-0.4374,-0.4372,-0.4907,-0.5176,-0.5359,-0.5174,-0.5888,-0.7139,-0.7139,-0.7139,-0.7139,-1.677,0.0,0.0,0.0,0.0,-1.6607,-1.7116,0.0,0.0,0.0,0.0,0.0,-1.7263,-1.6158,0.0,0.0,-1.5671,-1.5203,0.0,0.0,-1.3876,0.0,0.0,0.0,0.0,-1.176,-1.1459,-1.1208,-1.1054,-1.1015,-1.1094,-1.1211,-1.1219,0.0,0.0,-1.1072,-1.1701,0.0,0.0,-1.2609,-1.3559,-1.2943,-1.1482,-1.1832,-1.2091,-1.2218,-1.1583,-1.1757,-1.2071,-1.0555,-1.0214,0.0,-0.8642,0.0,0.0,0.0,0.0,0.0,-0.4291,0.0,0.0,0.0,0.0,0.0,0.0,0.0,0.0,0.0,0.0,0.0,0.0,0.0,0.0,0.0,0.0,-0.4005,0.0,0.0,0.0,0.0,0.0,0.0,0.0,-0.353,-0.3609,-0.4382,-0.4721,-0.5175,-0.566,-0.5946,-0.6154,-0.6154,-0.5356,-0.491,-0.491,-0.4016,-0.357,-0.357,-0.357,-0.357,-0.357,-0.3215,-0.3303,-0.357,-0.3215,-0.3126,-0.3126,-0.3481,-0.3927,-0.4376,-0.3838,-0.4639,-0.6157,-0.6514,-0.6871,-0.7139,-1.6619,-1.6712,0.0,0.0,0.0,0.0,0.0,0.0,0.0,0.0,0.0,0.0,0.0,0.0,0.0,0.0,0.0,-1.301,-1.3094,0.0,-1.3831,0.0,0.0,-1.2173,0.0,0.0,-1.1239,-1.169,-1.1175,-1.1113,-1.1596,-1.1982,-1.2151,-1.2115,0.0,-1.1236,-1.2604,-1.1882,-1.1875,-1.2477,-1.3359,-1.3165,-1.2144,0.0,-1.1563,-1.2298,-1.2271,0.0,0.0,-1.1256,-1.0309,0.0,0.0,0.0,0.0,0.0,0.0,0.0,0.0,0.0,0.0,-0.4304,0.0,0.0,0.0,0.0,-0.3968,0.0,0.0,0.0,0.0,0.0,0.0,-0.3822,0.0,0.0,0.0,0.0,0.0,0.0,0.0,0.0,0.0,-0.3254,-0.2968,-0.3559,-0.3659,-0.3643,-0.3724,-0.3709,-0.3748,-0.3748,-0.3659,-0.3659,-0.3659,-0.3659,-0.357,-0.357,-0.357,-0.357,-0.357,-0.2413,-0.2503,-0.357,-0.2325,-0.1879,-0.1969,-0.3126,-0.2948,-0.2058,-0.3126,-0.3659,-0.3837,-0.5001,-0.616,-0.7139,0.0,0.0,0.0,0.0,0.0,0.0,0.0,-1.5681,0.0,0.0,0.0,0.0,0.0,-1.5806,-1.4994,0.0,0.0,-1.5027,-1.4492,-1.4687,0.0,0.0,0.0,-1.3538,0.0,0.0,0.0,0.0,0.0,0.0,-1.2002,-1.2158,-1.2383,-1.2599,0.0,-1.1335,0.0,0.0,0.0,0.0,0.0,-1.1703,-1.1463,0.0,-1.2044,-1.2305,-1.2305,-1.2305,0.0,-1.1289,-1.0266,-0.9238,-0.8289,-0.694,-0.5713,-0.5974,-0.5504,-0.4986,0.0,0.0,-0.5348,-0.5291,0.0,0.0,0.0,0.0,0.0,0.0,0.0,0.0,0.0,0.0,-0.3677,-0.316,-0.3458,0.0,0.0,0.0,0.0,0.0,0.0,0.0,0.0,0.0,-0.1636,-0.1947,-0.2248,-0.2615,-0.3119,-0.3405,-0.3577,-0.3605,-0.2863,-0.2413,-0.2413,-0.1612,-0.1254,-0.1254,-0.1254,-0.1254,-0.1165,-0.0807,-0.0807,-0.1165,-0.0807,-0.0628,-0.0628,-0.1076,-0.1433,-0.179,-0.1344,-0.2236,-0.3659,-0.4016,-0.4999,-0.6071,-1.6007,0.0,0.0,0.0,0.0,0.0,0.0,0.0,0.0,0.0,-1.5732,0.0,-1.692,0.0,-1.5581,0.0,-1.5531,-1.5454,-1.5495,-1.4785,0.0,-1.614,-1.4745,0.0,0.0,0.0,0.0,0.0,0.0,-1.2178,0.0,0.0,-1.2607,0.0,0.0,-1.1083,-1.0871,0.0,-1.1341,0.0,0.0,-1.1176,0.0,0.0,-1.2031,-1.2305,0.0,-1.2305,-1.2145,-1.1217,-1.0168,-0.9145,-0.8212,-0.6956,-0.5884,-0.6176,-0.585,-0.546,-0.5752,-0.5864,0.0,-0.582,-0.5664,0.0,-0.4907,0.0,-0.3985,0.0,0.0,0.0,0.0,0.0,0.0,-0.2763,-0.3254,0.0,0.0,-0.3581,0.0,0.0,0.0,0.0,0.0,0.0,-0.0849,-0.0691,-0.0979,-0.137,-0.1856,-0.2179,-0.2314,-0.2298,-0.1547,-0.1165,-0.1165,-0.0359,0.0,0.0,0.0,0.0,0.0,0.0,0.0,0.0,0.0,0.0,0.0,0.0,-0.0449,-0.1076,-0.0269,-0.0986,-0.2415,-0.2769,-0.3749,-0.491,0.0,0.0,0.0,0.0,-1.5487,0.0,0.0,0.0,-1.5483,0.0,-1.5858,-1.504,-1.5813,-1.4539,-1.3998,-1.4759,-1.4049,-1.4223,-1.5799,-1.3688,0.0,0.0,-1.398,-1.3396,-1.5371,0.0,0.0,0.0,0.0,0.0,0.0,0.0,0.0,0.0,-1.1484,0.0,-1.0036,-1.0436,-1.0302,-0.982,-1.0608,-1.1456,-1.2144,-1.1309,-1.1536,-1.2305,-1.2305,-1.2305,-1.2077,-1.1087,-1.0115,-0.9069,-0.8084,-0.7099,-0.6338,-0.6338,-0.6338,-0.6264,-0.6271,-0.6369,-0.6373,-0.5885,-0.5982,0.0,0.0,0.0,-0.3532,0.0,0.0,0.0,0.0,0.0,0.0,-0.2709,-0.3297,0.0,0.0,0.0,0.0,0.0,0.0,0.0,0.0,-0.1303,-0.0637,-0.0051,0.0,0.0,0.0,0.0,0.0,0.0,0.0,0.0,0.0,0.0,0.0,0.0,0.0,0.0,0.0,0.0,0.0,0.0,0.0,0.0,0.0,0.0,0.0,0.0,0.0,0.0,-0.018,-0.1344,-0.2503,-0.3481,-1.3689,-1.3735,-1.3921,0.0,-1.4743,-1.525,0.0,0.0,0.0,0.0,-1.4772,-1.4799,-1.4621,-1.4486,-1.4279,-1.3906,-1.3866,0.0,0.0,0.0,0.0,-1.6103,-1.6367,-1.6153,-1.534,-1.5584,0.0,-1.4178,0.0,0.0,-1.4058,0.0,0.0,0.0,0.0,0.0,-1.0082,-1.0942,-1.1087,-1.0621,-1.0194,-1.0548,-1.1303,0.0,-1.1536,-1.2305,-1.2305,-1.1848,-1.1162,-1.0864,-0.9664,-0.8161,-0.7859,-0.7099,-0.6338,-0.6338,-0.6338,-0.6285,-0.639,-0.6444,-0.6334,-0.5445,-0.5148,-0.4608,0.0,0.0,0.0,0.0,0.0,0.0,0.0,0.0,0.0,0.0,0.0,0.0,0.0,0.0,0.0,-0.2051,0.0,0.0,0.0,-0.1001,-0.0656,-0.0049,0.0,0.0,0.0,0.0,0.0,0.0,0.0,0.0,0.0,0.0,0.0,0.0,0.0,0.0,0.0,0.0,0.0,0.0,0.0,0.0,0.0,0.0,0.0,0.0,0.0,0.0,-0.018,-0.1344,-0.1969,-0.2413,-1.2782,0.0,0.0,-1.2866,0.0,0.0,-1.4362,0.0,0.0,-1.4684,-1.4582,0.0,-1.4618,-1.4471,-1.4143,-1.3691,-1.3462,0.0,-1.3458,0.0,0.0,-1.554,-1.582,-1.5528,-1.4687,-1.5185,0.0,-1.4596,0.0,0.0,-1.4668,0.0,0.0,0.0,0.0,-1.0899,0.0,-1.0731,-1.0975,-1.0949,-1.0454,-1.0782,0.0,-1.1136,-1.1253,-1.162,-1.162,-1.1316,-1.0634,-0.9809,-0.8761,-0.7706,-0.7249,-0.6718,-0.6338,-0.6338,-0.6305,-0.6369,-0.6451,-0.6569,-0.6459,-0.5328,-0.4997,-0.4495,-0.2785,-0.222,-0.184,0.0,-0.1201,-0.1103,0.0,0.0,0.0,0.0,0.0,0.0,0.0,0.0,0.0,0.0,-0.1406,0.0,-0.0573,-0.0762,-0.0667,-0.0048,0.0,0.0,0.0,0.0,0.0,0.0,0.0,0.0,0.0,0.0,0.0,0.0,0.0,0.0,0.0,0.0,0.0,0.0,0.0,0.0,0.0,0.0,0.0,0.0,0.0,0.0,-0.009,-0.0808,-0.0986,-0.1076,0.0,0.0,0.0,0.0,0.0,0.0,0.0,-1.4302,0.0,-1.5556,0.0,-1.4399,-1.5042,-1.4328,-1.3792,-1.3827,0.0,-1.2905,-1.419,-1.2478,-1.2514,-1.4923,-1.3988,-1.3558,-1.3752,-1.3999,0.0,0.0,0.0,0.0,0.0,0.0,0.0,0.0,0.0,0.0,0.0,-1.0031,-1.0252,-1.0791,-1.0791,-1.1168,-1.1689,-1.0992,-1.0707,-1.0559,-1.0484,-1.0409,-1.011,-0.8385,-0.7706,-0.748,-0.6567,-0.6338,-0.6264,-0.6285,-0.6376,-0.6481,-0.6522,-0.6639,-0.6411,-0.5206,-0.4932,-0.4376,-0.2058,-0.1522,-0.1254,-0.018,0.0,0.0,0.0,0.0,0.0,0.0,0.0,0.0,0.0,0.0,0.0,0.0,0.0,0.0,0.0,-0.0478,-0.0573,-0.0048,0.0,0.0,0.0,0.0,0.0,0.0,0.0,0.0,0.0,0.0,0.0,0.0,0.0,0.0,0.0,0.0,0.0,0.0,0.0,0.0,0.0,0.0,0.0,0.0,0.0,0.0,0.0,0.0,0.0,0.0,0.0,0.0,0.0,0.0,0.0,-1.2261,-1.343,-1.4801,-1.5264,-1.4151,-1.461,-1.4863,-1.4284,-1.3671,-1.3293,-1.3308,-1.2837,0.0,0.0,0.0,0.0,-1.3917,-1.456,-1.4463,-1.3767,-1.452,-1.508,0.0,0.0,0.0,-1.5371,0.0,0.0,0.0,0.0,0.0,-1.0463,-0.9214,0.0,-0.9771,-0.9771,-0.9378,-0.8784,-0.9389,-0.9564,-0.9442,-0.8613,-0.8309,-0.8232,-0.7931,-0.7253,-0.6567,-0.6338,-0.6338,-0.6285,-0.6403,-0.6454,-0.6525,-0.678,-0.6108,-0.5122,-0.4152,-0.3118,-0.2058,-0.0628,-0.0359,-0.0269,0.0,0.0,0.0,0.0,0.0,0.0,0.0,0.0,0.0,0.0,0.0,0.0,0.0,0.0,-0.0112,0.0,0.0,-0.0097,0.0,0.0,0.0,0.0,0.0,0.0,0.0,0.0,0.0,0.0,0.0,0.0,0.0,0.0,0.0,0.0,0.0,0.0,0.0,0.0,0.0,0.0,0.0,0.0,0.0,0.0,0.0,0.0,0.0,0.0,0.0,0.0,0.0,0.0,0.0,0.0,0.0,0.0,-1.3347,-1.4332,-1.3564,-1.4072,-1.4299,-1.3891,-1.3152,-1.2678,-1.272,-1.2258,-1.2088,-1.241,-1.2542,-1.2713,-1.2997,-1.3448,0.0,-1.2317,-1.3199,-1.3696,-1.3723,0.0,0.0,-1.466,-1.3072,0.0,0.0,0.0,-1.0084,0.0,0.0,0.0,-0.8789,-0.9233,-0.9098,-0.8702,-0.9175,-0.8998,-0.8466,-0.8008,-0.748,-0.7022,-0.7022,-0.6718,-0.6338,-0.6338,-0.6338,-0.6288,-0.643,-0.6529,-0.6473,-0.6087,-0.5581,-0.4849,-0.3118,-0.2236,-0.1523,-0.0269,0.0,0.0,0.0,0.0,0.0,0.0,-0.0321,0.0,0.0,0.0,0.0,0.0,0.0,0.0,0.0,0.0,0.0,0.0,0.0,0.0,0.0,0.0,0.0,0.0,0.0,0.0,0.0,0.0,0.0,0.0,0.0,0.0,0.0,0.0,0.0,0.0,0.0,0.0,0.0,0.0,0.0,0.0,0.0,0.0,0.0,0.0,0.0,0.0,0.0,0.0,0.0,0.0,-1.1798,0.0,0.0,-1.101,0.0,-1.085,-1.1998,-1.2895,-1.3244,-1.3543,-1.3673,-1.3673,-1.2879,-1.2251,-1.2124,-1.1804,-1.1703,-1.1917,-1.173,-1.1764,-1.2098,-1.2238,-1.1977,-1.1289,-1.1951,-1.2458,0.0,0.0,0.0,-1.3696,-1.2378,0.0,0.0,0.0,0.0,0.0,0.0,-0.9082,-0.799,-0.8714,-0.8846,-0.8694,-0.8694,-0.8161,-0.748,-0.748,-0.6945,-0.6338,-0.6338,-0.6338,-0.6338,-0.6338,-0.6281,-0.6335,-0.6478,-0.646,-0.6182,-0.5368,-0.4937,-0.4198,-0.2236,-0.1612,-0.1165,-0.018,0.0,0.0,0.0,0.0,0.0,0.0,0.0,0.0,0.0,0.0,0.0,0.0,0.0,0.0,0.0,0.0,0.0,0.0,0.0,0.0,0.0,0.0,0.0,0.0,0.0,0.0,0.0,0.0,0.0,0.0,0.0,0.0,0.0,0.0,0.0,0.0,0.0,0.0,0.0,0.0,0.0,0.0,0.0,0.0,0.0,0.0,0.0,0.0,0.0,0.0,0.0,0.0,0.0,0.0,0.0,0.0,0.0,-1.3085,-1.2154,-1.1727,-1.3115,-1.3543,-1.3673,-1.3673,-1.2879,-1.2084,-1.155,-1.1944,-1.179,-1.0788,-1.1663,-1.2004,-1.153,-1.2017,-1.2265,-1.2184,-1.2258,-1.2691,0.0,0.0,-1.259,-1.2747,-1.2026,0.0,0.0,0.0,0.0,-0.9661,-0.9574,-0.8871,-0.7858,-0.7914,-0.7403,-0.6567,-0.6567,-0.649,-0.6412,-0.6412,-0.6416,-0.6338,-0.6338,-0.6338,-0.6338,-0.6338,-0.6349,-0.6481,-0.6634,-0.6017,-0.5282,-0.531,-0.3746,-0.2058,-0.1879,-0.0986,-0.018,0.0,0.0,0.0,0.0,0.0,0.0,0.0,0.0,0.0,0.0,0.0,0.0,0.0,0.0,0.0,0.0,0.0,0.0,0.0,0.0,0.0,0.0,0.0,0.0,0.0,0.0,0.0,0.0,0.0,0.0,0.0,0.0,0.0,0.0,0.0,0.0,0.0,0.0,0.0,0.0,0.0,0.0,0.0,0.0,0.0,0.0,0.0,0.0,0.0,0.0,0.0,0.0,0.0,0.0,0.0,0.0,0.0,0.0,0.0,-1.1943,-1.1999,-1.2597,-1.2802,-1.2879,-1.2879,-1.2519,-1.2204,-1.1971,-1.2164,-1.2104,-1.1637,-1.2044,-1.2198,-1.1964,-1.2178,-1.2305,-1.2305,-1.2305,-1.2445,0.0,0.0,0.0,0.0,-1.1135,-1.0654,-1.037,-1.0735,-1.0116,-0.878,-0.9188,-0.8384,-0.6872,-0.6872,-0.6641,-0.6338,-0.6338,-0.6338,-0.6338,-0.6338,-0.6338,-0.6338,-0.6338,-0.6338,-0.6183,-0.555,-0.5401,-0.5283,-0.4824,-0.4422,-0.4,-0.3375,-0.2504,-0.1612,-0.0897,-0.0359,0.0,0.0,0.0,0.0,0.0,0.0,0.0,0.0,0.0,0.0,0.0,0.0,0.0,0.0,0.0,0.0,0.0,0.0,0.0,0.0,0.0,0.0,0.0,0.0,0.0,0.0,0.0,0.0,0.0,0.0,0.0,0.0,0.0,0.0,0.0,0.0,0.0,0.0,0.0,0.0,0.0,0.0,0.0,0.0,0.0,0.0,0.0,0.0,0.0,0.0,0.0,0.0,0.0,-1.2901,0.0,-1.1226,0.0,-1.175,-1.1557,-1.1176,-1.1571,-1.1937,-1.1992,-1.1965,-1.1996,-1.2305,-1.2305,-1.2231,-1.2058,-1.2204,-1.2158,-1.181,-1.2111,-1.2225,-1.2051,-1.2211,0.0,-1.2305,-1.2305,-1.2305,-1.2305,-1.172,0.0,0.0,-1.0696,-1.0492,-1.0471,-1.0983,-1.0143,-0.8403,-0.8723,-0.7859,-0.6338,-0.6338,-0.6338,-0.6338,-0.6338,-0.6338,-0.6338,-0.6338,-0.6338,-0.6261,-0.5944,-0.5864,-0.5709,-0.4924,-0.4708,-0.4594,-0.3584,-0.3164,-0.272,-0.205,-0.1522,-0.1076,-0.018,0.0,0.0,0.0,0.0,0.0,0.0,0.0,0.0,0.0,0.0,0.0,0.0,0.0,0.0,0.0,0.0,0.0,0.0,0.0,0.0143,0.0469,0.0551,0.0504,0.0515,0.0,0.0,0.0,0.0,0.0,0.0,0.0,0.0,0.0,0.0,0.0,0.0,0.0,0.0,0.0,0.0,0.0,0.0,0.0,0.0,0.0,0.0,0.0,0.0,0.0,0.0,0.0,0.0,0.0,0.0,-1.2253,-1.2214,-1.2178,-1.1968,-1.2098,-1.2091,-1.151,-1.1037,-1.0973,-1.1372,-1.1056,-1.1236,-1.2224,-1.2305,-1.2071,-1.149,-1.1964,-1.181,-1.0719,-1.1657,-1.2044,0.0,0.0,-1.2305,-1.2305,-1.2305,-1.2305,-1.2305,0.0,0.0,-1.0982,-1.0975,-1.1129,-1.1368,-1.0991,-1.0254,-0.921,-0.8232,-0.7249,-0.6338,-0.6338,-0.6338,-0.6338,-0.6338,-0.6338,-0.6338,-0.6338,-0.6338,-0.6103,-0.5079,-0.4688,-0.4688,-0.4688,-0.4763,-0.4691,-0.3602,-0.2593,-0.179,-0.179,-0.0897,0.0,0.0,0.0,0.0,0.0,0.0,0.0,0.0,0.0,0.0,0.0,0.0,0.0,0.0,0.0,0.0,0.0,0.0,0.0,0.0,0.0,0.0467,0.1662,0.1757,0.0,0.0,0.0,0.0,0.0,0.0,0.0,0.0,0.0,0.0,0.0,0.0,0.0,0.0,0.0,0.0,0.0,0.0,0.0,0.0,0.0,0.0,0.0,0.0,0.0,0.0,0.0,0.0,0.0,0.0,0.0,0.0,-1.0816,-1.1458,-1.1917,-1.1617,-1.1382,-1.1181,-1.101,-1.0313,-0.9841,-0.999,-1.0467,-1.064,-1.0271,-1.1477,-1.2225,0.0,-1.1824,-1.1717,0.0,-1.1717,-1.1797,-1.2011,-1.163,-1.141,-1.141,-1.141,-1.141,-1.141,0.0,0.0,-1.0995,-1.0995,-1.1009,-1.0991,-1.0861,-0.989,-0.8237,-0.7931,-0.7249,-0.6338,-0.6338,-0.6338,-0.6338,-0.6338,-0.6338,-0.6338,-0.6338,-0.6338,-0.6103,-0.5079,-0.4688,-0.4453,-0.3049,-0.2586,-0.243,-0.1343,-0.0781,-0.0539,-0.0539,-0.0269,0.0,0.0,0.0,0.0,0.0,0.0,0.0,0.0,0.0,0.0,0.0,0.0,0.0,0.0,0.0,0.0,0.0,0.0,0.0611,0.0606,0.1331,0.1998,0.2351,0.278,0.0,0.0,0.0,0.0,0.0,0.0,0.0,0.0,0.0,0.0,0.0,0.0778,0.1198,0.1254,0.2057,0.2058,0.1254,0.1254,0.0801,0.0,0.0,0.0,0.0,0.0,0.0,0.0,0.0,0.0,0.0,0.0,0.0,0.0,-1.0341,-1.1168,-1.1899,-1.1275,-1.0943,-1.057,-1.0008,-0.9255,-0.8784,-0.8916,-0.9404,-0.9588,-0.9296,-1.0421,0.0,-1.1174,-1.1159,-1.1325,-1.1742,-1.1735,-1.1917,-1.2285,-1.1777,-1.1483,-1.1483,-1.1483,-1.1483,-1.1483,-1.1125,-1.0918,-1.0918,-1.0571,-1.0337,-1.019,-0.9809,-0.8988,-0.7783,-0.7403,-0.6872,-0.6338,-0.6338,-0.6338,-0.6338,-0.6338,-0.6338,-0.6338,-0.6338,-0.6338,-0.6103,-0.4608,-0.4062,-0.3748,-0.1644,-0.0972,-0.084,-0.0168,0.0,0.0,0.0,0.0,0.0,0.0,0.0,0.0,0.0,0.0,0.0,0.0,0.0,0.0,0.0,0.0,0.0,0.0,0.0347,0.0705,0.0666,0.0,0.1649,0.0,0.0,0.2979,0.0,0.4027,0.3943,0.0,0.0,0.0,0.0,0.0,0.0853,0.1304,0.1352,0.1322,0.1365,0.2097,0.246,0.2503,0.3215,0.3203,0.2387,0.2387,0.1923,0.1201,0.1201,0.1185,0.1161,0.0747,0.0579,0.0573,0.0161,0.0,0.0,0.0,0.0,0.0,-1.0402,-1.124,-1.1755,-1.081,-1.0611,-1.0103,-0.8583,-0.7995,-0.7802,-0.8222,-0.8004,-0.8161,-0.8993,-0.9145,-0.915,-0.9069,0.0,0.0,-1.0708,-1.1582,-1.2184,-1.2224,-1.2171,-1.2211,-1.2138,-1.2138,-1.2091,-1.2077,-1.1162,-1.0708,-1.0708,-0.9744,-0.9296,-0.9145,-0.8237,-0.7783,-0.7629,-0.6718,-0.6338,-0.6338,-0.6338,-0.6338,-0.6338,-0.6338,-0.6338,-0.6338,-0.6338,-0.6261,-0.5867,-0.3826,-0.3046,-0.2656,-0.0627,0.0,0.0,0.0,0.0,0.0,0.0,0.0,0.0,0.0,0.0,0.0,0.0,0.0,0.0,0.0,0.0,0.0,0.0,0.0,0.0,0.009,0.1076,0.1787,0.1864,0.2397,0.299,0.0,0.0,0.0,0.528,0.5517,0.5448,0.0,0.0,0.0,0.0,0.0,0.2546,0.3542,0.3611,0.3596,0.3626,0.3708,0.3786,0.3829,0.3829,0.3701,0.3542,0.3456,0.3328,0.3091,0.3091,0.3134,0.2988,0.2103,0.1679,0.1567,0.0628,0.0235,0.0235,0.0235,0.0157,0.0079,0.0,0.0,-0.9776,-0.9118,-0.8689,-0.8353,-0.8032,-0.7198,-0.6692,-0.676,-0.7347,-0.7629,-0.7099,-0.7706,-0.7859,-0.7099,-0.824,-0.9135,-0.9648,-1.0202,-1.0665,-1.1143,-1.1224,-1.0957,-1.0188,-1.0188,-1.0131,-0.9976,-0.9744,-0.9669,-0.9669,-0.9448,-0.8917,-0.8161,-0.7936,-0.7403,-0.6644,-0.6412,-0.6338,-0.6338,-0.6338,-0.6338,-0.6338,-0.6338,-0.6338,-0.6338,-0.6338,-0.5786,-0.4844,-0.3513,-0.2579,-0.1723,-0.0392,0.0,0.0,0.0,0.0,0.0,0.0,0.0,0.0,0.0,0.0,0.0,0.0,0.0,0.0,0.0,0.0,0.0,0.0,0.0,0.0269,0.1254,0.1612,0.1925,0.2451,0.3408,0.3962,0.0,0.4724,0.5613,0.6058,0.6466,0.6326,0.0,0.0,0.5137,0.5007,0.4675,0.4254,0.363,0.3621,0.3564,0.3637,0.4506,0.5383,0.6106,0.6106,0.5604,0.4559,0.4559,0.4001,0.31,0.31,0.3139,0.3071,0.2836,0.2749,0.2735,0.25,0.2344,0.2344,0.2344,0.1879,0.1254,-0.7774,-0.8524,-0.907,-0.824,-0.7944,-0.7629,-0.7173,-0.6644,-0.6338,-0.6338,-0.6795,-0.6872,-0.6338,-0.6795,-0.6872,-0.6338,-0.7443,-0.8296,-0.8599,-0.9211,-0.9772,-1.0104,-1.0179,-0.9961,-0.939,-0.939,-0.9368,-0.9296,-0.8841,-0.8618,-0.8618,-0.8161,-0.7629,-0.7099,-0.7099,-0.6795,-0.6338,-0.6338,-0.6338,-0.6338,-0.6338,-0.6338,-0.6338,-0.6338,-0.6022,-0.555,-0.555,-0.4844,-0.3826,-0.2735,-0.2035,-0.1411,-0.0314,0.0,0.0,0.0,0.0,0.0,0.0,0.0,0.0,0.0,0.0,0.0,0.0,0.0,0.0,0.0,0.0,0.0,0.0,0.0449,0.1076,0.1701,0.2532,0.328,0.3601,0.4437,0.4964,0.4921,0.572,0.6366,0.6637,0.6953,0.6863,0.6198,0.5953,0.0,0.617,0.595,0.5618,0.525,0.5174,0.5174,0.5174,0.575,0.6393,0.6929,0.6858,0.6408,0.5606,0.5606,0.5211,0.454,0.454,0.4585,0.453,0.4059,0.3851,0.3891,0.3414,0.3277,0.3308,0.3308,0.2988,0.2425,-0.7706,-0.8237,-0.8618,-0.7706,-0.7553,-0.7249,-0.6416,-0.6338,-0.6338,-0.6338,-0.6338,-0.6338,-0.6338,-0.6338,-0.6338,-0.6338,-0.7099,-0.7553,-0.7553,-0.8542,-0.9069,-0.9069,-0.9221,-0.9221,-0.9069,-0.8917,-0.8841,-0.8841,-0.8012,-0.7553,-0.7557,-0.6718,-0.6338,-0.6338,-0.6338,-0.6338,-0.6338,-0.6338,-0.6338,-0.6338,-0.6338,-0.6338,-0.6261,-0.6103,-0.5473,-0.4686,-0.453,-0.3748,-0.2735,-0.188,-0.1489,-0.1176,-0.0314,0.0,0.0,0.0,0.0,0.0,0.0,0.0,0.0,0.0,0.0,0.0,0.0,0.0,0.0,0.0,0.018,0.0269,0.0269,0.1254,0.214,0.2208,0.3615,0.4753,0.4844,0.0,0.5901,0.6383,0.6413,0.659,0.7092,0.7139,0.7139,0.7139,0.6675,0.6614,0.7112,0.6664,0.6624,0.7126,0.7139,0.7129,0.7109,0.6966,0.6881,0.6858,0.6729,0.6586,0.6441,0.6441,0.6376,0.6338,0.6338,0.6274,0.6291,0.5341,0.5018,0.5127,0.423,0.3952,0.4103,0.4103,0.3936,0.3686,-0.6567,-0.6641,-0.6718,-0.6567,-0.6567,-0.649,-0.6338,-0.6338,-0.6338,-0.6338,-0.6338,-0.6338,-0.6338,-0.6338,-0.6338,-0.6338,-0.6412,-0.6567,-0.6567,-0.748,-0.8012,-0.8012,-0.8841,-0.8922,-0.8084,-0.7176,-0.6795,-0.6795,-0.6644,-0.6567,-0.6567,-0.6338,-0.6338,-0.6338,-0.6338,-0.6338,-0.6338,-0.6338,-0.6338,-0.6338,-0.6338,-0.6338,-0.6183,-0.5315,-0.4844,-0.4608,-0.3669,-0.2657,-0.1802,-0.1646,-0.102,-0.0236,-0.0079,0.0,0.0,0.0,0.0,0.0,0.0,0.0,0.0,0.0,0.0,0.0,0.0,0.0,0.0,0.0,0.0807,0.1522,0.1522,0.2503,0.351,0.4151,0.4484,0.488,0.5362,0.0,0.6325,0.6298,0.6715,0.7041,0.7132,0.7139,0.7139,0.7139,0.7054,0.7044,0.7136,0.7054,0.7044,0.7136,0.7139,0.7082,0.6963,0.681,0.6671,0.6542,0.6519,0.643,0.6295,0.6295,0.6281,0.6338,0.6338,0.6329,0.6437,0.6275,0.6283,0.6414,0.6249,0.6179,0.6197,0.6197,0.5607,0.4851,-0.6338,-0.6338,-0.6338,-0.6338,-0.6338,-0.6338,-0.6338,-0.6338,-0.6338,-0.6338,-0.6338,-0.6338,-0.6338,-0.6338,-0.6338,-0.6338,-0.6338,-0.6338,-0.6338,-0.6718,-0.7022,-0.7022,-0.7403,-0.748,-0.7022,-0.6567,-0.6338,-0.6338,-0.6338,-0.6338,-0.6338,-0.6338,-0.6338,-0.6338,-0.6338,-0.6338,-0.6338,-0.6338,-0.6338,-0.6338,-0.6338,-0.5944,-0.5392,-0.4921,-0.3986,-0.2973,-0.2503,-0.1644,-0.0706,-0.0706,-0.0392,0.0,0.0,0.0,0.0,0.0,0.0,0.0,0.0,0.0,0.0,0.0,0.0,0.0,0.0,0.0539,0.0986,0.0986,0.1969,0.2769,0.2769,0.3749,0.4687,0.4979,0.5388,0.5738,0.6026,0.6298,0.6447,0.6383,0.6827,0.7139,0.7139,0.7139,0.7139,0.7139,0.7139,0.7139,0.7139,0.7139,0.7139,0.7139,0.7065,0.6956,0.6807,0.6654,0.6542,0.6471,0.6393,0.6325,0.6338,0.6338,0.6302,0.6376,0.6376,0.6458,0.6597,0.6597,0.6685,0.6824,0.6824,0.6871,0.6939,0.6939,0.6589,0.6064,-0.6338,-0.6338,-0.6338,-0.6338,-0.6338,-0.6338,-0.6338,-0.6338,-0.6338,-0.6338,-0.6338,-0.6338,-0.6338,-0.6338,-0.6338,-0.6338,-0.6338,-0.6338,-0.6338,-0.6338,-0.6338,-0.6338,-0.6338,-0.6338,-0.6338,-0.6338,-0.6338,-0.6338,-0.6338,-0.6338,-0.6338,-0.6338,-0.6338,-0.6338,-0.6338,-0.6338,-0.6338,-0.6338,-0.618,-0.5944,-0.5944,-0.5315,-0.4297,-0.4064,-0.2973,-0.1568,-0.1333,-0.0706,0.0,0.0,0.0,0.0,0.0,0.0,0.0,0.0,0.0,0.0,0.0,0.0,0.0,0.0,0.0,0.009,0.0359,0.1165,0.1879,0.2147,0.3215,0.4016,0.4016,0.4999,0.5775,0.5692,0.6111,0.6471,0.6471,0.6471,0.6512,0.6614,0.6932,0.7139,0.7139,0.7139,0.7139,0.7139,0.7139,0.7139,0.7139,0.7139,0.7109,0.7041,0.6932,0.6803,0.6651,0.6498,0.6424,0.642,0.6315,0.6338,0.6264,0.6295,0.6369,0.6474,0.6508,0.6614,0.6753,0.6753,0.6844,0.6976,0.6976,0.7044,0.7139,0.7139,0.7139,0.6962,-0.6338,-0.6338,-0.6338,-0.6338,-0.6338,-0.6338,-0.6338,-0.6338,-0.6338,-0.6338,-0.6338,-0.6338,-0.6338,-0.6338,-0.6338,-0.6338,-0.6338,-0.6338,-0.6338,-0.6338,-0.6338,-0.6338,-0.6338,-0.6338,-0.6338,-0.6338,-0.6338,-0.6338,-0.6338,-0.6338,-0.6338,-0.6338,-0.6338,-0.6338,-0.6338,-0.6338,-0.6338,-0.6338,-0.5709,-0.4844,-0.4844,-0.4139,-0.3124,-0.2192,-0.1724,-0.1489,-0.0471,-0.0079,0.0,0.0,0.0,0.0,0.0,0.0,0.0,0.0,0.0,0.0,0.0,0.0,0.0,0.0,0.0,0.0269,0.1433,0.1701,0.2147,0.3215,0.4463,0.527,0.527,0.616,0.683,0.6505,0.0,0.0,0.6471,0.6471,0.6627,0.7041,0.7122,0.7139,0.7139,0.7139,0.7139,0.7139,0.7139,0.7139,0.7139,0.7139,0.7014,0.6742,0.6722,0.6644,0.6488,0.6346,0.6278,0.6278,0.6345,0.6338,0.6268,0.6396,0.6461,0.6478,0.662,0.677,0.6912,0.6912,0.6997,0.7126,0.7126,0.7132,0.7139,0.7139,0.7139,0.7051,-0.6338,-0.6338,-0.6338,-0.6338,-0.6338,-0.6338,-0.6338,-0.6338,-0.6338,-0.6338,-0.6338,-0.6338,-0.6338,-0.6338,-0.6338,-0.6338,-0.6338,-0.6338,-0.6338,-0.6338,-0.6338,-0.6338,-0.6338,-0.6338,-0.6338,-0.6338,-0.6338,-0.6338,-0.6338,-0.6338,-0.6338,-0.6338,-0.6338,-0.6338,-0.6338,-0.5944,-0.5315,-0.5315,-0.4686,-0.3671,-0.3671,-0.3125,-0.2113,-0.1723,-0.1176,-0.0549,-0.0157,0.0,0.0,0.0,0.0,0.0,0.0,0.0,0.0,0.0,0.0,0.0168,0.0871,0.1154,0.1076,0.1076,0.17,0.2325,0.2771,0.3484,0.4198,0.4643,0.5622,0.6428,0.6428,0.6782,0.7085,0.6912,0.0,0.6888,0.6888,0.6888,0.6949,0.7119,0.7139,0.7139,0.7139,0.7139,0.7139,0.7139,0.7139,0.7139,0.7139,0.7058,0.6871,0.6569,0.6559,0.6488,0.6342,0.6288,0.6338,0.6264,0.6349,0.639,0.6396,0.6546,0.6664,0.6759,0.6817,0.6926,0.7058,0.7058,0.7092,0.7139,0.7139,0.7139,0.7139,0.7139,0.7139,0.7139,-0.6338,-0.6338,-0.6338,-0.6338,-0.6338,-0.6338,-0.6338,-0.6338,-0.6338,-0.6338,-0.6338,-0.6338,-0.6338,-0.6338,-0.618,-0.5864,-0.5786,-0.5786,-0.5786,-0.6103,-0.6338,-0.6338,-0.6338,-0.6338,-0.6338,-0.6338,-0.6338,-0.6338,-0.6338,-0.6338,-0.6338,-0.6338,-0.6338,-0.6261,-0.5944,-0.5392,-0.4686,-0.4373,-0.3593,-0.2657,-0.2657,-0.2034,-0.1097,-0.1097,-0.0628,0.0,0.0,0.0,0.0,0.0,0.0,0.0,0.0,0.0236,0.0472,0.048,0.0727,0.1144,0.202,0.2501,0.2726,0.2407,0.2948,0.3659,0.4105,0.4821,0.5536,0.5894,0.6517,0.7139,0.7139,0.7139,0.7139,0.7139,0.7139,0.7139,0.7139,0.7139,0.7139,0.7139,0.7139,0.7139,0.7139,0.7139,0.7139,0.7139,0.7139,0.7122,0.7078,0.6936,0.6739,0.6481,0.6427,0.638,0.6329,0.6329,0.6329,0.6329,0.6474,0.6546,0.6549,0.6702,0.6827,0.6929,0.6976,0.7051,0.7139,0.7139,0.7139,0.7139,0.7139,0.7139,0.7139,0.7139,0.7139,0.7139,-0.6338,-0.6338,-0.6338,-0.6338,-0.6338,-0.6338,-0.6338,-0.6261,-0.6261,-0.6261,-0.6261,-0.6261,-0.6261,-0.6261,-0.5867,-0.4766,-0.4686,-0.4686,-0.4686,-0.5709,-0.6261,-0.6261,-0.6261,-0.6338,-0.6338,-0.6338,-0.6338,-0.6338,-0.6338,-0.6261,-0.6261,-0.6261,-0.6261,-0.6257,-0.5157,-0.4686,-0.4608,-0.3513,-0.2501,-0.1568,-0.1568,-0.0941,0.0,0.0,0.0,0.0,0.0,0.0,0.0,0.0,0.0,0.0,0.0,0.0706,0.1568,0.1646,0.2307,0.3075,0.3075,0.395,0.4655,0.3796,0.3659,0.3926,0.5179,0.5447,0.5714,0.6874,0.7139,0.7139,0.7139,0.7139,0.7139,0.7139,0.7139,0.7139,0.7139,0.7139,0.7139,0.7139,0.7139,0.7139,0.7139,0.7139,0.7139,0.7139,0.7139,0.7078,0.6936,0.6783,0.663,0.6478,0.6414,0.6407,0.6551,0.6471,0.6471,0.6474,0.6627,0.6702,0.6709,0.6861,0.6929,0.6939,0.7078,0.7139,0.7139,0.7139,0.7139,0.7139,0.7139,0.7139,0.7139,0.7139,0.7139,0.7139,-0.6338,-0.6338,-0.6338,-0.6338,-0.6338,-0.6338,-0.6338,-0.5631,-0.5157,-0.5157,-0.453,-0.4062,-0.4062,-0.4062,-0.3904,-0.3593,-0.3591,-0.3591,-0.3591,-0.3904,-0.4062,-0.4062,-0.5473,-0.6338,-0.6338,-0.6338,-0.6338,-0.6338,-0.6338,-0.5944,-0.5157,-0.5157,-0.4766,-0.4059,-0.3748,-0.3203,-0.2504,-0.2192,-0.141,-0.0471,-0.0471,-0.0314,0.0,0.0,0.0,0.0,0.0,0.0471,0.1098,0.1098,0.1098,0.1098,0.1098,0.1333,0.1723,0.2425,0.2827,0.3249,0.411,0.4639,0.4879,0.4662,0.5326,0.6051,0.6495,0.6605,0.6694,0.7051,0.7139,0.7139,0.7139,0.7139,0.7139,0.7139,0.7139,0.7139,0.7139,0.7139,0.7139,0.7139,0.7139,0.7139,0.7139,0.7139,0.7139,0.7139,0.7139,0.7371,0.7931,0.713,0.663,0.6478,0.7217,0.7664,0.7833,0.6921,0.6525,0.6634,0.6787,0.6861,0.6865,0.701,0.7078,0.7082,0.7122,0.7139,0.7139,0.7139,0.7139,0.7139,0.7139,0.7139,0.7139,0.7139,0.7139,0.7139,-0.5002,-0.5002,-0.5002,-0.5002,-0.5002,-0.5002,-0.5002,-0.4453,-0.4062,-0.4062,-0.3513,-0.3124,-0.3124,-0.3124,-0.2968,-0.2579,-0.2501,-0.2501,-0.2501,-0.289,-0.3124,-0.3124,-0.4373,-0.5002,-0.5002,-0.5002,-0.5002,-0.5002,-0.5002,-0.4688,-0.4062,-0.4062,-0.3748,-0.3046,-0.2657,-0.219,-0.1568,-0.1176,-0.0628,0.0,0.0,0.0,0.0,0.0,0.0,0.0079,0.0471,0.1019,0.1646,0.2035,0.219,0.219,0.219,0.2503,0.2973,0.3593,0.4059,0.4545,0.5249,0.5433,0.5479,0.5596,0.6279,0.6875,0.7024,0.7058,0.7071,0.7129,0.7139,0.7139,0.7139,0.7139,0.7139,0.7139,0.7139,0.7139,0.7139,0.7139,0.7139,0.7139,0.7139,0.7139,0.7139,0.7489,0.8013,0.8444,0.8444,0.8492,0.8529,0.8267,0.7859,0.7285,0.8399,0.9052,0.9165,0.8397,0.7835,0.7453,0.7621,0.7444,0.7014,0.7102,0.7139,0.7139,0.7139,0.7139,0.7139,0.7139,0.7139,0.7139,0.7139,0.7139,0.7139,0.7139,0.7139,0.7139,-0.3124,-0.3124,-0.3124,-0.3124,-0.3124,-0.3124,-0.3124,-0.3046,-0.2968,-0.2968,-0.289,-0.2812,-0.2812,-0.2812,-0.2423,-0.1568,-0.1489,-0.1489,-0.1489,-0.2345,-0.2812,-0.2812,-0.2812,-0.2812,-0.2812,-0.2968,-0.3124,-0.3124,-0.3124,-0.3046,-0.2968,-0.2968,-0.289,-0.2812,-0.1879,-0.1489,-0.1411,-0.0392,0.0,0.0,0.0,0.0,0.0,0.0,0.0,0.0157,0.1176,0.1646,0.188,0.289,0.3279,0.3279,0.3279,0.3904,0.4688,0.4844,0.555,0.6338,0.6338,0.6338,0.6291,0.642,0.6559,0.6705,0.6871,0.6909,0.6946,0.7075,0.7112,0.7122,0.7122,0.7132,0.7139,0.7139,0.7139,0.7139,0.7139,0.7139,0.7139,0.7139,0.7228,0.7228,0.7228,0.8364,0.9492,1.0697,1.0697,1.0172,0.9039,0.9858,0.9849,0.8595,0.9735,1.0418,1.0548,1.0637,1.0139,0.8887,0.8892,0.8364,0.7228,0.7139,0.7139,0.7139,0.7139,0.7139,0.7139,0.7139,0.7139,0.7139,0.7139,0.7139,0.7139,0.7139,0.7139,0.7139,-0.3124,-0.3124,-0.3124,-0.3124,-0.3124,-0.3124,-0.3124,-0.2425,-0.1958,-0.1958,-0.1175,-0.0706,-0.0706,-0.0706,-0.0549,-0.0392,-0.0314,-0.0314,-0.0314,-0.0549,-0.0706,-0.0706,-0.0706,-0.0706,-0.0706,-0.2267,-0.3124,-0.3124,-0.3124,-0.2735,-0.1958,-0.1958,-0.1488,-0.0627,-0.0471,-0.0314,-0.0314,-0.0079,0.0,0.0,0.0,0.0,0.0,0.0,0.0,0.0157,0.1176,0.2113,0.2969,0.3984,0.4373,0.4373,0.4373,0.453,0.4844,0.5709,0.6103,0.6338,0.6338,0.6338,0.6345,0.6298,0.6332,0.6427,0.6688,0.6749,0.6759,0.679,0.6892,0.6973,0.6973,0.7065,0.7139,0.7139,0.7139,0.7139,0.7139,0.7139,0.7139,0.7139,0.7925,0.854,0.854,0.9579,1.0697,1.1809,1.1123,1.0857,1.1305,1.0778,1.0252,0.9952,1.1123,1.1744,1.19,1.2856,1.2263,1.0196,0.93,0.8803,0.8452,0.7489,0.7139,0.7139,0.7139,0.7139,0.7139,0.7139,0.7139,0.7139,0.7139,0.7139,0.7139,0.7139,0.7139,0.7139,-0.1643,-0.1643,-0.1643,-0.1643,-0.1643,-0.1643,-0.1643,-0.1175,-0.0863,-0.0863,-0.0314,0.0,0.0,0.0,0.0,0.0,0.0,0.0,0.0,0.0,0.0,0.0,0.0,0.0,0.0,-0.1097,-0.1643,-0.1643,-0.1643,-0.1331,-0.0863,-0.0863,-0.0549,0.0,0.0,0.0,0.0,0.0,0.0,0.0,0.0,0.0,0.0079,0.0549,0.0784,0.0941,0.2504,0.375,0.4688,0.5237,0.5473,0.5473,0.5473,0.5473,0.555,0.6103,0.6338,0.6338,0.6338,0.6338,0.6338,0.6338,0.6338,0.6318,0.6539,0.6593,0.6614,0.6685,0.6763,0.682,0.682,0.6878,0.6953,0.7027,0.7041,0.7061,0.7132,0.7577,0.7929,0.7929,0.8969,0.9923,1.0438,1.1037,1.1901,1.3033,1.2601,1.2287,1.223,1.2224,1.1882,1.1359,1.2481,1.3065,1.3118,1.3822,1.3209,1.1386,1.0265,0.941,0.889,0.7665,0.7139,0.7139,0.7139,0.7139,0.7139,0.7139,0.7139,0.7139,0.7139,0.7139,0.7139,0.7139,0.7139,0.7139,0.0,0.0,0.0,0.0,0.0,0.0,0.0,0.0,0.0,0.0,0.0,0.0,0.0,0.0,0.0,0.0,0.0,0.0,0.0,0.0,0.0,0.0,0.0,0.0,0.0,0.0,0.0,0.0,0.0,0.0,0.0,0.0,0.0,0.0,0.0,0.0,0.0,0.0,0.0,0.0,0.0236,0.0235,0.0392,0.1489,0.188,0.2113,0.3984,0.5392,0.6338,0.6338,0.6338,0.6338,0.6338,0.6338,0.6338,0.6338,0.6338,0.6338,0.6338,0.6338,0.6338,0.6338,0.6338,0.6291,0.641,0.6434,0.6471,0.66,0.6644,0.6661,0.6661,0.6847,0.6989,0.7119,0.7225,0.7435,0.7563,0.8471,0.91,0.91,1.0159,1.13,1.2504,1.2589,1.3027,1.3997,1.4088,1.3646,1.2674,1.3555,1.3646,1.2674,1.3561,1.4088,1.4088,1.4088,1.3561,1.2589,1.1472,1.0183,0.889,0.7841,0.7316,0.7139,0.7139,0.7139,0.7139,0.7139,0.7139,0.7139,0.7139,0.7139,0.7139,0.7139,0.7139,0.7139,0.0,0.0,0.0,0.0,0.0,0.0,0.0,0.0,0.0,0.0,0.0,0.0,0.0,0.0,0.0,0.0,0.0,0.0,0.0,0.0,0.0,0.0,0.0,0.0,0.0,0.0,0.0,0.0,0.0,0.0,0.0,0.0,0.0,0.0,0.0,0.0,0.0,0.0,0.0,0.0079,0.102,0.1411,0.1489,0.2501,0.289,0.3047,0.4295,0.5392,0.6338,0.6338,0.6338,0.6338,0.6338,0.6338,0.6338,0.6338,0.6338,0.6338,0.6338,0.6338,0.6338,0.6338,0.6338,0.6345,0.6285,0.6288,0.6295,0.6315,0.6417,0.6505,0.6505,0.7334,0.8012,0.8036,0.8777,0.9356,0.9379,0.9707,0.9991,0.9991,1.1261,1.2504,1.373,1.3822,1.3913,1.4088,1.4088,1.4004,1.3906,1.3997,1.4004,1.3822,1.3997,1.4088,1.4088,1.4088,1.3997,1.3822,1.2681,1.0956,0.889,0.8715,0.8101,0.7139,0.7139,0.7139,0.7139,0.7139,0.7139,0.7139,0.7139,0.7139,0.7139,0.7139,0.7139,0.7139,0.0,0.0,0.0,0.0,0.0,0.0,0.0,0.0,0.0,0.0,0.0,0.0,0.0,0.0,0.0,0.0,0.0,0.0,0.0,0.0,0.0,0.0,0.0,0.0,0.0,0.0,0.0,0.0,0.0,0.0,0.0,0.0,0.0,0.0,0.0,0.0,0.0,0.0,0.0314,0.0941,0.1411,0.1958,0.2581,0.3593,0.3982,0.4146,0.5311,0.6029,0.6508,0.6508,0.6508,0.6491,0.6407,0.638,0.6363,0.6285,0.6338,0.6338,0.6338,0.6338,0.6338,0.6338,0.6338,0.6338,0.6338,0.6338,0.6338,0.6338,0.6312,0.6588,0.7125,0.7655,0.8211,0.8791,0.9284,0.9687,0.9935,1.0632,1.1416,1.2247,1.2965,1.347,1.4082,1.4088,1.4088,1.4088,1.4088,1.4088,1.4088,1.4088,1.4088,1.4088,1.4088,1.4088,1.4088,1.4088,1.3737,1.3118,1.3203,1.2425,1.0783,1.0183,0.9575,0.9052,0.8364,0.8105,0.8017,0.7404,0.7139,0.7139,0.7139,0.7139,0.7139,0.7139,0.7139,0.7139]}]]